Wetterdaten: Mittwoch, 29.11.2017
Datum Zeit Temp. A. Pool Temp. Feuchte A. Luftdruck Regen Wind Richtung Richtung Sonnenschein ET UV Solar Taupunkt Windchill Windben Empfang
29.11.2017 00:00 1,0 C 4,4 C 95 % 1006,9 hPa 0,0 l/m 3,0 km/h (1 Bft) SO 138 0 min 0,000 mm 0,0 UV-I 0 W/m 0,3 C 1,0 C 4,8 km/h (1 Bft) 94,00 %
29.11.2017 00:02 1,1 C 4,4 C 96 % 1006,9 hPa 0,0 l/m 2,6 km/h (1 Bft) SO 138 0 min 0,000 mm 0,0 UV-I 0 W/m 0,5 C 1,1 C 3,2 km/h (1 Bft) 95,35 %
29.11.2017 00:04 1,1 C 4,4 C 96 % 1006,8 hPa 0,0 l/m 1,7 km/h (1 Bft) SO 138 0 min 0,000 mm 0,0 UV-I 0 W/m 0,5 C 1,1 C 3,2 km/h (1 Bft) 95,74 %
29.11.2017 00:06 1,0 C 4,4 C 95 % 1006,8 hPa 0,0 l/m 0,8 km/h (0 Bft) SO 138 0 min 0,000 mm 0,0 UV-I 0 W/m 0,3 C 1,0 C 3,2 km/h (1 Bft) 97,87 %
29.11.2017 00:08 1,0 C 4,4 C 95 % 1006,8 hPa 0,0 l/m 1,8 km/h (1 Bft) SO 138 0 min 0,000 mm 0,0 UV-I 0 W/m 0,3 C 1,0 C 3,2 km/h (1 Bft) 94,74 %
29.11.2017 00:10 1,1 C 4,4 C 96 % 1006,8 hPa 0,0 l/m 1,4 km/h (1 Bft) SO 138 0 min 0,000 mm 0,0 UV-I 0 W/m 0,5 C 1,1 C 3,2 km/h (1 Bft) 100,00 %
29.11.2017 00:12 1,2 C 4,4 C 96 % 1006,9 hPa 0,0 l/m 2,2 km/h (1 Bft) SO 138 0 min 0,000 mm 0,0 UV-I 0 W/m 0,6 C 1,2 C 3,2 km/h (1 Bft) 100,00 %
29.11.2017 00:14 1,2 C 4,4 C 96 % 1006,9 hPa 0,0 l/m 2,0 km/h (1 Bft) SO 138 0 min 0,000 mm 0,0 UV-I 0 W/m 0,6 C 1,2 C 3,2 km/h (1 Bft) 98,00 %
29.11.2017 00:16 1,3 C 4,4 C 95 % 1006,9 hPa 0,0 l/m 2,7 km/h (1 Bft) SO 138 0 min 0,000 mm 0,0 UV-I 0 W/m 0,6 C 1,3 C 3,2 km/h (1 Bft) 96,00 %
29.11.2017 00:18 1,3 C 4,4 C 95 % 1006,8 hPa 0,0 l/m 2,5 km/h (1 Bft) SO 138 0 min 0,000 mm 0,0 UV-I 0 W/m 0,6 C 1,3 C 3,2 km/h (1 Bft) 97,87 %
29.11.2017 00:20 1,2 C 4,4 C 95 % 1006,8 hPa 0,0 l/m 2,0 km/h (1 Bft) SO 138 0 min 0,000 mm 0,0 UV-I 0 W/m 0,5 C 1,2 C 3,2 km/h (1 Bft) 97,87 %
29.11.2017 00:22 1,2 C 4,4 C 95 % 1006,8 hPa 0,0 l/m 2,0 km/h (1 Bft) SO 138 0 min 0,000 mm 0,0 UV-I 0 W/m 0,5 C 1,2 C 3,2 km/h (1 Bft) 93,75 %
29.11.2017 00:24 1,3 C 4,4 C 95 % 1006,8 hPa 0,0 l/m 1,2 km/h (1 Bft) SO 138 0 min 0,000 mm 0,0 UV-I 0 W/m 0,6 C 1,3 C 3,2 km/h (1 Bft) 97,87 %
29.11.2017 00:26 1,3 C 4,4 C 95 % 1006,7 hPa 0,0 l/m 0,5 km/h (0 Bft) SO 138 0 min 0,000 mm 0,0 UV-I 0 W/m 0,6 C 1,3 C 1,6 km/h (1 Bft) 100,00 %
29.11.2017 00:28 1,3 C 4,4 C 95 % 1006,8 hPa 0,0 l/m 0,3 km/h (0 Bft) SO 138 0 min 0,000 mm 0,0 UV-I 0 W/m 0,6 C 1,3 C 1,6 km/h (1 Bft) 95,74 %
29.11.2017 00:30 1,3 C 4,4 C 95 % 1006,8 hPa 0,0 l/m 2,6 km/h (1 Bft) SO 138 0 min 0,000 mm 0,0 UV-I 0 W/m 0,6 C 1,3 C 3,2 km/h (1 Bft) 95,74 %
29.11.2017 00:32 1,4 C 4,4 C 95 % 1006,8 hPa 0,0 l/m 1,9 km/h (1 Bft) SO 138 0 min 0,000 mm 0,0 UV-I 0 W/m 0,7 C 1,4 C 3,2 km/h (1 Bft) 97,87 %
29.11.2017 00:34 1,5 C 4,4 C 95 % 1006,8 hPa 0,0 l/m 1,1 km/h (1 Bft) SO 138 0 min 0,000 mm 0,0 UV-I 0 W/m 0,8 C 1,5 C 3,2 km/h (1 Bft) 95,74 %
29.11.2017 00:36 1,6 C 4,4 C 95 % 1006,8 hPa 0,0 l/m 2,5 km/h (1 Bft) SO 138 0 min 0,000 mm 0,0 UV-I 0 W/m 0,9 C 1,6 C 4,8 km/h (1 Bft) 97,87 %
29.11.2017 00:38 1,6 C 4,4 C 95 % 1006,8 hPa 0,0 l/m 2,6 km/h (1 Bft) SO 138 0 min 0,000 mm 0,0 UV-I 0 W/m 0,9 C 1,6 C 3,2 km/h (1 Bft) 97,87 %
29.11.2017 00:40 1,6 C 4,4 C 95 % 1006,9 hPa 0,0 l/m 2,6 km/h (1 Bft) SO 138 0 min 0,000 mm 0,0 UV-I 0 W/m 0,9 C 1,6 C 4,8 km/h (1 Bft) 97,87 %
29.11.2017 00:42 1,5 C 4,4 C 95 % 1006,9 hPa 0,0 l/m 2,8 km/h (1 Bft) S-SO 166 0 min 0,000 mm 0,0 UV-I 0 W/m 0,8 C 1,5 C 4,8 km/h (1 Bft) 93,62 %
29.11.2017 00:44 1,4 C 4,4 C 94 % 1006,9 hPa 0,0 l/m 2,7 km/h (1 Bft) S-SO 168 0 min 0,000 mm 0,0 UV-I 0 W/m 0,5 C 1,4 C 6,4 km/h (2 Bft) 95,74 %
29.11.2017 00:46 1,4 C 4,4 C 95 % 1006,8 hPa 0,0 l/m 1,4 km/h (1 Bft) S-SO 168 0 min 0,000 mm 0,0 UV-I 0 W/m 0,7 C 1,4 C 3,2 km/h (1 Bft) 93,62 %
29.11.2017 00:48 1,4 C 4,4 C 95 % 1006,8 hPa 0,0 l/m 2,8 km/h (1 Bft) S-SO 168 0 min 0,000 mm 0,0 UV-I 0 W/m 0,7 C 1,4 C 6,4 km/h (2 Bft) 97,87 %
29.11.2017 00:50 1,4 C 4,4 C 95 % 1006,8 hPa 0,0 l/m 3,6 km/h (1 Bft) S 169 0 min 0,000 mm 0,0 UV-I 0 W/m 0,7 C 1,4 C 6,4 km/h (2 Bft) 97,87 %
29.11.2017 00:52 1,5 C 4,4 C 95 % 1006,9 hPa 0,0 l/m 4,7 km/h (1 Bft) SW 226 0 min 0,000 mm 0,0 UV-I 0 W/m 0,8 C 1,5 C 8,0 km/h (2 Bft) 97,87 %
29.11.2017 00:54 1,6 C 4,4 C 95 % 1006,9 hPa 0,0 l/m 5,9 km/h (2 Bft) SW 234 0 min 0,000 mm 0,0 UV-I 0 W/m 0,9 C 1,6 C 8,0 km/h (2 Bft) 97,87 %
29.11.2017 00:56 1,7 C 4,4 C 95 % 1006,9 hPa 0,0 l/m 5,1 km/h (1 Bft) SW 219 0 min 0,000 mm 0,0 UV-I 0 W/m 1,0 C 1,7 C 8,0 km/h (2 Bft) 97,22 %
29.11.2017 00:58 1,8 C 4,4 C 95 % 1006,9 hPa 0,0 l/m 5,5 km/h (1 Bft) SW 228 0 min 0,000 mm 0,0 UV-I 0 W/m 1,1 C 1,8 C 8,0 km/h (2 Bft) 98,00 %
29.11.2017 01:00 1,9 C 4,4 C 95 % 1006,9 hPa 0,0 l/m 5,5 km/h (1 Bft) W-SW 238 0 min 0,000 mm 0,0 UV-I 0 W/m 1,2 C 1,9 C 8,0 km/h (2 Bft) 91,49 %
29.11.2017 01:02 1,9 C 4,4 C 95 % 1006,9 hPa 0,0 l/m 4,9 km/h (1 Bft) W-SW 243 0 min 0,000 mm 0,0 UV-I 0 W/m 1,2 C 1,9 C 6,4 km/h (2 Bft) 97,87 %
29.11.2017 01:04 1,9 C 4,4 C 94 % 1006,9 hPa 0,0 l/m 5,0 km/h (1 Bft) SW 225 0 min 0,000 mm 0,0 UV-I 0 W/m 1,0 C 1,9 C 8,0 km/h (2 Bft) 97,87 %
29.11.2017 01:06 1,9 C 4,4 C 94 % 1006,9 hPa 0,0 l/m 4,6 km/h (1 Bft) SW 234 0 min 0,000 mm 0,0 UV-I 0 W/m 1,0 C 1,9 C 6,4 km/h (2 Bft) 93,62 %
29.11.2017 01:08 2,0 C 4,4 C 94 % 1006,9 hPa 0,0 l/m 4,6 km/h (1 Bft) W-SW 252 0 min 0,000 mm 0,0 UV-I 0 W/m 1,1 C 2,0 C 6,4 km/h (2 Bft) 93,62 %
29.11.2017 01:10 2,1 C 4,4 C 94 % 1006,9 hPa 0,0 l/m 3,9 km/h (1 Bft) W-SW 253 0 min 0,000 mm 0,0 UV-I 0 W/m 1,2 C 2,1 C 6,4 km/h (2 Bft) 95,74 %
29.11.2017 01:12 2,1 C 4,4 C 94 % 1006,9 hPa 0,0 l/m 4,6 km/h (1 Bft) W-SW 257 0 min 0,000 mm 0,0 UV-I 0 W/m 1,2 C 2,1 C 6,4 km/h (2 Bft) 98,00 %
29.11.2017 01:14 2,2 C 4,4 C 94 % 1006,9 hPa 0,0 l/m 4,9 km/h (1 Bft) W-SW 256 0 min 0,000 mm 0,0 UV-I 0 W/m 1,3 C 2,2 C 8,0 km/h (2 Bft) 95,74 %
29.11.2017 01:16 2,2 C 4,4 C 94 % 1006,9 hPa 0,0 l/m 6,3 km/h (2 Bft) SW 229 0 min 0,000 mm 0,0 UV-I 0 W/m 1,3 C 2,2 C 11,3 km/h (2 Bft) 97,87 %
29.11.2017 01:18 2,2 C 4,4 C 94 % 1006,9 hPa 0,0 l/m 6,3 km/h (2 Bft) W-SW 240 0 min 0,000 mm 0,0 UV-I 0 W/m 1,3 C 2,2 C 11,3 km/h (2 Bft) 98,00 %
29.11.2017 01:20 2,2 C 4,4 C 94 % 1006,9 hPa 0,0 l/m 6,2 km/h (2 Bft) SW 218 0 min 0,000 mm 0,0 UV-I 0 W/m 1,3 C 2,2 C 9,7 km/h (2 Bft) 97,87 %
29.11.2017 01:22 2,2 C 4,4 C 94 % 1006,9 hPa 0,0 l/m 5,1 km/h (1 Bft) W 267 0 min 0,000 mm 0,0 UV-I 0 W/m 1,3 C 2,2 C 6,4 km/h (2 Bft) 97,37 %
29.11.2017 01:24 2,3 C 4,4 C 94 % 1006,9 hPa 0,0 l/m 5,4 km/h (1 Bft) W-SW 238 0 min 0,000 mm 0,0 UV-I 0 W/m 1,4 C 2,3 C 6,4 km/h (2 Bft) 98,00 %
29.11.2017 01:26 2,3 C 4,4 C 94 % 1006,9 hPa 0,0 l/m 6,5 km/h (2 Bft) SW 236 0 min 0,000 mm 0,0 UV-I 0 W/m 1,4 C 2,2 C 8,0 km/h (2 Bft) 95,74 %
29.11.2017 01:28 2,3 C 4,4 C 94 % 1006,9 hPa 0,0 l/m 6,0 km/h (2 Bft) W-SW 250 0 min 0,000 mm 0,0 UV-I 0 W/m 1,4 C 2,3 C 8,0 km/h (2 Bft) 98,00 %
29.11.2017 01:30 2,3 C 4,4 C 94 % 1007,0 hPa 0,0 l/m 5,3 km/h (1 Bft) SW 219 0 min 0,000 mm 0,0 UV-I 0 W/m 1,4 C 2,3 C 8,0 km/h (2 Bft) 97,87 %
29.11.2017 01:32 2,3 C 4,4 C 94 % 1006,9 hPa 0,0 l/m 5,3 km/h (1 Bft) SW 230 0 min 0,000 mm 0,0 UV-I 0 W/m 1,4 C 2,3 C 8,0 km/h (2 Bft) 97,87 %
29.11.2017 01:34 2,3 C 4,4 C 94 % 1006,9 hPa 0,0 l/m 5,7 km/h (1 Bft) SW 234 0 min 0,000 mm 0,0 UV-I 0 W/m 1,4 C 2,3 C 8,0 km/h (2 Bft) 100,00 %
29.11.2017 01:36 2,3 C 4,4 C 94 % 1006,9 hPa 0,0 l/m 5,0 km/h (1 Bft) SW 229 0 min 0,000 mm 0,0 UV-I 0 W/m 1,4 C 2,3 C 9,7 km/h (2 Bft) 98,00 %
29.11.2017 01:38 2,3 C 4,4 C 94 % 1006,9 hPa 0,0 l/m 6,1 km/h (2 Bft) SW 229 0 min 0,000 mm 0,0 UV-I 0 W/m 1,4 C 2,3 C 9,7 km/h (2 Bft) 100,00 %
29.11.2017 01:40 2,3 C 4,4 C 94 % 1006,9 hPa 0,0 l/m 6,3 km/h (2 Bft) SW 229 0 min 0,000 mm 0,0 UV-I 0 W/m 1,4 C 2,3 C 9,7 km/h (2 Bft) 92,00 %
29.11.2017 01:42 2,3 C 4,4 C 94 % 1006,8 hPa 0,0 l/m 7,5 km/h (2 Bft) W-SW 238 0 min 0,000 mm 0,0 UV-I 0 W/m 1,4 C 1,2 C 9,7 km/h (2 Bft) 95,83 %
29.11.2017 01:44 2,3 C 4,4 C 94 % 1006,9 hPa 0,0 l/m 5,9 km/h (2 Bft) SW 223 0 min 0,000 mm 0,0 UV-I 0 W/m 1,4 C 2,3 C 9,7 km/h (2 Bft) 95,74 %
29.11.2017 01:46 2,3 C 4,4 C 94 % 1006,9 hPa 0,0 l/m 6,0 km/h (2 Bft) SW 223 0 min 0,000 mm 0,0 UV-I 0 W/m 1,4 C 2,3 C 9,7 km/h (2 Bft) 95,74 %
29.11.2017 01:48 2,3 C 4,4 C 94 % 1006,9 hPa 0,0 l/m 5,4 km/h (1 Bft) SW 236 0 min 0,000 mm 0,0 UV-I 0 W/m 1,4 C 2,3 C 9,7 km/h (2 Bft) 97,87 %
29.11.2017 01:50 2,3 C 4,4 C 94 % 1006,9 hPa 0,0 l/m 6,2 km/h (2 Bft) SW 224 0 min 0,000 mm 0,0 UV-I 0 W/m 1,4 C 2,3 C 8,0 km/h (2 Bft) 97,83 %
29.11.2017 01:52 2,3 C 4,4 C 94 % 1006,9 hPa 0,0 l/m 5,4 km/h (1 Bft) SW 229 0 min 0,000 mm 0,0 UV-I 0 W/m 1,4 C 2,3 C 8,0 km/h (2 Bft) 95,74 %
29.11.2017 01:54 2,3 C 4,4 C 94 % 1006,9 hPa 0,0 l/m 5,1 km/h (1 Bft) SW 236 0 min 0,000 mm 0,0 UV-I 0 W/m 1,4 C 2,3 C 8,0 km/h (2 Bft) 97,87 %
29.11.2017 01:56 2,4 C 4,4 C 94 % 1006,9 hPa 0,0 l/m 6,0 km/h (2 Bft) SW 232 0 min 0,000 mm 0,0 UV-I 0 W/m 1,5 C 2,4 C 8,0 km/h (2 Bft) 97,87 %
29.11.2017 01:58 2,4 C 4,4 C 94 % 1007,0 hPa 0,0 l/m 5,8 km/h (2 Bft) SW 234 0 min 0,000 mm 0,0 UV-I 0 W/m 1,5 C 2,4 C 8,0 km/h (2 Bft) 100,00 %
29.11.2017 02:00 2,4 C 4,4 C 94 % 1007,0 hPa 0,0 l/m 5,7 km/h (1 Bft) SW 231 0 min 0,000 mm 0,0 UV-I 0 W/m 1,5 C 2,4 C 8,0 km/h (2 Bft) 97,87 %
29.11.2017 02:02 2,4 C 4,4 C 95 % 1007,0 hPa 0,0 l/m 6,8 km/h (2 Bft) SW 232 0 min 0,000 mm 0,0 UV-I 0 W/m 1,7 C 2,0 C 11,3 km/h (2 Bft) 97,87 %
29.11.2017 02:04 2,4 C 4,4 C 95 % 1007,0 hPa 0,0 l/m 7,3 km/h (2 Bft) SW 218 0 min 0,000 mm 0,0 UV-I 0 W/m 1,7 C 1,5 C 11,3 km/h (2 Bft) 97,87 %
29.11.2017 02:06 2,5 C 4,4 C 95 % 1007,0 hPa 0,0 l/m 6,5 km/h (2 Bft) SW 228 0 min 0,000 mm 0,0 UV-I 0 W/m 1,8 C 2,4 C 8,0 km/h (2 Bft) 95,74 %
29.11.2017 02:08 2,6 C 4,4 C 95 % 1007,0 hPa 0,0 l/m 7,4 km/h (2 Bft) SW 229 0 min 0,000 mm 0,0 UV-I 0 W/m 1,9 C 1,6 C 11,3 km/h (2 Bft) 97,87 %
29.11.2017 02:10 2,6 C 4,4 C 95 % 1007,0 hPa 0,0 l/m 6,4 km/h (2 Bft) SW 231 0 min 0,000 mm 0,0 UV-I 0 W/m 1,9 C 2,6 C 9,7 km/h (2 Bft) 95,74 %
29.11.2017 02:12 2,6 C 4,4 C 95 % 1007,0 hPa 0,0 l/m 6,1 km/h (2 Bft) SW 219 0 min 0,000 mm 0,0 UV-I 0 W/m 1,9 C 2,6 C 8,0 km/h (2 Bft) 97,87 %
29.11.2017 02:14 2,6 C 4,4 C 95 % 1007,0 hPa 0,2 l/m 6,4 km/h (2 Bft) SW 229 0 min 0,000 mm 0,0 UV-I 0 W/m 1,9 C 2,6 C 9,7 km/h (2 Bft) 97,22 %
29.11.2017 02:16 2,7 C 4,4 C 95 % 1007,0 hPa 0,0 l/m 7,3 km/h (2 Bft) W-SW 246 0 min 0,000 mm 0,0 UV-I 0 W/m 2,0 C 1,8 C 11,3 km/h (2 Bft) 100,00 %
29.11.2017 02:18 2,7 C 4,4 C 95 % 1007,0 hPa 0,0 l/m 6,5 km/h (2 Bft) W-SW 242 0 min 0,000 mm 0,0 UV-I 0 W/m 2,0 C 2,6 C 9,7 km/h (2 Bft) 100,00 %
29.11.2017 02:20 2,7 C 4,4 C 95 % 1006,9 hPa 0,0 l/m 7,2 km/h (2 Bft) SW 227 0 min 0,000 mm 0,0 UV-I 0 W/m 2,0 C 1,9 C 9,7 km/h (2 Bft) 100,00 %
29.11.2017 02:22 2,8 C 4,4 C 95 % 1006,9 hPa 0,0 l/m 6,1 km/h (2 Bft) SW 233 0 min 0,000 mm 0,0 UV-I 0 W/m 2,1 C 2,8 C 9,7 km/h (2 Bft) 93,62 %
29.11.2017 02:24 2,8 C 4,4 C 95 % 1006,9 hPa 0,0 l/m 6,0 km/h (2 Bft) W-SW 242 0 min 0,000 mm 0,0 UV-I 0 W/m 2,1 C 2,8 C 9,7 km/h (2 Bft) 100,00 %
29.11.2017 02:26 2,8 C 4,4 C 95 % 1006,9 hPa 0,0 l/m 5,1 km/h (1 Bft) SW 217 0 min 0,000 mm 0,0 UV-I 0 W/m 2,1 C 2,8 C 6,4 km/h (2 Bft) 100,00 %
29.11.2017 02:28 2,8 C 4,4 C 95 % 1006,9 hPa 0,0 l/m 4,8 km/h (1 Bft) SW 230 0 min 0,000 mm 0,0 UV-I 0 W/m 2,1 C 2,8 C 6,4 km/h (2 Bft) 95,74 %
29.11.2017 02:30 2,8 C 4,4 C 95 % 1006,9 hPa 0,0 l/m 4,3 km/h (1 Bft) W-SW 238 0 min 0,000 mm 0,0 UV-I 0 W/m 2,1 C 2,8 C 6,4 km/h (2 Bft) 100,00 %
29.11.2017 02:32 2,8 C 4,4 C 95 % 1006,9 hPa 0,0 l/m 3,8 km/h (1 Bft) SW 229 0 min 0,000 mm 0,0 UV-I 0 W/m 2,1 C 2,8 C 6,4 km/h (2 Bft) 100,00 %
29.11.2017 02:34 2,8 C 4,4 C 95 % 1006,8 hPa 0,0 l/m 4,3 km/h (1 Bft) SW 224 0 min 0,000 mm 0,0 UV-I 0 W/m 2,1 C 2,8 C 6,4 km/h (2 Bft) 100,00 %
29.11.2017 02:36 2,8 C 4,4 C 95 % 1006,8 hPa 0,0 l/m 3,7 km/h (1 Bft) W-SW 240 0 min 0,000 mm 0,0 UV-I 0 W/m 2,1 C 2,8 C 4,8 km/h (1 Bft) 100,00 %
29.11.2017 02:38 2,8 C 4,4 C 95 % 1006,9 hPa 0,0 l/m 4,7 km/h (1 Bft) SW 236 0 min 0,000 mm 0,0 UV-I 0 W/m 2,1 C 2,8 C 9,7 km/h (2 Bft) 100,00 %
29.11.2017 02:40 2,8 C 4,4 C 95 % 1006,8 hPa 0,0 l/m 4,7 km/h (1 Bft) S-SW 212 0 min 0,000 mm 0,0 UV-I 0 W/m 2,1 C 2,8 C 6,4 km/h (2 Bft) 100,00 %
29.11.2017 02:42 2,8 C 4,4 C 95 % 1006,8 hPa 0,0 l/m 5,1 km/h (1 Bft) SW 232 0 min 0,000 mm 0,0 UV-I 0 W/m 2,1 C 2,8 C 8,0 km/h (2 Bft) 100,00 %
29.11.2017 02:44 2,8 C 4,4 C 95 % 1006,8 hPa 0,0 l/m 4,8 km/h (1 Bft) SW 227 0 min 0,000 mm 0,0 UV-I 0 W/m 2,1 C 2,8 C 8,0 km/h (2 Bft) 100,00 %
29.11.2017 02:46 2,8 C 4,4 C 95 % 1006,8 hPa 0,0 l/m 4,9 km/h (1 Bft) SW 230 0 min 0,000 mm 0,0 UV-I 0 W/m 2,1 C 2,8 C 8,0 km/h (2 Bft) 95,74 %
29.11.2017 02:48 2,8 C 4,4 C 95 % 1006,8 hPa 0,0 l/m 4,2 km/h (1 Bft) S-SW 207 0 min 0,000 mm 0,0 UV-I 0 W/m 2,1 C 2,8 C 6,4 km/h (2 Bft) 97,87 %
29.11.2017 02:50 2,8 C 4,4 C 95 % 1006,8 hPa 0,2 l/m 4,3 km/h (1 Bft) W-SW 245 0 min 0,000 mm 0,0 UV-I 0 W/m 2,1 C 2,8 C 6,4 km/h (2 Bft) 100,00 %
29.11.2017 02:52 2,8 C 4,4 C 95 % 1006,8 hPa 0,0 l/m 4,7 km/h (1 Bft) SW 229 0 min 0,000 mm 0,0 UV-I 0 W/m 2,1 C 2,8 C 8,0 km/h (2 Bft) 100,00 %
29.11.2017 02:54 2,8 C 4,4 C 95 % 1006,8 hPa 0,0 l/m 5,7 km/h (1 Bft) SW 234 0 min 0,000 mm 0,0 UV-I 0 W/m 2,1 C 2,8 C 8,0 km/h (2 Bft) 97,87 %
29.11.2017 02:56 2,9 C 4,4 C 95 % 1006,8 hPa 0,0 l/m 7,2 km/h (2 Bft) SW 236 0 min 0,000 mm 0,0 UV-I 0 W/m 2,2 C 2,1 C 9,7 km/h (2 Bft) 97,22 %
29.11.2017 02:58 2,9 C 4,4 C 95 % 1006,8 hPa 0,0 l/m 6,5 km/h (2 Bft) S 173 0 min 0,000 mm 0,0 UV-I 0 W/m 2,2 C 2,8 C 9,7 km/h (2 Bft) 100,00 %
29.11.2017 03:00 2,9 C 4,4 C 95 % 1006,7 hPa 0,0 l/m 6,7 km/h (2 Bft) SW 221 0 min 0,000 mm 0,0 UV-I 0 W/m 2,2 C 2,6 C 9,7 km/h (2 Bft) 100,00 %
29.11.2017 03:02 2,9 C 4,4 C 95 % 1006,8 hPa 0,0 l/m 5,5 km/h (1 Bft) S-SW 211 0 min 0,000 mm 0,0 UV-I 0 W/m 2,2 C 2,9 C 8,0 km/h (2 Bft) 95,74 %
29.11.2017 03:04 2,9 C 4,4 C 95 % 1006,7 hPa 0,0 l/m 5,5 km/h (1 Bft) SW 226 0 min 0,000 mm 0,0 UV-I 0 W/m 2,2 C 2,9 C 9,7 km/h (2 Bft) 100,00 %
29.11.2017 03:06 2,9 C 4,4 C 95 % 1006,7 hPa 0,0 l/m 5,9 km/h (2 Bft) S-SW 211 0 min 0,000 mm 0,0 UV-I 0 W/m 2,2 C 2,9 C 9,7 km/h (2 Bft) 100,00 %
29.11.2017 03:08 2,9 C 4,4 C 95 % 1006,7 hPa 0,0 l/m 5,2 km/h (1 Bft) S-SW 213 0 min 0,000 mm 0,0 UV-I 0 W/m 2,2 C 2,9 C 8,0 km/h (2 Bft) 100,00 %
29.11.2017 03:10 2,9 C 4,4 C 95 % 1006,8 hPa 0,0 l/m 4,9 km/h (1 Bft) S-SW 206 0 min 0,000 mm 0,0 UV-I 0 W/m 2,2 C 2,9 C 6,4 km/h (2 Bft) 100,00 %
29.11.2017 03:12 2,9 C 4,4 C 95 % 1006,8 hPa 0,0 l/m 5,5 km/h (1 Bft) SW 216 0 min 0,000 mm 0,0 UV-I 0 W/m 2,2 C 2,9 C 8,0 km/h (2 Bft) 100,00 %
29.11.2017 03:14 2,9 C 4,4 C 95 % 1006,7 hPa 0,0 l/m 4,9 km/h (1 Bft) S-SW 211 0 min 0,000 mm 0,0 UV-I 0 W/m 2,2 C 2,9 C 8,0 km/h (2 Bft) 97,87 %
29.11.2017 03:16 2,9 C 4,4 C 95 % 1006,7 hPa 0,0 l/m 4,8 km/h (1 Bft) S-SW 209 0 min 0,000 mm 0,0 UV-I 0 W/m 2,2 C 2,9 C 8,0 km/h (2 Bft) 97,87 %
29.11.2017 03:18 2,9 C 4,4 C 95 % 1006,7 hPa 0,0 l/m 4,0 km/h (1 Bft) SW 220 0 min 0,000 mm 0,0 UV-I 0 W/m 2,2 C 2,9 C 4,8 km/h (1 Bft) 98,00 %
29.11.2017 03:20 2,8 C 4,4 C 95 % 1006,7 hPa 0,0 l/m 3,5 km/h (1 Bft) SW 220 0 min 0,000 mm 0,0 UV-I 0 W/m 2,1 C 2,8 C 6,4 km/h (2 Bft) 97,87 %
29.11.2017 03:22 2,9 C 4,4 C 95 % 1006,7 hPa 0,2 l/m 3,8 km/h (1 Bft) SW 223 0 min 0,000 mm 0,0 UV-I 0 W/m 2,2 C 2,9 C 4,8 km/h (1 Bft) 100,00 %
29.11.2017 03:24 2,9 C 4,4 C 96 % 1006,7 hPa 0,0 l/m 3,9 km/h (1 Bft) SW 219 0 min 0,000 mm 0,0 UV-I 0 W/m 2,3 C 2,9 C 4,8 km/h (1 Bft) 100,00 %
29.11.2017 03:26 2,9 C 4,4 C 95 % 1006,7 hPa 0,0 l/m 4,1 km/h (1 Bft) S-SW 205 0 min 0,000 mm 0,0 UV-I 0 W/m 2,2 C 2,9 C 6,4 km/h (2 Bft) 95,74 %
29.11.2017 03:28 2,9 C 4,4 C 96 % 1006,7 hPa 0,0 l/m 4,1 km/h (1 Bft) SW 230 0 min 0,000 mm 0,0 UV-I 0 W/m 2,3 C 2,9 C 6,4 km/h (2 Bft) 100,00 %
29.11.2017 03:30 2,9 C 4,4 C 96 % 1006,7 hPa 0,0 l/m 4,9 km/h (1 Bft) S-SW 207 0 min 0,000 mm 0,0 UV-I 0 W/m 2,3 C 2,9 C 8,0 km/h (2 Bft) 98,00 %
29.11.2017 03:32 2,9 C 4,4 C 96 % 1006,7 hPa 0,0 l/m 3,2 km/h (1 Bft) S-SW 207 0 min 0,000 mm 0,0 UV-I 0 W/m 2,3 C 2,9 C 4,8 km/h (1 Bft) 97,87 %
29.11.2017 03:34 2,9 C 4,4 C 96 % 1006,7 hPa 0,0 l/m 3,8 km/h (1 Bft) S-SW 208 0 min 0,000 mm 0,0 UV-I 0 W/m 2,3 C 2,9 C 4,8 km/h (1 Bft) 100,00 %
29.11.2017 03:36 2,9 C 4,4 C 96 % 1006,7 hPa 0,0 l/m 2,5 km/h (1 Bft) S-SW 208 0 min 0,000 mm 0,0 UV-I 0 W/m 2,3 C 2,9 C 4,8 km/h (1 Bft) 100,00 %
29.11.2017 03:38 2,9 C 4,4 C 96 % 1006,7 hPa 0,2 l/m 3,0 km/h (1 Bft) S-SW 208 0 min 0,000 mm 0,0 UV-I 0 W/m 2,3 C 2,9 C 4,8 km/h (1 Bft) 100,00 %
29.11.2017 03:40 2,9 C 4,4 C 96 % 1006,6 hPa 0,0 l/m 3,1 km/h (1 Bft) S-SW 206 0 min 0,000 mm 0,0 UV-I 0 W/m 2,3 C 2,9 C 4,8 km/h (1 Bft) 100,00 %
29.11.2017 03:42 2,9 C 4,4 C 96 % 1006,6 hPa 0,0 l/m 2,9 km/h (1 Bft) SW 227 0 min 0,000 mm 0,0 UV-I 0 W/m 2,3 C 2,9 C 6,4 km/h (2 Bft) 97,92 %
29.11.2017 03:44 2,9 C 4,4 C 96 % 1006,6 hPa 0,0 l/m 3,5 km/h (1 Bft) SW 224 0 min 0,000 mm 0,0 UV-I 0 W/m 2,3 C 2,9 C 6,4 km/h (2 Bft) 97,87 %
29.11.2017 03:46 2,9 C 4,4 C 96 % 1006,6 hPa 0,0 l/m 4,5 km/h (1 Bft) SW 215 0 min 0,000 mm 0,0 UV-I 0 W/m 2,3 C 2,9 C 6,4 km/h (2 Bft) 97,87 %
29.11.2017 03:48 2,8 C 4,4 C 96 % 1006,6 hPa 0,0 l/m 3,5 km/h (1 Bft) SW 215 0 min 0,000 mm 0,0 UV-I 0 W/m 2,2 C 2,8 C 4,8 km/h (1 Bft) 100,00 %
29.11.2017 03:50 2,8 C 4,4 C 96 % 1006,6 hPa 0,0 l/m 2,7 km/h (1 Bft) SW 215 0 min 0,000 mm 0,0 UV-I 0 W/m 2,2 C 2,8 C 6,4 km/h (2 Bft) 97,37 %
29.11.2017 03:52 2,8 C 4,4 C 96 % 1006,6 hPa 0,0 l/m 2,7 km/h (1 Bft) S-SO 165 0 min 0,000 mm 0,0 UV-I 0 W/m 2,2 C 2,8 C 6,4 km/h (2 Bft) 98,00 %
29.11.2017 03:54 2,8 C 4,4 C 96 % 1006,6 hPa 0,0 l/m 3,4 km/h (1 Bft) S 190 0 min 0,000 mm 0,0 UV-I 0 W/m 2,2 C 2,8 C 4,8 km/h (1 Bft) 93,62 %
29.11.2017 03:56 2,8 C 4,4 C 96 % 1006,6 hPa 0,0 l/m 3,5 km/h (1 Bft) S-SW 198 0 min 0,000 mm 0,0 UV-I 0 W/m 2,2 C 2,8 C 6,4 km/h (2 Bft) 98,00 %
29.11.2017 03:58 2,8 C 4,4 C 96 % 1006,6 hPa 0,0 l/m 3,1 km/h (1 Bft) S-SW 198 0 min 0,000 mm 0,0 UV-I 0 W/m 2,2 C 2,8 C 4,8 km/h (1 Bft) 93,62 %
29.11.2017 04:00 2,8 C 4,4 C 96 % 1006,6 hPa 0,0 l/m 2,8 km/h (1 Bft) S-SW 198 0 min 0,000 mm 0,0 UV-I 0 W/m 2,2 C 2,8 C 4,8 km/h (1 Bft) 97,87 %
29.11.2017 04:02 2,8 C 4,4 C 96 % 1006,6 hPa 0,0 l/m 3,4 km/h (1 Bft) S-SW 200 0 min 0,000 mm 0,0 UV-I 0 W/m 2,2 C 2,8 C 4,8 km/h (1 Bft) 94,12 %
29.11.2017 04:04 2,8 C 4,4 C 96 % 1006,6 hPa 0,0 l/m 3,3 km/h (1 Bft) S-SW 200 0 min 0,000 mm 0,0 UV-I 0 W/m 2,2 C 2,8 C 4,8 km/h (1 Bft) 98,31 %
29.11.2017 04:06 2,8 C 4,4 C 96 % 1006,6 hPa 0,0 l/m 2,0 km/h (1 Bft) S-SW 202 0 min 0,000 mm 0,0 UV-I 0 W/m 2,2 C 2,8 C 3,2 km/h (1 Bft) 97,14 %
29.11.2017 04:08 2,8 C 4,4 C 96 % 1006,6 hPa 0,0 l/m 3,5 km/h (1 Bft) S-SW 210 0 min 0,000 mm 0,0 UV-I 0 W/m 2,2 C 2,8 C 4,8 km/h (1 Bft) 97,87 %
29.11.2017 04:10 2,8 C 4,4 C 96 % 1006,6 hPa 0,0 l/m 2,2 km/h (1 Bft) S-SW 210 0 min 0,000 mm 0,0 UV-I 0 W/m 2,2 C 2,8 C 4,8 km/h (1 Bft) 97,87 %
29.11.2017 04:12 2,8 C 4,4 C 96 % 1006,6 hPa 0,0 l/m 1,8 km/h (1 Bft) S-SW 210 0 min 0,000 mm 0,0 UV-I 0 W/m 2,2 C 2,8 C 3,2 km/h (1 Bft) 95,74 %
29.11.2017 04:14 2,8 C 4,4 C 96 % 1006,6 hPa 0,0 l/m 1,9 km/h (1 Bft) S-SW 210 0 min 0,000 mm 0,0 UV-I 0 W/m 2,2 C 2,8 C 3,2 km/h (1 Bft) 94,00 %
29.11.2017 04:16 2,8 C 4,4 C 96 % 1006,6 hPa 0,0 l/m 1,4 km/h (1 Bft) S-SW 210 0 min 0,000 mm 0,0 UV-I 0 W/m 2,2 C 2,8 C 3,2 km/h (1 Bft) 95,74 %
29.11.2017 04:18 2,7 C 4,4 C 96 % 1006,6 hPa 0,0 l/m 1,7 km/h (1 Bft) S-SW 210 0 min 0,000 mm 0,0 UV-I 0 W/m 2,1 C 2,7 C 3,2 km/h (1 Bft) 93,75 %
29.11.2017 04:20 2,7 C 4,4 C 96 % 1006,6 hPa 0,2 l/m 2,6 km/h (1 Bft) S-SW 210 0 min 0,000 mm 0,0 UV-I 0 W/m 2,1 C 2,7 C 4,8 km/h (1 Bft) 93,62 %
29.11.2017 04:22 2,7 C 4,4 C 96 % 1006,6 hPa 0,0 l/m 3,5 km/h (1 Bft) S-SW 210 0 min 0,000 mm 0,0 UV-I 0 W/m 2,1 C 2,7 C 4,8 km/h (1 Bft) 95,74 %
29.11.2017 04:24 2,7 C 4,4 C 96 % 1006,6 hPa 0,0 l/m 2,7 km/h (1 Bft) S-SW 210 0 min 0,000 mm 0,0 UV-I 0 W/m 2,1 C 2,7 C 4,8 km/h (1 Bft) 97,87 %
29.11.2017 04:26 2,7 C 4,4 C 96 % 1006,6 hPa 0,0 l/m 1,5 km/h (1 Bft) S-SW 210 0 min 0,000 mm 0,0 UV-I 0 W/m 2,1 C 2,7 C 3,2 km/h (1 Bft) 97,87 %
29.11.2017 04:28 2,7 C 4,4 C 96 % 1006,7 hPa 0,0 l/m 3,0 km/h (1 Bft) S-SW 210 0 min 0,000 mm 0,0 UV-I 0 W/m 2,1 C 2,7 C 4,8 km/h (1 Bft) 96,00 %
29.11.2017 04:30 2,7 C 4,4 C 96 % 1006,7 hPa 0,0 l/m 3,1 km/h (1 Bft) S-SW 210 0 min 0,000 mm 0,0 UV-I 0 W/m 2,1 C 2,7 C 4,8 km/h (1 Bft) 91,49 %
29.11.2017 04:32 2,7 C 4,4 C 96 % 1006,7 hPa 0,0 l/m 2,3 km/h (1 Bft) S-SW 210 0 min 0,000 mm 0,0 UV-I 0 W/m 2,1 C 2,7 C 3,2 km/h (1 Bft) 97,37 %
29.11.2017 04:34 2,7 C 4,4 C 96 % 1006,6 hPa 0,0 l/m 2,5 km/h (1 Bft) S-SW 210 0 min 0,000 mm 0,0 UV-I 0 W/m 2,1 C 2,7 C 3,2 km/h (1 Bft) 97,87 %
29.11.2017 04:36 2,7 C 4,4 C 96 % 1006,6 hPa 0,0 l/m 2,6 km/h (1 Bft) S-SW 210 0 min 0,000 mm 0,0 UV-I 0 W/m 2,1 C 2,7 C 3,2 km/h (1 Bft) 96,00 %
29.11.2017 04:38 2,7 C 4,4 C 96 % 1006,6 hPa 0,0 l/m 2,6 km/h (1 Bft) S-SW 210 0 min 0,000 mm 0,0 UV-I 0 W/m 2,1 C 2,7 C 4,8 km/h (1 Bft) 98,00 %
29.11.2017 04:40 2,7 C 4,4 C 97 % 1006,6 hPa 0,0 l/m 2,1 km/h (1 Bft) S-SW 210 0 min 0,000 mm 0,0 UV-I 0 W/m 2,3 C 2,7 C 3,2 km/h (1 Bft) 95,74 %
29.11.2017 04:42 2,7 C 4,4 C 97 % 1006,6 hPa 0,0 l/m 1,2 km/h (1 Bft) S-SW 210 0 min 0,000 mm 0,0 UV-I 0 W/m 2,3 C 2,7 C 3,2 km/h (1 Bft) 97,87 %
29.11.2017 04:44 2,7 C 4,4 C 97 % 1006,6 hPa 0,0 l/m 1,8 km/h (1 Bft) S-SW 210 0 min 0,000 mm 0,0 UV-I 0 W/m 2,3 C 2,7 C 4,8 km/h (1 Bft) 94,00 %
29.11.2017 04:46 2,7 C 4,4 C 97 % 1006,5 hPa 0,0 l/m 1,9 km/h (1 Bft) S-SW 210 0 min 0,000 mm 0,0 UV-I 0 W/m 2,3 C 2,7 C 3,2 km/h (1 Bft) 97,87 %
29.11.2017 04:48 2,7 C 4,4 C 97 % 1006,6 hPa 0,0 l/m 0,9 km/h (0 Bft) S-SW 210 0 min 0,000 mm 0,0 UV-I 0 W/m 2,3 C 2,7 C 3,2 km/h (1 Bft) 95,74 %
29.11.2017 04:50 2,7 C 4,4 C 97 % 1006,6 hPa 0,0 l/m 0,7 km/h (0 Bft) S-SW 210 0 min 0,000 mm 0,0 UV-I 0 W/m 2,3 C 2,7 C 3,2 km/h (1 Bft) 94,44 %
29.11.2017 04:52 2,7 C 4,4 C 97 % 1006,6 hPa 0,0 l/m 1,6 km/h (1 Bft) S-SW 210 0 min 0,000 mm 0,0 UV-I 0 W/m 2,3 C 2,7 C 4,8 km/h (1 Bft) 95,74 %
29.11.2017 04:54 2,7 C 4,4 C 97 % 1006,5 hPa 0,2 l/m 0,6 km/h (0 Bft) S-SW 210 0 min 0,000 mm 0,0 UV-I 0 W/m 2,3 C 2,7 C 3,2 km/h (1 Bft) 97,92 %
29.11.2017 04:56 2,8 C 4,4 C 97 % 1006,5 hPa 0,0 l/m 0,5 km/h (0 Bft) S-SW 210 0 min 0,000 mm 0,0 UV-I 0 W/m 2,4 C 2,8 C 3,2 km/h (1 Bft) 97,87 %
29.11.2017 04:58 2,8 C 4,4 C 97 % 1006,5 hPa 0,0 l/m 0,8 km/h (0 Bft) S-SW 209 0 min 0,000 mm 0,0 UV-I 0 W/m 2,4 C 2,8 C 3,2 km/h (1 Bft) 98,00 %
29.11.2017 05:00 2,8 C 4,4 C 97 % 1006,5 hPa 0,0 l/m 0,9 km/h (0 Bft) S-SW 209 0 min 0,000 mm 0,0 UV-I 0 W/m 2,4 C 2,8 C 3,2 km/h (1 Bft) 95,74 %
29.11.2017 05:02 2,8 C 4,4 C 97 % 1006,5 hPa 0,0 l/m 1,6 km/h (1 Bft) S 175 0 min 0,000 mm 0,0 UV-I 0 W/m 2,4 C 2,8 C 3,2 km/h (1 Bft) 96,00 %
29.11.2017 05:04 2,8 C 4,4 C 97 % 1006,5 hPa 0,0 l/m 2,2 km/h (1 Bft) S 175 0 min 0,000 mm 0,0 UV-I 0 W/m 2,4 C 2,8 C 4,8 km/h (1 Bft) 97,87 %
29.11.2017 05:06 2,8 C 4,4 C 97 % 1006,5 hPa 0,0 l/m 2,1 km/h (1 Bft) S 176 0 min 0,000 mm 0,0 UV-I 0 W/m 2,4 C 2,8 C 4,8 km/h (1 Bft) 97,37 %
29.11.2017 05:08 2,8 C 4,4 C 97 % 1006,5 hPa 0,0 l/m 1,7 km/h (1 Bft) S 176 0 min 0,000 mm 0,0 UV-I 0 W/m 2,4 C 2,8 C 3,2 km/h (1 Bft) 97,92 %
29.11.2017 05:10 2,8 C 4,4 C 97 % 1006,5 hPa 0,0 l/m 1,5 km/h (1 Bft) S 176 0 min 0,000 mm 0,0 UV-I 0 W/m 2,4 C 2,8 C 3,2 km/h (1 Bft) 97,87 %
29.11.2017 05:12 2,8 C 4,4 C 97 % 1006,5 hPa 0,0 l/m 2,1 km/h (1 Bft) S 176 0 min 0,000 mm 0,0 UV-I 0 W/m 2,4 C 2,8 C 4,8 km/h (1 Bft) 95,74 %
29.11.2017 05:14 2,8 C 4,4 C 97 % 1006,5 hPa 0,0 l/m 1,0 km/h (0 Bft) S 176 0 min 0,000 mm 0,0 UV-I 0 W/m 2,4 C 2,8 C 3,2 km/h (1 Bft) 98,00 %
29.11.2017 05:16 2,8 C 4,4 C 97 % 1006,5 hPa 0,0 l/m 1,8 km/h (1 Bft) S 178 0 min 0,000 mm 0,0 UV-I 0 W/m 2,4 C 2,8 C 6,4 km/h (2 Bft) 97,87 %
29.11.2017 05:18 2,8 C 4,4 C 97 % 1006,5 hPa 0,2 l/m 1,8 km/h (1 Bft) S 178 0 min 0,000 mm 0,0 UV-I 0 W/m 2,4 C 2,8 C 4,8 km/h (1 Bft) 100,00 %
29.11.2017 05:20 2,8 C 4,4 C 97 % 1006,5 hPa 0,0 l/m 2,1 km/h (1 Bft) S 177 0 min 0,000 mm 0,0 UV-I 0 W/m 2,4 C 2,8 C 4,8 km/h (1 Bft) 100,00 %
29.11.2017 05:22 2,8 C 4,4 C 97 % 1006,5 hPa 0,0 l/m 1,7 km/h (1 Bft) S 177 0 min 0,000 mm 0,0 UV-I 0 W/m 2,4 C 2,8 C 3,2 km/h (1 Bft) 100,00 %
29.11.2017 05:24 2,8 C 4,4 C 97 % 1006,5 hPa 0,0 l/m 2,1 km/h (1 Bft) S 176 0 min 0,000 mm 0,0 UV-I 0 W/m 2,4 C 2,8 C 4,8 km/h (1 Bft) 95,74 %
29.11.2017 05:26 2,8 C 4,4 C 97 % 1006,5 hPa 0,0 l/m 2,1 km/h (1 Bft) S 176 0 min 0,000 mm 0,0 UV-I 0 W/m 2,4 C 2,8 C 3,2 km/h (1 Bft) 100,00 %
29.11.2017 05:28 2,8 C 4,4 C 97 % 1006,5 hPa 0,0 l/m 0,9 km/h (0 Bft) S 176 0 min 0,000 mm 0,0 UV-I 0 W/m 2,4 C 2,8 C 1,6 km/h (1 Bft) 100,00 %
29.11.2017 05:30 2,8 C 4,4 C 97 % 1006,5 hPa 0,0 l/m 1,4 km/h (1 Bft) S 176 0 min 0,000 mm 0,0 UV-I 0 W/m 2,4 C 2,8 C 3,2 km/h (1 Bft) 97,87 %
29.11.2017 05:32 2,8 C 4,4 C 97 % 1006,5 hPa 0,0 l/m 0,9 km/h (0 Bft) S 176 0 min 0,000 mm 0,0 UV-I 0 W/m 2,4 C 2,8 C 4,8 km/h (1 Bft) 100,00 %
29.11.2017 05:34 2,8 C 4,4 C 97 % 1006,5 hPa 0,0 l/m 0,6 km/h (0 Bft) S 176 0 min 0,000 mm 0,0 UV-I 0 W/m 2,4 C 2,8 C 1,6 km/h (1 Bft) 97,92 %
29.11.2017 05:36 2,9 C 4,4 C 97 % 1006,5 hPa 0,0 l/m 0,9 km/h (0 Bft) S 176 0 min 0,000 mm 0,0 UV-I 0 W/m 2,5 C 2,9 C 3,2 km/h (1 Bft) 100,00 %
29.11.2017 05:38 2,8 C 4,4 C 97 % 1006,5 hPa 0,0 l/m 1,2 km/h (1 Bft) S 175 0 min 0,000 mm 0,0 UV-I 0 W/m 2,4 C 2,8 C 3,2 km/h (1 Bft) 98,00 %
29.11.2017 05:40 2,8 C 4,4 C 97 % 1006,5 hPa 0,0 l/m 1,2 km/h (1 Bft) S 175 0 min 0,000 mm 0,0 UV-I 0 W/m 2,4 C 2,8 C 3,2 km/h (1 Bft) 97,22 %
29.11.2017 05:42 2,8 C 4,4 C 97 % 1006,4 hPa 0,0 l/m 0,9 km/h (0 Bft) S 175 0 min 0,000 mm 0,0 UV-I 0 W/m 2,4 C 2,8 C 3,2 km/h (1 Bft) 98,08 %
29.11.2017 05:44 2,8 C 4,4 C 97 % 1006,4 hPa 0,0 l/m 1,0 km/h (0 Bft) S 175 0 min 0,000 mm 0,0 UV-I 0 W/m 2,4 C 2,8 C 3,2 km/h (1 Bft) 100,00 %
29.11.2017 05:46 2,8 C 4,4 C 97 % 1006,4 hPa 0,0 l/m 0,9 km/h (0 Bft) S 175 0 min 0,000 mm 0,0 UV-I 0 W/m 2,4 C 2,8 C 3,2 km/h (1 Bft) 100,00 %
29.11.2017 05:48 2,8 C 4,4 C 97 % 1006,4 hPa 0,0 l/m 0,6 km/h (0 Bft) S 175 0 min 0,000 mm 0,0 UV-I 0 W/m 2,4 C 2,8 C 1,6 km/h (1 Bft) 100,00 %
29.11.2017 05:50 2,8 C 4,4 C 97 % 1006,5 hPa 0,0 l/m 0,1 km/h (0 Bft) S 175 0 min 0,000 mm 0,0 UV-I 0 W/m 2,4 C 2,8 C 1,6 km/h (1 Bft) 100,00 %
29.11.2017 05:52 2,8 C 4,4 C 97 % 1006,4 hPa 0,0 l/m 0,1 km/h (0 Bft) S 175 0 min 0,000 mm 0,0 UV-I 0 W/m 2,4 C 2,8 C 1,6 km/h (1 Bft) 100,00 %
29.11.2017 05:54 2,8 C 4,4 C 97 % 1006,5 hPa 0,0 l/m 0,6 km/h (0 Bft) S 175 0 min 0,000 mm 0,0 UV-I 0 W/m 2,4 C 2,8 C 3,2 km/h (1 Bft) 96,00 %
29.11.2017 05:56 2,8 C 4,4 C 97 % 1006,5 hPa 0,0 l/m 0,2 km/h (0 Bft) S 175 0 min 0,000 mm 0,0 UV-I 0 W/m 2,4 C 2,8 C 1,6 km/h (1 Bft) 97,87 %
29.11.2017 05:59 2,8 C 4,4 C 97 % 1006,4 hPa 0,0 l/m 0,1 km/h (0 Bft) S 175 0 min 0,000 mm 0,0 UV-I 0 W/m 2,4 C 2,8 C 1,6 km/h (1 Bft) 97,26 %
29.11.2017 06:00 2,8 C 4,4 C 97 % 1006,4 hPa 0,0 l/m 1,4 km/h (1 Bft) S 175 0 min 0,000 mm 0,0 UV-I 0 W/m 2,4 C 2,8 C 3,2 km/h (1 Bft) 91,67 %
29.11.2017 06:02 2,8 C 4,4 C 97 % 1006,4 hPa 0,0 l/m 1,9 km/h (1 Bft) S 175 0 min 0,000 mm 0,0 UV-I 0 W/m 2,4 C 2,8 C 3,2 km/h (1 Bft) 97,87 %
29.11.2017 06:04 2,7 C 4,4 C 97 % 1006,4 hPa 0,0 l/m 1,2 km/h (1 Bft) S 175 0 min 0,000 mm 0,0 UV-I 0 W/m 2,3 C 2,7 C 3,2 km/h (1 Bft) 97,87 %
29.11.2017 06:06 2,7 C 4,4 C 97 % 1006,4 hPa 0,0 l/m 1,4 km/h (1 Bft) S 175 0 min 0,000 mm 0,0 UV-I 0 W/m 2,3 C 2,7 C 3,2 km/h (1 Bft) 97,87 %
29.11.2017 06:08 2,8 C 4,4 C 96 % 1006,4 hPa 0,0 l/m 1,1 km/h (1 Bft) S 175 0 min 0,000 mm 0,0 UV-I 0 W/m 2,2 C 2,8 C 3,2 km/h (1 Bft) 97,87 %
29.11.2017 06:10 2,8 C 4,4 C 97 % 1006,4 hPa 0,0 l/m 0,3 km/h (0 Bft) S 175 0 min 0,000 mm 0,0 UV-I 0 W/m 2,4 C 2,8 C 1,6 km/h (1 Bft) 97,87 %
29.11.2017 06:12 2,8 C 4,4 C 97 % 1006,4 hPa 0,0 l/m 0,8 km/h (0 Bft) S 175 0 min 0,000 mm 0,0 UV-I 0 W/m 2,4 C 2,8 C 3,2 km/h (1 Bft) 95,74 %
29.11.2017 06:14 2,8 C 4,4 C 97 % 1006,4 hPa 0,0 l/m 0,6 km/h (0 Bft) S 175 0 min 0,000 mm 0,0 UV-I 0 W/m 2,4 C 2,8 C 3,2 km/h (1 Bft) 95,83 %
29.11.2017 06:16 2,8 C 4,4 C 96 % 1006,5 hPa 0,0 l/m 0,5 km/h (0 Bft) S 175 0 min 0,000 mm 0,0 UV-I 0 W/m 2,2 C 2,8 C 3,2 km/h (1 Bft) 97,87 %
29.11.2017 06:18 2,7 C 4,4 C 97 % 1006,5 hPa 0,0 l/m 0,4 km/h (0 Bft) S 175 0 min 0,000 mm 0,0 UV-I 0 W/m 2,3 C 2,7 C 1,6 km/h (1 Bft) 98,00 %
29.11.2017 06:20 2,7 C 4,4 C 96 % 1006,4 hPa 0,0 l/m 0,3 km/h (0 Bft) S 175 0 min 0,000 mm 0,0 UV-I 0 W/m 2,1 C 2,7 C 1,6 km/h (1 Bft) 97,87 %
29.11.2017 06:22 2,7 C 4,4 C 96 % 1006,5 hPa 0,0 l/m 0,3 km/h (0 Bft) S 175 0 min 0,000 mm 0,0 UV-I 0 W/m 2,1 C 2,7 C 1,6 km/h (1 Bft) 96,00 %
29.11.2017 06:24 2,7 C 4,4 C 97 % 1006,5 hPa 0,0 l/m 0,2 km/h (0 Bft) S 175 0 min 0,000 mm 0,0 UV-I 0 W/m 2,3 C 2,7 C 1,6 km/h (1 Bft) 97,87 %
29.11.2017 06:26 2,6 C 4,4 C 97 % 1006,5 hPa 0,0 l/m 0,0 km/h (0 Bft) S 175 0 min 0,000 mm 0,0 UV-I 0 W/m 2,2 C 2,6 C 0,0 km/h (0 Bft) 93,62 %
29.11.2017 06:28 2,7 C 4,4 C 97 % 1006,5 hPa 0,0 l/m 0,0 km/h (0 Bft) S 175 0 min 0,000 mm 0,0 UV-I 0 W/m 2,3 C 2,7 C 1,6 km/h (1 Bft) 100,00 %
29.11.2017 06:30 2,7 C 4,4 C 97 % 1006,5 hPa 0,0 l/m 0,1 km/h (0 Bft) S 175 0 min 0,000 mm 0,0 UV-I 0 W/m 2,3 C 2,7 C 1,6 km/h (1 Bft) 100,00 %
29.11.2017 06:32 2,7 C 4,4 C 97 % 1006,5 hPa 0,0 l/m 0,7 km/h (0 Bft) S 175 0 min 0,000 mm 0,0 UV-I 0 W/m 2,3 C 2,7 C 1,6 km/h (1 Bft) 95,74 %
29.11.2017 06:34 2,7 C 4,4 C 97 % 1006,5 hPa 0,0 l/m 1,1 km/h (1 Bft) S 175 0 min 0,000 mm 0,0 UV-I 0 W/m 2,3 C 2,7 C 3,2 km/h (1 Bft) 100,00 %
29.11.2017 06:36 2,7 C 4,4 C 97 % 1006,4 hPa 0,0 l/m 0,1 km/h (0 Bft) S 175 0 min 0,000 mm 0,0 UV-I 0 W/m 2,3 C 2,7 C 1,6 km/h (1 Bft) 97,87 %
29.11.2017 06:38 2,7 C 4,4 C 97 % 1006,4 hPa 0,0 l/m 0,3 km/h (0 Bft) S 175 0 min 0,000 mm 0,0 UV-I 0 W/m 2,3 C 2,7 C 1,6 km/h (1 Bft) 100,00 %
29.11.2017 06:40 2,7 C 4,4 C 97 % 1006,5 hPa 0,0 l/m 0,4 km/h (0 Bft) S 175 0 min 0,000 mm 0,0 UV-I 0 W/m 2,3 C 2,7 C 1,6 km/h (1 Bft) 97,87 %
29.11.2017 06:42 2,7 C 4,4 C 97 % 1006,4 hPa 0,0 l/m 2,0 km/h (1 Bft) S 175 0 min 0,000 mm 0,0 UV-I 0 W/m 2,3 C 2,7 C 3,2 km/h (1 Bft) 97,37 %
29.11.2017 06:44 2,7 C 4,4 C 97 % 1006,4 hPa 0,0 l/m 2,7 km/h (1 Bft) S 175 0 min 0,000 mm 0,0 UV-I 0 W/m 2,3 C 2,7 C 3,2 km/h (1 Bft) 100,00 %
29.11.2017 06:46 2,7 C 4,4 C 96 % 1006,4 hPa 0,0 l/m 2,4 km/h (1 Bft) S 175 0 min 0,000 mm 0,0 UV-I 0 W/m 2,1 C 2,7 C 3,2 km/h (1 Bft) 100,00 %
29.11.2017 06:48 2,7 C 4,4 C 96 % 1006,4 hPa 0,0 l/m 1,2 km/h (1 Bft) S 175 0 min 0,000 mm 0,0 UV-I 0 W/m 2,1 C 2,7 C 3,2 km/h (1 Bft) 100,00 %
29.11.2017 06:50 2,7 C 4,4 C 96 % 1006,4 hPa 0,0 l/m 1,2 km/h (1 Bft) S 175 0 min 0,000 mm 0,0 UV-I 0 W/m 2,1 C 2,7 C 3,2 km/h (1 Bft) 97,87 %
29.11.2017 06:52 2,7 C 4,4 C 97 % 1006,4 hPa 0,0 l/m 1,3 km/h (1 Bft) S 175 0 min 0,000 mm 0,0 UV-I 0 W/m 2,3 C 2,7 C 3,2 km/h (1 Bft) 100,00 %
29.11.2017 06:54 2,7 C 4,4 C 97 % 1006,4 hPa 0,0 l/m 1,2 km/h (1 Bft) S 175 0 min 0,000 mm 0,0 UV-I 0 W/m 2,3 C 2,7 C 3,2 km/h (1 Bft) 97,87 %
29.11.2017 06:56 2,7 C 4,4 C 96 % 1006,4 hPa 0,0 l/m 0,2 km/h (0 Bft) S 175 0 min 0,000 mm 0,0 UV-I 0 W/m 2,1 C 2,7 C 1,6 km/h (1 Bft) 98,00 %
29.11.2017 06:58 2,7 C 4,4 C 96 % 1006,4 hPa 0,0 l/m 0,0 km/h (0 Bft) S 175 0 min 0,000 mm 0,0 UV-I 0 W/m 2,1 C 2,7 C 0,0 km/h (0 Bft) 97,92 %
29.11.2017 07:00 2,7 C 4,4 C 96 % 1006,4 hPa 0,0 l/m 0,0 km/h (0 Bft) S 175 0 min 0,000 mm 0,0 UV-I 0 W/m 2,1 C 2,7 C 0,0 km/h (0 Bft) 100,00 %
29.11.2017 07:02 2,7 C 4,4 C 96 % 1006,5 hPa 0,0 l/m 0,0 km/h (0 Bft) S 175 0 min 0,000 mm 0,0 UV-I 0 W/m 2,1 C 2,7 C 0,0 km/h (0 Bft) 98,00 %
29.11.2017 07:04 2,7 C 4,4 C 96 % 1006,5 hPa 0,0 l/m 0,0 km/h (0 Bft) S 175 0 min 0,000 mm 0,0 UV-I 0 W/m 2,1 C 2,7 C 0,0 km/h (0 Bft) 97,87 %
29.11.2017 07:06 2,7 C 4,4 C 96 % 1006,5 hPa 0,0 l/m 0,1 km/h (0 Bft) S 175 0 min 0,000 mm 0,0 UV-I 0 W/m 2,1 C 2,7 C 1,6 km/h (1 Bft) 97,87 %
29.11.2017 07:08 2,7 C 4,4 C 96 % 1006,5 hPa 0,0 l/m 0,4 km/h (0 Bft) S 175 0 min 0,000 mm 0,0 UV-I 0 W/m 2,1 C 2,7 C 1,6 km/h (1 Bft) 100,00 %
29.11.2017 07:10 2,6 C 4,4 C 96 % 1006,5 hPa 0,0 l/m 0,4 km/h (0 Bft) S 175 0 min 0,000 mm 0,0 UV-I 0 W/m 2,0 C 2,6 C 1,6 km/h (1 Bft) 100,00 %
29.11.2017 07:12 2,6 C 4,4 C 97 % 1006,5 hPa 0,0 l/m 0,0 km/h (0 Bft) S 175 0 min 0,000 mm 0,0 UV-I 0 W/m 2,2 C 2,6 C 1,6 km/h (1 Bft) 97,22 %
29.11.2017 07:14 2,5 C 4,4 C 97 % 1006,5 hPa 0,0 l/m 0,2 km/h (0 Bft) S 175 0 min 0,000 mm 0,0 UV-I 0 W/m 2,1 C 2,5 C 1,6 km/h (1 Bft) 97,87 %
29.11.2017 07:16 2,5 C 4,4 C 97 % 1006,5 hPa 0,0 l/m 0,5 km/h (0 Bft) S 175 0 min 0,000 mm 0,0 UV-I 0 W/m 2,1 C 2,5 C 1,6 km/h (1 Bft) 100,00 %
29.11.2017 07:18 2,5 C 4,4 C 97 % 1006,5 hPa 0,0 l/m 1,6 km/h (1 Bft) S 175 0 min 0,000 mm 0,0 UV-I 0 W/m 2,1 C 2,5 C 3,2 km/h (1 Bft) 95,74 %
29.11.2017 07:20 2,6 C 4,4 C 97 % 1006,5 hPa 0,0 l/m 0,4 km/h (0 Bft) S 175 0 min 0,000 mm 0,0 UV-I 0 W/m 2,2 C 2,6 C 1,6 km/h (1 Bft) 100,00 %
29.11.2017 07:22 2,6 C 4,4 C 97 % 1006,5 hPa 0,0 l/m 0,5 km/h (0 Bft) S 175 0 min 0,000 mm 0,0 UV-I 0 W/m 2,2 C 2,6 C 1,6 km/h (1 Bft) 97,87 %
29.11.2017 07:24 2,7 C 4,4 C 97 % 1006,5 hPa 0,0 l/m 0,3 km/h (0 Bft) S 175 0 min 0,000 mm 0,0 UV-I 5 W/m 2,3 C 2,7 C 1,6 km/h (1 Bft) 100,00 %
29.11.2017 07:26 2,7 C 4,4 C 97 % 1006,5 hPa 0,0 l/m 1,0 km/h (0 Bft) S 175 0 min 0,000 mm 0,0 UV-I 5 W/m 2,3 C 2,7 C 3,2 km/h (1 Bft) 96,00 %
29.11.2017 07:28 2,7 C 4,4 C 97 % 1006,6 hPa 0,0 l/m 0,8 km/h (0 Bft) S 175 0 min 0,000 mm 0,0 UV-I 5 W/m 2,3 C 2,7 C 3,2 km/h (1 Bft) 100,00 %
29.11.2017 07:30 2,7 C 4,4 C 97 % 1006,5 hPa 0,0 l/m 0,6 km/h (0 Bft) S 175 0 min 0,000 mm 0,0 UV-I 5 W/m 2,3 C 2,7 C 3,2 km/h (1 Bft) 97,87 %
29.11.2017 07:32 2,7 C 4,4 C 97 % 1006,5 hPa 0,0 l/m 0,3 km/h (0 Bft) S 175 0 min 0,000 mm 0,0 UV-I 5 W/m 2,3 C 2,7 C 1,6 km/h (1 Bft) 100,00 %
29.11.2017 07:34 2,7 C 4,4 C 97 % 1006,5 hPa 0,0 l/m 0,0 km/h (0 Bft) S 175 0 min 0,000 mm 0,0 UV-I 5 W/m 2,3 C 2,7 C 1,6 km/h (1 Bft) 95,83 %
29.11.2017 07:36 2,7 C 4,4 C 97 % 1006,5 hPa 0,0 l/m 0,5 km/h (0 Bft) S 175 0 min 0,000 mm 0,0 UV-I 5 W/m 2,3 C 2,7 C 1,6 km/h (1 Bft) 100,00 %
29.11.2017 07:38 2,7 C 4,4 C 97 % 1006,6 hPa 0,0 l/m 0,4 km/h (0 Bft) S 175 0 min 0,000 mm 0,0 UV-I 5 W/m 2,3 C 2,7 C 1,6 km/h (1 Bft) 97,87 %
29.11.2017 07:40 2,7 C 4,4 C 96 % 1006,5 hPa 0,0 l/m 0,7 km/h (0 Bft) S 175 0 min 0,000 mm 0,0 UV-I 6 W/m 2,1 C 2,7 C 3,2 km/h (1 Bft) 100,00 %
29.11.2017 07:42 2,7 C 4,4 C 96 % 1006,5 hPa 0,0 l/m 0,3 km/h (0 Bft) S 175 0 min 0,000 mm 0,0 UV-I 7 W/m 2,1 C 2,7 C 1,6 km/h (1 Bft) 100,00 %
29.11.2017 07:44 2,7 C 4,4 C 96 % 1006,6 hPa 0,0 l/m 0,5 km/h (0 Bft) S 175 0 min 0,000 mm 0,0 UV-I 7 W/m 2,1 C 2,7 C 1,6 km/h (1 Bft) 100,00 %
29.11.2017 07:46 2,7 C 4,4 C 96 % 1006,6 hPa 0,0 l/m 1,4 km/h (1 Bft) S 175 0 min 0,000 mm 0,0 UV-I 7 W/m 2,1 C 2,7 C 3,2 km/h (1 Bft) 97,87 %
29.11.2017 07:48 2,7 C 4,4 C 96 % 1006,6 hPa 0,0 l/m 1,2 km/h (1 Bft) S 175 0 min 0,000 mm 0,0 UV-I 7 W/m 2,1 C 2,7 C 3,2 km/h (1 Bft) 100,00 %
29.11.2017 07:50 2,6 C 4,4 C 96 % 1006,6 hPa 0,0 l/m 0,6 km/h (0 Bft) S 175 0 min 0,000 mm 0,0 UV-I 7 W/m 2,0 C 2,6 C 3,2 km/h (1 Bft) 95,74 %
29.11.2017 07:52 2,6 C 4,4 C 97 % 1006,7 hPa 0,0 l/m 0,1 km/h (0 Bft) S 175 0 min 0,000 mm 0,0 UV-I 8 W/m 2,2 C 2,6 C 1,6 km/h (1 Bft) 97,87 %
29.11.2017 07:54 2,6 C 4,4 C 97 % 1006,7 hPa 0,0 l/m 0,2 km/h (0 Bft) S 175 0 min 0,000 mm 0,0 UV-I 9 W/m 2,2 C 2,6 C 1,6 km/h (1 Bft) 97,87 %
29.11.2017 07:56 2,7 C 4,4 C 97 % 1006,7 hPa 0,0 l/m 0,1 km/h (0 Bft) S 175 0 min 0,000 mm 0,0 UV-I 9 W/m 2,3 C 2,7 C 1,6 km/h (1 Bft) 94,74 %
29.11.2017 07:58 2,7 C 4,4 C 97 % 1006,7 hPa 0,0 l/m 0,6 km/h (0 Bft) S 175 0 min 0,000 mm 0,0 UV-I 9 W/m 2,3 C 2,7 C 3,2 km/h (1 Bft) 97,87 %
29.11.2017 08:00 2,8 C 4,4 C 97 % 1006,7 hPa 0,0 l/m 0,5 km/h (0 Bft) S 175 0 min 0,000 mm 0,0 UV-I 10 W/m 2,4 C 2,8 C 1,6 km/h (1 Bft) 95,74 %
29.11.2017 08:02 2,8 C 4,4 C 97 % 1006,7 hPa 0,0 l/m 1,0 km/h (0 Bft) S 175 0 min 0,000 mm 0,0 UV-I 11 W/m 2,4 C 2,8 C 3,2 km/h (1 Bft) 95,74 %
29.11.2017 08:04 2,8 C 4,4 C 97 % 1006,7 hPa 0,0 l/m 1,0 km/h (0 Bft) S 175 0 min 0,000 mm 0,0 UV-I 12 W/m 2,4 C 2,8 C 3,2 km/h (1 Bft) 97,87 %
29.11.2017 08:06 2,8 C 4,4 C 96 % 1006,8 hPa 0,0 l/m 1,0 km/h (0 Bft) S 175 0 min 0,000 mm 0,0 UV-I 14 W/m 2,2 C 2,8 C 3,2 km/h (1 Bft) 97,87 %
29.11.2017 08:08 2,8 C 4,4 C 96 % 1006,8 hPa 0,0 l/m 0,5 km/h (0 Bft) S 175 0 min 0,000 mm 0,0 UV-I 15 W/m 2,2 C 2,8 C 3,2 km/h (1 Bft) 97,87 %
29.11.2017 08:10 2,8 C 4,4 C 97 % 1006,7 hPa 0,0 l/m 0,5 km/h (0 Bft) S 175 0 min 0,000 mm 0,0 UV-I 20 W/m 2,4 C 2,8 C 1,6 km/h (1 Bft) 94,00 %
29.11.2017 08:12 2,8 C 4,4 C 97 % 1006,7 hPa 0,0 l/m 0,0 km/h (0 Bft) S 175 0 min 0,000 mm 0,0 UV-I 25 W/m 2,4 C 2,8 C 0,0 km/h (0 Bft) 96,00 %
29.11.2017 08:14 2,8 C 4,4 C 97 % 1006,7 hPa 0,0 l/m 0,0 km/h (0 Bft) S 175 0 min 0,000 mm 0,0 UV-I 29 W/m 2,4 C 2,8 C 0,0 km/h (0 Bft) 91,49 %
29.11.2017 08:16 2,8 C 4,4 C 97 % 1006,7 hPa 0,0 l/m 0,0 km/h (0 Bft) S 175 0 min 0,000 mm 0,0 UV-I 33 W/m 2,4 C 2,8 C 1,6 km/h (1 Bft) 97,87 %
29.11.2017 08:18 2,9 C 4,4 C 97 % 1006,8 hPa 0,0 l/m 0,0 km/h (0 Bft) S 175 0 min 0,000 mm 0,0 UV-I 34 W/m 2,5 C 2,9 C 0,0 km/h (0 Bft) 95,83 %
29.11.2017 08:20 2,9 C 4,4 C 97 % 1006,8 hPa 0,0 l/m 0,0 km/h (0 Bft) S 175 0 min 0,000 mm 0,0 UV-I 38 W/m 2,5 C 2,9 C 0,0 km/h (0 Bft) 89,58 %
29.11.2017 08:22 2,9 C 4,4 C 97 % 1006,8 hPa 0,0 l/m 0,0 km/h (0 Bft) S 175 0 min 0,000 mm 0,0 UV-I 42 W/m 2,5 C 2,9 C 0,0 km/h (0 Bft) 97,87 %
29.11.2017 08:24 2,9 C 4,4 C 97 % 1006,8 hPa 0,0 l/m 0,0 km/h (0 Bft) S 175 0 min 0,000 mm 0,0 UV-I 44 W/m 2,5 C 2,9 C 1,6 km/h (1 Bft) 93,62 %
29.11.2017 08:26 2,9 C 4,4 C 97 % 1006,8 hPa 0,0 l/m 0,2 km/h (0 Bft) S 175 0 min 0,000 mm 0,0 UV-I 46 W/m 2,5 C 2,9 C 1,6 km/h (1 Bft) 92,11 %
29.11.2017 08:28 3,0 C 4,4 C 97 % 1006,8 hPa 0,0 l/m 0,0 km/h (0 Bft) S 175 0 min 0,000 mm 0,0 UV-I 51 W/m 2,6 C 3,0 C 0,0 km/h (0 Bft) 91,49 %
29.11.2017 08:30 3,0 C 4,4 C 97 % 1006,8 hPa 0,0 l/m 0,1 km/h (0 Bft) S 175 0 min 0,000 mm 0,0 UV-I 56 W/m 2,6 C 3,0 C 1,6 km/h (1 Bft) 95,74 %
29.11.2017 08:32 3,1 C 4,4 C 97 % 1006,8 hPa 0,0 l/m 0,2 km/h (0 Bft) S 175 0 min 0,000 mm 0,0 UV-I 60 W/m 2,7 C 3,1 C 1,6 km/h (1 Bft) 97,87 %
29.11.2017 08:34 3,1 C 4,4 C 97 % 1006,8 hPa 0,0 l/m 0,1 km/h (0 Bft) S 175 0 min 0,000 mm 0,0 UV-I 67 W/m 2,7 C 3,1 C 1,6 km/h (1 Bft) 95,74 %
29.11.2017 08:36 3,2 C 4,4 C 97 % 1006,8 hPa 0,0 l/m 0,0 km/h (0 Bft) S 175 0 min 0,000 mm 0,0 UV-I 69 W/m 2,8 C 3,2 C 0,0 km/h (0 Bft) 93,62 %
29.11.2017 08:38 3,2 C 4,4 C 97 % 1006,8 hPa 0,0 l/m 0,1 km/h (0 Bft) S 175 0 min 0,000 mm 0,0 UV-I 67 W/m 2,8 C 3,2 C 1,6 km/h (1 Bft) 89,36 %
29.11.2017 08:40 3,3 C 4,4 C 97 % 1006,8 hPa 0,0 l/m 0,0 km/h (0 Bft) S 175 0 min 0,000 mm 0,0 UV-I 62 W/m 2,9 C 3,3 C 1,6 km/h (1 Bft) 97,87 %
29.11.2017 08:42 3,3 C 4,4 C 96 % 1006,9 hPa 0,0 l/m 0,0 km/h (0 Bft) S 175 0 min 0,000 mm 0,0 UV-I 56 W/m 2,7 C 3,3 C 0,0 km/h (0 Bft) 97,87 %
29.11.2017 08:44 3,3 C 4,4 C 96 % 1006,9 hPa 0,0 l/m 0,0 km/h (0 Bft) S 175 0 min 0,000 mm 0,0 UV-I 54 W/m 2,7 C 3,3 C 1,6 km/h (1 Bft) 95,74 %
29.11.2017 08:46 3,3 C 4,4 C 96 % 1006,9 hPa 0,0 l/m 0,0 km/h (0 Bft) S 175 0 min 0,000 mm 0,0 UV-I 53 W/m 2,7 C 3,3 C 1,6 km/h (1 Bft) 95,74 %
29.11.2017 08:48 3,3 C 4,4 C 96 % 1006,9 hPa 0,0 l/m 0,0 km/h (0 Bft) S 175 0 min 0,000 mm 0,0 UV-I 48 W/m 2,7 C 3,3 C 0,0 km/h (0 Bft) 97,87 %
29.11.2017 08:50 3,4 C 4,4 C 96 % 1006,9 hPa 0,0 l/m 0,3 km/h (0 Bft) S 175 0 min 0,000 mm 0,0 UV-I 42 W/m 2,8 C 3,4 C 1,6 km/h (1 Bft) 98,00 %
29.11.2017 08:52 3,4 C 4,4 C 96 % 1006,9 hPa 0,0 l/m 1,2 km/h (1 Bft) S 175 0 min 0,000 mm 0,0 UV-I 38 W/m 2,8 C 3,4 C 3,2 km/h (1 Bft) 97,87 %
29.11.2017 08:54 3,4 C 4,4 C 96 % 1006,9 hPa 0,0 l/m 1,0 km/h (0 Bft) S 175 0 min 0,000 mm 0,0 UV-I 35 W/m 2,8 C 3,4 C 3,2 km/h (1 Bft) 97,87 %
29.11.2017 08:56 3,4 C 4,4 C 96 % 1006,9 hPa 0,0 l/m 1,8 km/h (1 Bft) S 175 0 min 0,000 mm 0,0 UV-I 35 W/m 2,8 C 3,4 C 3,2 km/h (1 Bft) 95,83 %
29.11.2017 08:58 3,3 C 4,4 C 96 % 1006,9 hPa 0,0 l/m 2,6 km/h (1 Bft) S 175 0 min 0,000 mm 0,0 UV-I 35 W/m 2,7 C 3,3 C 3,2 km/h (1 Bft) 95,83 %
29.11.2017 09:00 3,3 C 4,4 C 96 % 1006,9 hPa 0,0 l/m 0,9 km/h (0 Bft) S 175 0 min 0,025 mm 0,0 UV-I 33 W/m 2,7 C 3,3 C 3,2 km/h (1 Bft) 95,74 %
29.11.2017 09:02 3,3 C 4,4 C 96 % 1006,9 hPa 0,0 l/m 0,0 km/h (0 Bft) S 175 0 min 0,000 mm 0,0 UV-I 33 W/m 2,7 C 3,3 C 0,0 km/h (0 Bft) 97,87 %
29.11.2017 09:04 3,3 C 4,4 C 96 % 1006,9 hPa 0,0 l/m 0,7 km/h (0 Bft) S 175 0 min 0,000 mm 0,0 UV-I 35 W/m 2,7 C 3,3 C 3,2 km/h (1 Bft) 97,87 %
29.11.2017 09:06 3,3 C 4,4 C 96 % 1006,9 hPa 0,0 l/m 0,5 km/h (0 Bft) S 175 0 min 0,000 mm 0,0 UV-I 39 W/m 2,7 C 3,3 C 1,6 km/h (1 Bft) 97,87 %
29.11.2017 09:08 3,3 C 4,4 C 96 % 1006,9 hPa 0,0 l/m 0,7 km/h (0 Bft) S 175 0 min 0,000 mm 0,0 UV-I 40 W/m 2,7 C 3,3 C 3,2 km/h (1 Bft) 95,74 %
29.11.2017 09:10 3,3 C 4,4 C 96 % 1006,9 hPa 0,0 l/m 0,4 km/h (0 Bft) S 175 0 min 0,000 mm 0,0 UV-I 40 W/m 2,7 C 3,3 C 1,6 km/h (1 Bft) 97,87 %
29.11.2017 09:12 3,3 C 4,4 C 96 % 1006,9 hPa 0,0 l/m 1,8 km/h (1 Bft) S 175 0 min 0,000 mm 0,0 UV-I 39 W/m 2,7 C 3,3 C 3,2 km/h (1 Bft) 95,74 %
29.11.2017 09:14 3,3 C 4,4 C 96 % 1006,9 hPa 0,0 l/m 1,3 km/h (1 Bft) S 175 0 min 0,000 mm 0,0 UV-I 40 W/m 2,7 C 3,3 C 3,2 km/h (1 Bft) 97,87 %
29.11.2017 09:16 3,4 C 4,4 C 96 % 1006,9 hPa 0,0 l/m 0,7 km/h (0 Bft) S 175 0 min 0,000 mm 0,0 UV-I 44 W/m 2,8 C 3,4 C 1,6 km/h (1 Bft) 97,87 %
29.11.2017 09:18 3,4 C 4,4 C 96 % 1006,9 hPa 0,0 l/m 0,0 km/h (0 Bft) S 175 0 min 0,000 mm 0,0 UV-I 48 W/m 2,8 C 3,4 C 1,6 km/h (1 Bft) 95,74 %
29.11.2017 09:20 3,4 C 4,4 C 95 % 1006,9 hPa 0,0 l/m 0,3 km/h (0 Bft) S 175 0 min 0,000 mm 0,0 UV-I 50 W/m 2,7 C 3,4 C 1,6 km/h (1 Bft) 100,00 %
29.11.2017 09:22 3,3 C 4,4 C 96 % 1006,9 hPa 0,0 l/m 1,3 km/h (1 Bft) S 175 0 min 0,000 mm 0,0 UV-I 50 W/m 2,7 C 3,3 C 3,2 km/h (1 Bft) 94,00 %
29.11.2017 09:24 3,4 C 4,4 C 96 % 1006,9 hPa 0,0 l/m 1,4 km/h (1 Bft) S 175 0 min 0,000 mm 0,0 UV-I 48 W/m 2,8 C 3,4 C 1,6 km/h (1 Bft) 97,87 %
29.11.2017 09:26 3,4 C 4,4 C 96 % 1007,0 hPa 0,0 l/m 1,3 km/h (1 Bft) S 175 0 min 0,000 mm 0,0 UV-I 46 W/m 2,8 C 3,4 C 3,2 km/h (1 Bft) 100,00 %
29.11.2017 09:28 3,4 C 4,4 C 96 % 1006,9 hPa 0,0 l/m 1,4 km/h (1 Bft) S 175 0 min 0,000 mm 0,0 UV-I 47 W/m 2,8 C 3,4 C 3,2 km/h (1 Bft) 97,87 %
29.11.2017 09:30 3,4 C 4,4 C 96 % 1006,9 hPa 0,0 l/m 1,1 km/h (1 Bft) S 175 0 min 0,000 mm 0,0 UV-I 51 W/m 2,8 C 3,4 C 3,2 km/h (1 Bft) 100,00 %
29.11.2017 09:32 3,4 C 4,4 C 96 % 1006,9 hPa 0,0 l/m 1,9 km/h (1 Bft) S 175 0 min 0,000 mm 0,0 UV-I 55 W/m 2,8 C 3,4 C 3,2 km/h (1 Bft) 100,00 %
29.11.2017 09:34 3,4 C 4,4 C 95 % 1006,9 hPa 0,0 l/m 0,5 km/h (0 Bft) S 175 0 min 0,000 mm 0,0 UV-I 58 W/m 2,7 C 3,4 C 1,6 km/h (1 Bft) 98,00 %
29.11.2017 09:36 3,4 C 4,4 C 95 % 1006,9 hPa 0,0 l/m 1,0 km/h (0 Bft) S 175 0 min 0,000 mm 0,0 UV-I 61 W/m 2,7 C 3,4 C 3,2 km/h (1 Bft) 100,00 %
29.11.2017 09:38 3,5 C 4,4 C 96 % 1006,9 hPa 0,0 l/m 0,4 km/h (0 Bft) S 175 0 min 0,000 mm 0,0 UV-I 65 W/m 2,9 C 3,5 C 1,6 km/h (1 Bft) 97,87 %
29.11.2017 09:40 3,5 C 4,4 C 96 % 1006,9 hPa 0,0 l/m 0,7 km/h (0 Bft) S 175 0 min 0,000 mm 0,0 UV-I 71 W/m 2,9 C 3,5 C 1,6 km/h (1 Bft) 97,87 %
29.11.2017 09:42 3,5 C 4,4 C 96 % 1007,0 hPa 0,0 l/m 0,7 km/h (0 Bft) S 175 0 min 0,000 mm 0,0 UV-I 77 W/m 2,9 C 3,5 C 3,2 km/h (1 Bft) 100,00 %
29.11.2017 09:44 3,5 C 4,4 C 96 % 1006,9 hPa 0,0 l/m 0,0 km/h (0 Bft) S 175 0 min 0,000 mm 0,0 UV-I 83 W/m 2,9 C 3,5 C 0,0 km/h (0 Bft) 100,00 %
29.11.2017 09:46 3,5 C 4,4 C 96 % 1006,9 hPa 0,0 l/m 0,0 km/h (0 Bft) S 175 0 min 0,000 mm 0,0 UV-I 89 W/m 2,9 C 3,5 C 0,0 km/h (0 Bft) 100,00 %
29.11.2017 09:48 3,6 C 4,4 C 96 % 1006,9 hPa 0,0 l/m 0,3 km/h (0 Bft) S 175 0 min 0,000 mm 0,0 UV-I 96 W/m 3,0 C 3,6 C 1,6 km/h (1 Bft) 100,00 %
29.11.2017 09:50 3,6 C 4,4 C 96 % 1006,9 hPa 0,0 l/m 2,0 km/h (1 Bft) S 175 0 min 0,000 mm 0,0 UV-I 102 W/m 3,0 C 3,6 C 3,2 km/h (1 Bft) 93,62 %
29.11.2017 09:52 3,7 C 4,4 C 96 % 1006,9 hPa 0,0 l/m 1,5 km/h (1 Bft) S 175 0 min 0,000 mm 0,0 UV-I 105 W/m 3,1 C 3,7 C 3,2 km/h (1 Bft) 100,00 %
29.11.2017 09:54 3,8 C 4,4 C 96 % 1006,8 hPa 0,0 l/m 0,0 km/h (0 Bft) S 175 0 min 0,000 mm 0,0 UV-I 109 W/m 3,2 C 3,8 C 0,0 km/h (0 Bft) 100,00 %
29.11.2017 09:56 3,8 C 4,4 C 96 % 1006,8 hPa 0,0 l/m 0,0 km/h (0 Bft) S 175 0 min 0,000 mm 0,0 UV-I 109 W/m 3,2 C 3,8 C 0,0 km/h (0 Bft) 100,00 %
29.11.2017 09:58 3,8 C 4,4 C 96 % 1006,8 hPa 0,0 l/m 1,8 km/h (1 Bft) S 175 0 min 0,000 mm 0,0 UV-I 105 W/m 3,2 C 3,8 C 4,8 km/h (1 Bft) 98,00 %
29.11.2017 10:00 3,8 C 4,4 C 96 % 1006,8 hPa 0,0 l/m 1,3 km/h (1 Bft) S 175 0 min 0,000 mm 0,0 UV-I 100 W/m 3,2 C 3,8 C 3,2 km/h (1 Bft) 95,74 %
29.11.2017 10:02 3,8 C 4,4 C 96 % 1006,9 hPa 0,0 l/m 0,2 km/h (0 Bft) S 175 0 min 0,026 mm 0,0 UV-I 96 W/m 3,2 C 3,8 C 1,6 km/h (1 Bft) 94,74 %
29.11.2017 10:04 3,8 C 4,4 C 95 % 1006,9 hPa 0,0 l/m 0,4 km/h (0 Bft) S 175 0 min 0,000 mm 0,0 UV-I 96 W/m 3,1 C 3,8 C 1,6 km/h (1 Bft) 95,74 %
29.11.2017 10:06 3,8 C 4,4 C 95 % 1006,9 hPa 0,2 l/m 0,8 km/h (0 Bft) S 175 0 min 0,000 mm 0,0 UV-I 98 W/m 3,1 C 3,8 C 3,2 km/h (1 Bft) 97,87 %
29.11.2017 10:08 3,9 C 4,4 C 95 % 1006,9 hPa 0,0 l/m 1,6 km/h (1 Bft) S 175 0 min 0,000 mm 0,0 UV-I 103 W/m 3,2 C 3,9 C 3,2 km/h (1 Bft) 95,74 %
29.11.2017 10:10 3,9 C 4,4 C 95 % 1006,9 hPa 0,0 l/m 1,5 km/h (1 Bft) S 175 0 min 0,000 mm 0,0 UV-I 106 W/m 3,2 C 3,9 C 3,2 km/h (1 Bft) 95,74 %
29.11.2017 10:12 3,9 C 4,4 C 95 % 1006,9 hPa 0,0 l/m 3,7 km/h (1 Bft) S 175 0 min 0,000 mm 0,0 UV-I 105 W/m 3,2 C 3,9 C 4,8 km/h (1 Bft) 97,92 %
29.11.2017 10:14 3,9 C 4,4 C 95 % 1006,9 hPa 0,0 l/m 1,7 km/h (1 Bft) S 175 0 min 0,000 mm 0,0 UV-I 100 W/m 3,2 C 3,9 C 3,2 km/h (1 Bft) 97,87 %
29.11.2017 10:16 3,9 C 4,4 C 95 % 1006,9 hPa 0,0 l/m 0,7 km/h (0 Bft) S 175 0 min 0,000 mm 0,0 UV-I 98 W/m 3,2 C 3,9 C 1,6 km/h (1 Bft) 95,74 %
29.11.2017 10:18 3,9 C 4,4 C 95 % 1006,9 hPa 0,0 l/m 0,1 km/h (0 Bft) S 175 0 min 0,000 mm 0,0 UV-I 96 W/m 3,2 C 3,9 C 1,6 km/h (1 Bft) 96,00 %
29.11.2017 10:20 3,9 C 4,4 C 94 % 1006,9 hPa 0,0 l/m 0,0 km/h (0 Bft) S 175 0 min 0,000 mm 0,0 UV-I 93 W/m 3,0 C 3,9 C 0,0 km/h (0 Bft) 97,87 %
29.11.2017 10:22 3,9 C 4,4 C 95 % 1006,9 hPa 0,0 l/m 0,0 km/h (0 Bft) S 175 0 min 0,000 mm 0,0 UV-I 91 W/m 3,2 C 3,9 C 0,0 km/h (0 Bft) 98,00 %
29.11.2017 10:24 3,9 C 4,4 C 95 % 1006,9 hPa 0,0 l/m 1,2 km/h (1 Bft) S 175 0 min 0,000 mm 0,0 UV-I 87 W/m 3,2 C 3,9 C 3,2 km/h (1 Bft) 95,74 %
29.11.2017 10:26 3,9 C 4,4 C 95 % 1006,9 hPa 0,0 l/m 1,8 km/h (1 Bft) S 175 0 min 0,000 mm 0,0 UV-I 84 W/m 3,2 C 3,9 C 3,2 km/h (1 Bft) 97,87 %
29.11.2017 10:28 3,9 C 4,4 C 94 % 1006,9 hPa 0,0 l/m 2,0 km/h (1 Bft) S 175 0 min 0,000 mm 0,0 UV-I 82 W/m 3,0 C 3,9 C 3,2 km/h (1 Bft) 95,74 %
29.11.2017 10:30 3,9 C 4,4 C 94 % 1006,9 hPa 0,0 l/m 1,3 km/h (1 Bft) S 175 0 min 0,000 mm 0,0 UV-I 81 W/m 3,0 C 3,9 C 3,2 km/h (1 Bft) 95,74 %
29.11.2017 10:32 4,0 C 4,4 C 94 % 1006,9 hPa 0,0 l/m 0,6 km/h (0 Bft) S 175 0 min 0,000 mm 0,0 UV-I 81 W/m 3,1 C 4,0 C 1,6 km/h (1 Bft) 100,00 %
29.11.2017 10:34 4,1 C 4,4 C 94 % 1006,9 hPa 0,0 l/m 0,1 km/h (0 Bft) S 175 0 min 0,000 mm 0,0 UV-I 82 W/m 3,2 C 4,1 C 1,6 km/h (1 Bft) 97,87 %
29.11.2017 10:36 4,1 C 4,4 C 94 % 1006,8 hPa 0,0 l/m 0,0 km/h (0 Bft) S 175 0 min 0,000 mm 0,0 UV-I 84 W/m 3,2 C 4,1 C 1,6 km/h (1 Bft) 95,74 %
29.11.2017 10:38 4,1 C 4,4 C 94 % 1006,8 hPa 0,0 l/m 0,0 km/h (0 Bft) S 175 0 min 0,000 mm 0,0 UV-I 83 W/m 3,2 C 4,1 C 0,0 km/h (0 Bft) 95,74 %
29.11.2017 10:40 4,0 C 4,4 C 93 % 1006,8 hPa 0,0 l/m 0,0 km/h (0 Bft) S 175 0 min 0,000 mm 0,0 UV-I 79 W/m 3,0 C 4,0 C 0,0 km/h (0 Bft) 100,00 %
29.11.2017 10:42 4,0 C 4,4 C 93 % 1006,8 hPa 0,0 l/m 0,0 km/h (0 Bft) S 175 0 min 0,000 mm 0,0 UV-I 77 W/m 3,0 C 4,0 C 0,0 km/h (0 Bft) 100,00 %
29.11.2017 10:44 4,0 C 4,4 C 93 % 1006,8 hPa 0,0 l/m 0,0 km/h (0 Bft) S 175 0 min 0,000 mm 0,0 UV-I 79 W/m 3,0 C 4,0 C 0,0 km/h (0 Bft) 95,74 %
29.11.2017 10:46 4,0 C 4,4 C 93 % 1006,8 hPa 0,0 l/m 0,0 km/h (0 Bft) S 175 0 min 0,000 mm 0,0 UV-I 84 W/m 3,0 C 4,0 C 0,0 km/h (0 Bft) 100,00 %
29.11.2017 10:48 4,0 C 4,4 C 94 % 1006,7 hPa 0,0 l/m 0,0 km/h (0 Bft) S 175 0 min 0,000 mm 0,0 UV-I 92 W/m 3,1 C 4,0 C 0,0 km/h (0 Bft) 100,00 %
29.11.2017 10:50 4,0 C 4,4 C 94 % 1006,7 hPa 0,0 l/m 0,0 km/h (0 Bft) S 175 0 min 0,000 mm 0,0 UV-I 98 W/m 3,1 C 4,0 C 0,0 km/h (0 Bft) 100,00 %
29.11.2017 10:52 4,1 C 4,4 C 94 % 1006,7 hPa 0,0 l/m 0,0 km/h (0 Bft) S 175 0 min 0,000 mm 0,0 UV-I 108 W/m 3,2 C 4,1 C 0,0 km/h (0 Bft) 100,00 %
29.11.2017 10:54 4,2 C 4,4 C 94 % 1006,7 hPa 0,0 l/m 0,0 km/h (0 Bft) S 175 0 min 0,000 mm 0,0 UV-I 115 W/m 3,3 C 4,2 C 0,0 km/h (0 Bft) 98,00 %
29.11.2017 10:56 4,2 C 4,4 C 94 % 1006,7 hPa 0,0 l/m 0,0 km/h (0 Bft) S 175 0 min 0,000 mm 0,0 UV-I 115 W/m 3,3 C 4,2 C 0,0 km/h (0 Bft) 100,00 %
29.11.2017 10:58 4,2 C 4,4 C 93 % 1006,7 hPa 0,0 l/m 0,0 km/h (0 Bft) S 175 0 min 0,000 mm 0,0 UV-I 112 W/m 3,2 C 4,2 C 1,6 km/h (1 Bft) 100,00 %
29.11.2017 11:00 4,1 C 4,4 C 93 % 1006,7 hPa 0,0 l/m 0,0 km/h (0 Bft) S 175 0 min 0,025 mm 0,0 UV-I 111 W/m 3,1 C 4,1 C 0,0 km/h (0 Bft) 100,00 %
29.11.2017 11:02 4,2 C 4,4 C 93 % 1006,7 hPa 0,0 l/m 0,9 km/h (0 Bft) S 175 0 min 0,000 mm 0,0 UV-I 111 W/m 3,2 C 4,2 C 3,2 km/h (1 Bft) 100,00 %
29.11.2017 11:04 4,2 C 4,4 C 93 % 1006,6 hPa 0,0 l/m 0,6 km/h (0 Bft) S 175 0 min 0,000 mm 0,0 UV-I 113 W/m 3,2 C 4,2 C 3,2 km/h (1 Bft) 100,00 %
29.11.2017 11:06 4,3 C 4,4 C 94 % 1006,5 hPa 0,0 l/m 0,9 km/h (0 Bft) S 175 0 min 0,000 mm 0,0 UV-I 119 W/m 3,4 C 4,3 C 3,2 km/h (1 Bft) 100,00 %
29.11.2017 11:08 4,3 C 4,4 C 92 % 1006,4 hPa 0,0 l/m 0,8 km/h (0 Bft) S 175 0 min 0,000 mm 0,0 UV-I 133 W/m 3,1 C 4,3 C 1,6 km/h (1 Bft) 100,00 %
29.11.2017 11:10 4,3 C 4,4 C 93 % 1006,4 hPa 0,0 l/m 0,9 km/h (0 Bft) S 175 0 min 0,000 mm 0,0 UV-I 157 W/m 3,3 C 4,3 C 3,2 km/h (1 Bft) 97,87 %
29.11.2017 11:12 4,3 C 4,4 C 92 % 1006,4 hPa 0,0 l/m 0,3 km/h (0 Bft) S 175 0 min 0,000 mm 0,0 UV-I 184 W/m 3,1 C 4,3 C 3,2 km/h (1 Bft) 100,00 %
29.11.2017 11:14 4,3 C 4,4 C 92 % 1006,3 hPa 0,0 l/m 0,4 km/h (0 Bft) S 175 0 min 0,000 mm 0,0 UV-I 178 W/m 3,1 C 4,3 C 1,6 km/h (1 Bft) 97,87 %
29.11.2017 11:16 4,3 C 4,4 C 91 % 1006,3 hPa 0,0 l/m 0,3 km/h (0 Bft) S 175 0 min 0,000 mm 0,0 UV-I 161 W/m 3,0 C 4,3 C 1,6 km/h (1 Bft) 100,00 %
29.11.2017 11:18 4,4 C 4,4 C 92 % 1006,4 hPa 0,0 l/m 0,0 km/h (0 Bft) S 175 0 min 0,000 mm 0,0 UV-I 163 W/m 3,2 C 4,4 C 1,6 km/h (1 Bft) 100,00 %
29.11.2017 11:20 4,4 C 4,4 C 91 % 1006,4 hPa 0,0 l/m 0,0 km/h (0 Bft) S 175 0 min 0,000 mm 0,0 UV-I 163 W/m 3,1 C 4,4 C 1,6 km/h (1 Bft) 100,00 %
29.11.2017 11:22 4,4 C 4,4 C 91 % 1006,3 hPa 0,0 l/m 0,1 km/h (0 Bft) S 175 0 min 0,000 mm 0,0 UV-I 155 W/m 3,1 C 4,4 C 1,6 km/h (1 Bft) 100,00 %
29.11.2017 11:24 4,5 C 4,4 C 92 % 1006,3 hPa 0,0 l/m 1,4 km/h (1 Bft) S 175 0 min 0,000 mm 0,0 UV-I 147 W/m 3,3 C 4,5 C 3,2 km/h (1 Bft) 100,00 %
29.11.2017 11:26 4,5 C 4,4 C 91 % 1006,4 hPa 0,0 l/m 1,3 km/h (1 Bft) S 175 0 min 0,000 mm 0,0 UV-I 142 W/m 3,2 C 4,5 C 3,2 km/h (1 Bft) 100,00 %
29.11.2017 11:28 4,6 C 4,4 C 90 % 1006,4 hPa 0,0 l/m 1,9 km/h (1 Bft) S 175 0 min 0,000 mm 0,0 UV-I 139 W/m 3,1 C 4,6 C 3,2 km/h (1 Bft) 100,00 %
29.11.2017 11:30 4,6 C 4,4 C 90 % 1006,3 hPa 0,0 l/m 1,8 km/h (1 Bft) S 175 0 min 0,000 mm 0,0 UV-I 150 W/m 3,1 C 4,6 C 3,2 km/h (1 Bft) 97,87 %
29.11.2017 11:32 4,6 C 4,4 C 89 % 1006,3 hPa 0,0 l/m 1,1 km/h (1 Bft) S 175 0 min 0,000 mm 0,0 UV-I 165 W/m 2,9 C 4,6 C 3,2 km/h (1 Bft) 97,87 %
29.11.2017 11:34 4,6 C 4,4 C 88 % 1006,3 hPa 0,0 l/m 1,4 km/h (1 Bft) S 175 0 min 0,000 mm 0,0 UV-I 169 W/m 2,8 C 4,6 C 3,2 km/h (1 Bft) 100,00 %
29.11.2017 11:36 4,5 C 4,4 C 89 % 1006,2 hPa 0,0 l/m 1,0 km/h (0 Bft) S 175 0 min 0,000 mm 0,0 UV-I 168 W/m 2,8 C 4,5 C 1,6 km/h (1 Bft) 100,00 %
29.11.2017 11:38 4,6 C 4,4 C 89 % 1006,2 hPa 0,0 l/m 0,7 km/h (0 Bft) S 175 2 min 0,000 mm 0,0 UV-I 234 W/m 2,9 C 4,6 C 3,2 km/h (1 Bft) 100,00 %
29.11.2017 11:40 4,7 C 4,4 C 90 % 1006,2 hPa 0,0 l/m 1,6 km/h (1 Bft) N-NO 29 2 min 0,000 mm 0,0 UV-I 239 W/m 3,2 C 4,7 C 4,8 km/h (1 Bft) 98,00 %
29.11.2017 11:42 4,8 C 4,4 C 90 % 1006,2 hPa 0,0 l/m 1,3 km/h (1 Bft) N-NO 29 2 min 0,000 mm 0,0 UV-I 208 W/m 3,3 C 4,8 C 3,2 km/h (1 Bft) 97,87 %
29.11.2017 11:44 4,9 C 4,4 C 90 % 1006,2 hPa 0,0 l/m 1,1 km/h (1 Bft) N-NO 29 2 min 0,000 mm 0,0 UV-I 203 W/m 3,4 C 4,9 C 4,8 km/h (1 Bft) 100,00 %
29.11.2017 11:46 4,9 C 4,4 C 88 % 1006,2 hPa 0,0 l/m 0,5 km/h (0 Bft) N-NO 23 2 min 0,000 mm 0,0 UV-I 247 W/m 3,1 C 4,9 C 3,2 km/h (1 Bft) 98,00 %
29.11.2017 11:48 5,0 C 4,4 C 89 % 1006,1 hPa 0,0 l/m 1,5 km/h (1 Bft) N-NO 23 2 min 0,000 mm 0,0 UV-I 238 W/m 3,3 C 5,0 C 4,8 km/h (1 Bft) 100,00 %
29.11.2017 11:50 5,0 C 4,4 C 88 % 1006,0 hPa 0,0 l/m 3,4 km/h (1 Bft) N-NO 22 2 min 0,000 mm 0,0 UV-I 215 W/m 3,2 C 5,0 C 6,4 km/h (2 Bft) 100,00 %
29.11.2017 11:52 5,0 C 4,4 C 88 % 1005,9 hPa 0,0 l/m 4,0 km/h (1 Bft) N-NO 25 2 min 0,000 mm 0,0 UV-I 196 W/m 3,2 C 5,0 C 6,4 km/h (2 Bft) 100,00 %
29.11.2017 11:54 4,9 C 4,4 C 89 % 1006,0 hPa 0,0 l/m 2,7 km/h (1 Bft) N-NO 19 0 min 0,000 mm 0,0 UV-I 189 W/m 3,2 C 4,9 C 6,4 km/h (2 Bft) 95,83 %
29.11.2017 11:56 5,0 C 4,4 C 89 % 1006,0 hPa 0,0 l/m 3,0 km/h (1 Bft) N-NO 32 0 min 0,000 mm 0,0 UV-I 192 W/m 3,3 C 5,0 C 4,8 km/h (1 Bft) 100,00 %
29.11.2017 11:58 4,9 C 4,4 C 88 % 1006,1 hPa 0,0 l/m 1,3 km/h (1 Bft) N-NO 32 0 min 0,000 mm 0,0 UV-I 188 W/m 3,1 C 4,9 C 3,2 km/h (1 Bft) 97,87 %
29.11.2017 12:00 4,9 C 4,4 C 88 % 1006,1 hPa 0,0 l/m 3,1 km/h (1 Bft) N-NO 28 0 min 0,000 mm 0,0 UV-I 185 W/m 3,1 C 4,9 C 6,4 km/h (2 Bft) 95,74 %
29.11.2017 12:02 4,9 C 4,4 C 88 % 1006,1 hPa 0,0 l/m 1,3 km/h (1 Bft) N-NO 24 0 min 0,076 mm 0,0 UV-I 181 W/m 3,1 C 4,9 C 3,2 km/h (1 Bft) 96,00 %
29.11.2017 12:04 4,9 C 4,4 C 88 % 1006,2 hPa 0,0 l/m 0,0 km/h (0 Bft) N-NO 24 0 min 0,000 mm 0,0 UV-I 187 W/m 3,1 C 4,9 C 1,6 km/h (1 Bft) 96,00 %
29.11.2017 12:06 4,8 C 4,4 C 88 % 1006,2 hPa 0,0 l/m 0,0 km/h (0 Bft) N-NO 24 2 min 0,000 mm 0,5 UV-I 196 W/m 3,0 C 4,8 C 0,0 km/h (0 Bft) 97,37 %
29.11.2017 12:08 4,7 C 4,4 C 87 % 1006,2 hPa 0,0 l/m 0,0 km/h (0 Bft) N-NO 24 0 min 0,000 mm 0,5 UV-I 192 W/m 2,7 C 4,7 C 0,0 km/h (0 Bft) 97,92 %
29.11.2017 12:10 4,6 C 4,4 C 87 % 1006,3 hPa 0,0 l/m 0,1 km/h (0 Bft) N-NO 24 0 min 0,000 mm 0,5 UV-I 188 W/m 2,6 C 4,6 C 1,6 km/h (1 Bft) 97,87 %
29.11.2017 12:12 4,6 C 4,4 C 88 % 1006,3 hPa 0,0 l/m 0,5 km/h (0 Bft) N-NO 24 0 min 0,000 mm 0,2 UV-I 189 W/m 2,8 C 4,6 C 3,2 km/h (1 Bft) 97,87 %
29.11.2017 12:14 4,8 C 4,4 C 88 % 1006,3 hPa 0,0 l/m 0,5 km/h (0 Bft) N-NO 24 0 min 0,000 mm 0,0 UV-I 186 W/m 3,0 C 4,8 C 1,6 km/h (1 Bft) 95,74 %
29.11.2017 12:16 4,8 C 4,4 C 87 % 1006,3 hPa 0,0 l/m 0,5 km/h (0 Bft) N-NO 24 0 min 0,000 mm 0,0 UV-I 181 W/m 2,8 C 4,8 C 3,2 km/h (1 Bft) 94,00 %
29.11.2017 12:18 4,9 C 4,4 C 88 % 1006,2 hPa 0,0 l/m 4,0 km/h (1 Bft) N-NO 24 0 min 0,000 mm 0,0 UV-I 171 W/m 3,1 C 4,9 C 4,8 km/h (1 Bft) 94,34 %
29.11.2017 12:20 4,9 C 4,4 C 87 % 1006,2 hPa 0,0 l/m 2,6 km/h (1 Bft) N-NO 24 0 min 0,000 mm 0,0 UV-I 163 W/m 2,9 C 4,9 C 4,8 km/h (1 Bft) 97,87 %
29.11.2017 12:22 4,9 C 4,4 C 87 % 1006,2 hPa 0,0 l/m 0,8 km/h (0 Bft) N-NO 24 0 min 0,000 mm 0,0 UV-I 160 W/m 2,9 C 4,9 C 3,2 km/h (1 Bft) 97,87 %
29.11.2017 12:24 4,9 C 4,4 C 88 % 1006,1 hPa 0,0 l/m 0,9 km/h (0 Bft) N-NO 24 0 min 0,000 mm 0,0 UV-I 165 W/m 3,1 C 4,9 C 3,2 km/h (1 Bft) 95,74 %
29.11.2017 12:26 5,0 C 4,4 C 88 % 1006,1 hPa 0,0 l/m 2,5 km/h (1 Bft) N-NO 24 0 min 0,000 mm 0,0 UV-I 164 W/m 3,2 C 5,0 C 4,8 km/h (1 Bft) 97,87 %
29.11.2017 12:28 5,0 C 4,4 C 88 % 1006,1 hPa 0,0 l/m 3,8 km/h (1 Bft) N-NO 24 0 min 0,000 mm 0,0 UV-I 154 W/m 3,2 C 5,0 C 4,8 km/h (1 Bft) 97,14 %
29.11.2017 12:30 4,9 C 4,4 C 86 % 1006,1 hPa 0,0 l/m 2,3 km/h (1 Bft) N-NO 24 0 min 0,000 mm 0,0 UV-I 149 W/m 2,8 C 4,9 C 3,2 km/h (1 Bft) 97,87 %
29.11.2017 12:32 5,1 C 4,4 C 88 % 1006,1 hPa 0,0 l/m 2,2 km/h (1 Bft) N-NO 24 0 min 0,000 mm 0,0 UV-I 154 W/m 3,3 C 5,1 C 4,8 km/h (1 Bft) 98,00 %
29.11.2017 12:34 4,9 C 4,4 C 86 % 1006,2 hPa 0,0 l/m 2,4 km/h (1 Bft) N-NO 24 0 min 0,000 mm 0,0 UV-I 160 W/m 2,8 C 4,9 C 3,2 km/h (1 Bft) 98,00 %
29.11.2017 12:36 4,9 C 4,4 C 87 % 1006,1 hPa 0,0 l/m 0,5 km/h (0 Bft) N-NO 24 0 min 0,000 mm 0,0 UV-I 162 W/m 2,9 C 4,9 C 1,6 km/h (1 Bft) 100,00 %
29.11.2017 12:38 5,1 C 4,4 C 87 % 1006,2 hPa 0,0 l/m 0,8 km/h (0 Bft) N-NO 24 0 min 0,000 mm 0,0 UV-I 160 W/m 3,1 C 5,1 C 3,2 km/h (1 Bft) 100,00 %
29.11.2017 12:40 5,1 C 4,4 C 87 % 1006,1 hPa 0,0 l/m 3,6 km/h (1 Bft) NO 49 0 min 0,000 mm 0,0 UV-I 145 W/m 3,1 C 5,1 C 4,8 km/h (1 Bft) 98,00 %
29.11.2017 12:42 4,9 C 4,4 C 86 % 1006,1 hPa 0,0 l/m 2,6 km/h (1 Bft) NO 49 0 min 0,000 mm 0,0 UV-I 131 W/m 2,8 C 4,9 C 4,8 km/h (1 Bft) 100,00 %
29.11.2017 12:44 5,0 C 4,4 C 87 % 1006,1 hPa 0,0 l/m 2,6 km/h (1 Bft) NO 49 0 min 0,000 mm 0,0 UV-I 127 W/m 3,0 C 5,0 C 3,2 km/h (1 Bft) 100,00 %
29.11.2017 12:46 5,0 C 4,4 C 87 % 1006,1 hPa 0,0 l/m 2,3 km/h (1 Bft) NO 49 0 min 0,000 mm 0,0 UV-I 129 W/m 3,0 C 5,0 C 4,8 km/h (1 Bft) 100,00 %
29.11.2017 12:48 5,1 C 4,4 C 88 % 1006,1 hPa 0,0 l/m 2,5 km/h (1 Bft) NO 49 0 min 0,000 mm 0,0 UV-I 126 W/m 3,3 C 5,1 C 4,8 km/h (1 Bft) 97,87 %
29.11.2017 12:50 4,9 C 4,4 C 87 % 1006,1 hPa 0,0 l/m 1,5 km/h (1 Bft) NO 49 0 min 0,000 mm 0,0 UV-I 116 W/m 2,9 C 4,9 C 3,2 km/h (1 Bft) 100,00 %
29.11.2017 12:52 4,9 C 4,4 C 87 % 1006,1 hPa 0,0 l/m 0,0 km/h (0 Bft) NO 49 0 min 0,000 mm 0,0 UV-I 106 W/m 2,9 C 4,9 C 0,0 km/h (0 Bft) 100,00 %
29.11.2017 12:54 4,9 C 4,4 C 87 % 1006,1 hPa 0,0 l/m 1,0 km/h (0 Bft) NO 49 0 min 0,000 mm 0,0 UV-I 105 W/m 2,9 C 4,9 C 3,2 km/h (1 Bft) 97,92 %
29.11.2017 12:56 4,8 C 4,4 C 87 % 1006,0 hPa 0,0 l/m 0,4 km/h (0 Bft) NO 49 0 min 0,000 mm 0,0 UV-I 98 W/m 2,8 C 4,8 C 3,2 km/h (1 Bft) 100,00 %
29.11.2017 12:58 4,9 C 4,4 C 87 % 1006,0 hPa 0,0 l/m 0,6 km/h (0 Bft) NO 49 0 min 0,000 mm 0,0 UV-I 87 W/m 2,9 C 4,9 C 1,6 km/h (1 Bft) 97,87 %
29.11.2017 13:00 5,0 C 4,4 C 88 % 1006,0 hPa 0,0 l/m 2,1 km/h (1 Bft) NO 49 0 min 0,051 mm 0,0 UV-I 79 W/m 3,2 C 5,0 C 4,8 km/h (1 Bft) 97,92 %
29.11.2017 13:02 4,9 C 4,4 C 88 % 1006,0 hPa 0,0 l/m 3,4 km/h (1 Bft) NO 49 0 min 0,000 mm 0,0 UV-I 75 W/m 3,1 C 4,9 C 4,8 km/h (1 Bft) 97,87 %
29.11.2017 13:04 4,8 C 4,4 C 89 % 1006,0 hPa 0,0 l/m 3,4 km/h (1 Bft) NO 49 0 min 0,000 mm 0,0 UV-I 75 W/m 3,1 C 4,8 C 4,8 km/h (1 Bft) 100,00 %
29.11.2017 13:06 4,7 C 4,4 C 88 % 1006,0 hPa 0,0 l/m 0,4 km/h (0 Bft) NO 49 0 min 0,000 mm 0,0 UV-I 71 W/m 2,9 C 4,7 C 3,2 km/h (1 Bft) 97,87 %
29.11.2017 13:08 4,7 C 4,4 C 89 % 1006,0 hPa 0,0 l/m 1,5 km/h (1 Bft) NO 49 0 min 0,000 mm 0,0 UV-I 69 W/m 3,0 C 4,7 C 3,2 km/h (1 Bft) 97,87 %
29.11.2017 13:10 4,7 C 4,4 C 90 % 1005,9 hPa 0,0 l/m 1,9 km/h (1 Bft) NO 49 0 min 0,000 mm 0,0 UV-I 72 W/m 3,2 C 4,7 C 4,8 km/h (1 Bft) 97,87 %
29.11.2017 13:12 4,8 C 4,4 C 90 % 1006,0 hPa 0,0 l/m 2,6 km/h (1 Bft) NO 49 0 min 0,000 mm 0,0 UV-I 84 W/m 3,3 C 4,8 C 3,2 km/h (1 Bft) 97,87 %
29.11.2017 13:14 4,8 C 4,4 C 90 % 1005,9 hPa 0,0 l/m 0,8 km/h (0 Bft) NO 49 0 min 0,000 mm 0,0 UV-I 102 W/m 3,3 C 4,8 C 3,2 km/h (1 Bft) 95,74 %
29.11.2017 13:16 4,9 C 4,4 C 90 % 1005,9 hPa 0,0 l/m 1,2 km/h (1 Bft) NO 49 0 min 0,000 mm 0,0 UV-I 109 W/m 3,4 C 4,9 C 3,2 km/h (1 Bft) 95,74 %
29.11.2017 13:18 4,9 C 4,4 C 91 % 1005,8 hPa 0,0 l/m 4,0 km/h (1 Bft) NO 48 0 min 0,000 mm 0,0 UV-I 99 W/m 3,6 C 4,9 C 6,4 km/h (2 Bft) 97,87 %
29.11.2017 13:20 4,9 C 4,4 C 90 % 1005,8 hPa 0,0 l/m 3,9 km/h (1 Bft) NO 43 0 min 0,000 mm 0,0 UV-I 90 W/m 3,4 C 4,9 C 6,4 km/h (2 Bft) 94,74 %
29.11.2017 13:22 4,9 C 4,4 C 90 % 1005,7 hPa 0,0 l/m 4,5 km/h (1 Bft) NO 42 0 min 0,000 mm 0,0 UV-I 83 W/m 3,4 C 4,9 C 6,4 km/h (2 Bft) 97,92 %
29.11.2017 13:24 4,9 C 4,4 C 91 % 1005,7 hPa 0,0 l/m 1,6 km/h (1 Bft) NO 42 0 min 0,000 mm 0,0 UV-I 77 W/m 3,6 C 4,9 C 4,8 km/h (1 Bft) 97,87 %
29.11.2017 13:26 4,9 C 4,4 C 91 % 1005,8 hPa 0,0 l/m 1,8 km/h (1 Bft) NO 42 0 min 0,000 mm 0,0 UV-I 77 W/m 3,6 C 4,9 C 4,8 km/h (1 Bft) 97,87 %
29.11.2017 13:28 4,8 C 4,4 C 91 % 1005,7 hPa 0,0 l/m 0,6 km/h (0 Bft) NO 40 0 min 0,000 mm 0,0 UV-I 84 W/m 3,5 C 4,8 C 3,2 km/h (1 Bft) 97,87 %
29.11.2017 13:30 4,8 C 4,4 C 91 % 1005,7 hPa 0,0 l/m 0,4 km/h (0 Bft) N-NO 26 0 min 0,000 mm 0,0 UV-I 90 W/m 3,5 C 4,8 C 1,6 km/h (1 Bft) 97,92 %
29.11.2017 13:32 4,8 C 4,4 C 91 % 1005,7 hPa 0,0 l/m 0,7 km/h (0 Bft) N-NO 17 0 min 0,000 mm 0,0 UV-I 92 W/m 3,5 C 4,8 C 3,2 km/h (1 Bft) 98,00 %
29.11.2017 13:34 4,8 C 4,4 C 92 % 1005,7 hPa 0,0 l/m 0,4 km/h (0 Bft) N-NO 17 0 min 0,000 mm 0,0 UV-I 97 W/m 3,6 C 4,8 C 1,6 km/h (1 Bft) 94,00 %
29.11.2017 13:36 4,8 C 4,4 C 92 % 1005,6 hPa 0,0 l/m 1,2 km/h (1 Bft) N-NO 17 0 min 0,000 mm 0,0 UV-I 102 W/m 3,6 C 4,8 C 4,8 km/h (1 Bft) 97,22 %
29.11.2017 13:38 4,8 C 4,4 C 91 % 1005,6 hPa 0,0 l/m 1,5 km/h (1 Bft) N-NO 17 0 min 0,000 mm 0,0 UV-I 106 W/m 3,5 C 4,8 C 4,8 km/h (1 Bft) 98,00 %
29.11.2017 13:40 4,9 C 4,4 C 92 % 1005,6 hPa 0,0 l/m 3,6 km/h (1 Bft) NO 37 0 min 0,000 mm 0,0 UV-I 106 W/m 3,7 C 4,9 C 6,4 km/h (2 Bft) 97,87 %
29.11.2017 13:42 4,9 C 4,4 C 91 % 1005,6 hPa 0,0 l/m 4,8 km/h (1 Bft) NO 42 0 min 0,000 mm 0,0 UV-I 103 W/m 3,6 C 4,9 C 8,0 km/h (2 Bft) 95,74 %
29.11.2017 13:45 4,8 C 4,4 C 90 % 1005,5 hPa 0,0 l/m 4,6 km/h (1 Bft) NO 43 0 min 0,000 mm 0,0 UV-I 90 W/m 3,3 C 4,8 C 6,4 km/h (2 Bft) 97,56 %
29.11.2017 13:46 4,8 C 4,4 C 91 % 1005,5 hPa 0,0 l/m 3,9 km/h (1 Bft) NO 43 0 min 0,000 mm 0,0 UV-I 78 W/m 3,5 C 4,8 C 6,4 km/h (2 Bft) 91,67 %
29.11.2017 13:50 4,8 C 4,4 C 91 % 1005,4 hPa 0,0 l/m 5,2 km/h (1 Bft) NO 44 0 min 0,000 mm 0,0 UV-I 77 W/m 3,5 C 4,8 C 8,0 km/h (2 Bft) 94,85 %
29.11.2017 13:52 4,8 C 4,4 C 91 % 1005,4 hPa 0,0 l/m 7,9 km/h (2 Bft) N-NO 21 0 min 0,000 mm 0,0 UV-I 84 W/m 3,5 C 3,5 C 12,9 km/h (3 Bft) 95,74 %
29.11.2017 13:55 4,8 C 4,4 C 92 % 1005,4 hPa 0,0 l/m 4,2 km/h (1 Bft) N-NO 15 0 min 0,000 mm 0,0 UV-I 83 W/m 3,6 C 4,8 C 8,0 km/h (2 Bft) 96,05 %
29.11.2017 13:56 4,8 C 4,4 C 92 % 1005,4 hPa 0,0 l/m 6,1 km/h (2 Bft) NO 48 0 min 0,000 mm 0,0 UV-I 84 W/m 3,6 C 4,8 C 9,7 km/h (2 Bft) 100,00 %
29.11.2017 13:58 4,7 C 4,4 C 91 % 1005,4 hPa 0,0 l/m 6,8 km/h (2 Bft) NO 43 0 min 0,000 mm 0,0 UV-I 85 W/m 3,4 C 4,4 C 9,7 km/h (2 Bft) 98,00 %
29.11.2017 14:00 4,7 C 4,4 C 91 % 1005,4 hPa 0,0 l/m 5,1 km/h (1 Bft) NO 49 0 min 0,000 mm 0,0 UV-I 89 W/m 3,4 C 4,7 C 11,3 km/h (2 Bft) 95,74 %
29.11.2017 14:02 4,7 C 4,4 C 91 % 1005,4 hPa 0,0 l/m 5,8 km/h (2 Bft) NO 36 0 min 0,026 mm 0,0 UV-I 94 W/m 3,4 C 4,7 C 8,0 km/h (2 Bft) 95,74 %
29.11.2017 14:04 4,7 C 4,4 C 91 % 1005,4 hPa 0,0 l/m 7,2 km/h (2 Bft) NO 47 0 min 0,000 mm 0,0 UV-I 105 W/m 3,4 C 4,0 C 9,7 km/h (2 Bft) 94,00 %
29.11.2017 14:06 4,7 C 4,4 C 90 % 1005,3 hPa 0,0 l/m 7,5 km/h (2 Bft) NO 42 0 min 0,000 mm 0,0 UV-I 111 W/m 3,2 C 3,7 C 8,0 km/h (2 Bft) 93,62 %
29.11.2017 14:08 4,7 C 4,4 C 91 % 1005,3 hPa 0,0 l/m 6,8 km/h (2 Bft) NO 41 0 min 0,000 mm 0,0 UV-I 107 W/m 3,4 C 4,4 C 8,0 km/h (2 Bft) 95,74 %
29.11.2017 14:10 4,7 C 4,4 C 91 % 1005,2 hPa 0,0 l/m 5,4 km/h (1 Bft) NO 40 0 min 0,000 mm 0,0 UV-I 123 W/m 3,4 C 4,7 C 8,0 km/h (2 Bft) 95,74 %
29.11.2017 14:12 4,7 C 4,4 C 91 % 1005,2 hPa 0,0 l/m 5,1 km/h (1 Bft) NO 36 2 min 0,000 mm 0,0 UV-I 154 W/m 3,4 C 4,7 C 8,0 km/h (2 Bft) 95,74 %
29.11.2017 14:14 4,8 C 4,4 C 91 % 1005,2 hPa 0,0 l/m 6,2 km/h (2 Bft) N 5 2 min 0,000 mm 0,0 UV-I 169 W/m 3,5 C 4,8 C 9,7 km/h (2 Bft) 95,92 %
29.11.2017 14:16 4,9 C 4,4 C 92 % 1005,2 hPa 0,0 l/m 6,9 km/h (2 Bft) N-NO 30 2 min 0,000 mm 0,0 UV-I 188 W/m 3,7 C 4,5 C 9,7 km/h (2 Bft) 94,87 %
29.11.2017 14:19 5,0 C 4,4 C 92 % 1005,1 hPa 0,0 l/m 7,2 km/h (2 Bft) N 360 3 min 0,000 mm 0,0 UV-I 224 W/m 3,8 C 4,3 C 12,9 km/h (3 Bft) 94,52 %
29.11.2017 14:20 5,1 C 4,4 C 92 % 1005,1 hPa 0,0 l/m 7,2 km/h (2 Bft) N-NO 22 1 min 0,000 mm 0,0 UV-I 230 W/m 3,9 C 4,4 C 11,3 km/h (2 Bft) 95,83 %
29.11.2017 14:22 5,1 C 4,4 C 92 % 1005,1 hPa 0,0 l/m 6,3 km/h (2 Bft) N-NO 14 2 min 0,000 mm 0,0 UV-I 163 W/m 3,9 C 5,1 C 12,9 km/h (3 Bft) 93,62 %
29.11.2017 14:24 5,1 C 4,4 C 91 % 1005,1 hPa 0,0 l/m 1,5 km/h (1 Bft) W-NW 300 2 min 0,000 mm 0,0 UV-I 126 W/m 3,8 C 5,1 C 3,2 km/h (1 Bft) 94,00 %
29.11.2017 14:26 5,0 C 4,4 C 92 % 1005,1 hPa 0,0 l/m 2,1 km/h (1 Bft) NO 40 0 min 0,000 mm 0,0 UV-I 106 W/m 3,8 C 5,0 C 6,4 km/h (2 Bft) 95,74 %
29.11.2017 14:28 4,9 C 4,4 C 91 % 1005,1 hPa 0,0 l/m 5,3 km/h (1 Bft) N-NO 18 0 min 0,000 mm 0,0 UV-I 97 W/m 3,6 C 4,9 C 11,3 km/h (2 Bft) 93,62 %
29.11.2017 14:30 4,9 C 4,4 C 91 % 1004,9 hPa 0,0 l/m 9,3 km/h (2 Bft) NO 38 0 min 0,000 mm 0,0 UV-I 92 W/m 3,6 C 2,5 C 14,5 km/h (3 Bft) 94,74 %
29.11.2017 14:32 4,8 C 4,4 C 91 % 1005,0 hPa 0,0 l/m 10,5 km/h (2 Bft) N-NO 24 0 min 0,000 mm 0,0 UV-I 77 W/m 3,5 C 1,5 C 16,1 km/h (3 Bft) 95,74 %
29.11.2017 14:34 4,7 C 4,4 C 91 % 1005,0 hPa 0,0 l/m 9,3 km/h (2 Bft) N-NO 19 0 min 0,000 mm 0,0 UV-I 53 W/m 3,4 C 2,3 C 12,9 km/h (3 Bft) 95,74 %
29.11.2017 14:36 4,7 C 4,4 C 91 % 1005,0 hPa 0,0 l/m 5,5 km/h (1 Bft) N-NO 15 0 min 0,000 mm 0,0 UV-I 38 W/m 3,4 C 4,7 C 8,0 km/h (2 Bft) 97,87 %
29.11.2017 14:38 4,7 C 4,4 C 92 % 1005,0 hPa 0,0 l/m 1,5 km/h (1 Bft) N 11 0 min 0,000 mm 0,0 UV-I 32 W/m 3,5 C 4,7 C 3,2 km/h (1 Bft) 95,74 %
29.11.2017 14:40 4,6 C 4,4 C 92 % 1005,0 hPa 0,0 l/m 2,4 km/h (1 Bft) N-NO 17 0 min 0,000 mm 0,0 UV-I 32 W/m 3,4 C 4,6 C 6,4 km/h (2 Bft) 97,87 %
29.11.2017 14:42 4,6 C 4,4 C 92 % 1005,1 hPa 0,0 l/m 5,9 km/h (2 Bft) N-NO 28 0 min 0,000 mm 0,0 UV-I 30 W/m 3,4 C 4,6 C 9,7 km/h (2 Bft) 97,87 %
29.11.2017 14:44 4,5 C 4,4 C 92 % 1005,1 hPa 0,0 l/m 5,9 km/h (2 Bft) N-NO 20 0 min 0,000 mm 0,0 UV-I 32 W/m 3,3 C 4,5 C 11,3 km/h (2 Bft) 97,87 %
29.11.2017 14:46 4,5 C 4,4 C 92 % 1005,1 hPa 0,0 l/m 6,4 km/h (2 Bft) NO 40 0 min 0,000 mm 0,0 UV-I 31 W/m 3,3 C 4,5 C 11,3 km/h (2 Bft) 97,87 %
29.11.2017 14:48 4,5 C 4,4 C 92 % 1005,1 hPa 0,0 l/m 9,1 km/h (2 Bft) N-NO 14 0 min 0,000 mm 0,0 UV-I 33 W/m 3,3 C 2,2 C 12,9 km/h (3 Bft) 100,00 %
29.11.2017 14:50 4,5 C 4,4 C 92 % 1005,1 hPa 0,0 l/m 5,7 km/h (1 Bft) NO 48 0 min 0,000 mm 0,0 UV-I 39 W/m 3,3 C 4,5 C 8,0 km/h (2 Bft) 100,00 %
29.11.2017 14:52 4,4 C 4,4 C 92 % 1005,1 hPa 0,0 l/m 7,3 km/h (2 Bft) O-NO 59 0 min 0,000 mm 0,0 UV-I 44 W/m 3,2 C 3,6 C 9,7 km/h (2 Bft) 100,00 %
29.11.2017 14:54 4,4 C 4,4 C 91 % 1005,1 hPa 0,0 l/m 6,7 km/h (2 Bft) NO 38 0 min 0,000 mm 0,0 UV-I 48 W/m 3,1 C 4,1 C 9,7 km/h (2 Bft) 100,00 %
29.11.2017 14:56 4,4 C 4,4 C 91 % 1005,1 hPa 0,0 l/m 8,0 km/h (2 Bft) NO 47 0 min 0,000 mm 0,0 UV-I 56 W/m 3,1 C 3,0 C 11,3 km/h (2 Bft) 100,00 %
29.11.2017 14:58 4,4 C 4,4 C 91 % 1005,1 hPa 0,0 l/m 8,1 km/h (2 Bft) NO 44 0 min 0,000 mm 0,0 UV-I 63 W/m 3,1 C 2,9 C 11,3 km/h (2 Bft) 100,00 %
29.11.2017 15:00 4,4 C 4,4 C 91 % 1005,1 hPa 0,0 l/m 6,7 km/h (2 Bft) O-NO 57 0 min 0,050 mm 0,0 UV-I 64 W/m 3,1 C 4,1 C 9,7 km/h (2 Bft) 97,87 %
29.11.2017 15:02 4,4 C 4,4 C 90 % 1005,1 hPa 0,0 l/m 6,6 km/h (2 Bft) NO 36 0 min 0,000 mm 0,0 UV-I 62 W/m 2,9 C 4,2 C 8,0 km/h (2 Bft) 98,11 %
29.11.2017 15:04 4,4 C 4,4 C 91 % 1005,0 hPa 0,0 l/m 8,6 km/h (2 Bft) NO 38 0 min 0,000 mm 0,0 UV-I 58 W/m 3,1 C 2,5 C 12,9 km/h (3 Bft) 95,74 %
29.11.2017 15:06 4,4 C 4,4 C 90 % 1005,1 hPa 0,0 l/m 7,6 km/h (2 Bft) NO 46 0 min 0,000 mm 0,0 UV-I 55 W/m 2,9 C 3,3 C 9,7 km/h (2 Bft) 100,00 %
29.11.2017 15:08 4,4 C 4,4 C 90 % 1005,1 hPa 0,0 l/m 7,5 km/h (2 Bft) O-NO 61 0 min 0,000 mm 0,0 UV-I 49 W/m 2,9 C 3,4 C 9,7 km/h (2 Bft) 100,00 %
29.11.2017 15:10 4,3 C 4,4 C 90 % 1005,1 hPa 0,0 l/m 7,8 km/h (2 Bft) O-NO 60 0 min 0,000 mm 0,0 UV-I 39 W/m 2,8 C 3,0 C 9,7 km/h (2 Bft) 95,74 %
29.11.2017 15:12 4,3 C 4,4 C 90 % 1005,1 hPa 0,0 l/m 8,8 km/h (2 Bft) O-NO 60 0 min 0,000 mm 0,0 UV-I 34 W/m 2,8 C 2,2 C 12,9 km/h (3 Bft) 100,00 %
29.11.2017 15:14 4,3 C 4,4 C 90 % 1005,1 hPa 0,0 l/m 6,4 km/h (2 Bft) NO 46 0 min 0,000 mm 0,0 UV-I 28 W/m 2,8 C 4,3 C 9,7 km/h (2 Bft) 100,00 %
29.11.2017 15:16 4,3 C 4,4 C 90 % 1005,1 hPa 0,0 l/m 6,0 km/h (2 Bft) NO 51 0 min 0,000 mm 0,0 UV-I 25 W/m 2,8 C 4,3 C 9,7 km/h (2 Bft) 100,00 %
29.11.2017 15:18 4,3 C 4,4 C 91 % 1005,2 hPa 0,0 l/m 7,3 km/h (2 Bft) O-NO 74 0 min 0,000 mm 0,0 UV-I 25 W/m 3,0 C 3,5 C 9,7 km/h (2 Bft) 100,00 %
29.11.2017 15:20 4,3 C 4,4 C 91 % 1005,2 hPa 0,0 l/m 5,9 km/h (2 Bft) O-NO 61 0 min 0,000 mm 0,0 UV-I 21 W/m 3,0 C 4,3 C 8,0 km/h (2 Bft) 100,00 %
29.11.2017 15:22 4,3 C 4,4 C 91 % 1005,2 hPa 0,0 l/m 5,6 km/h (1 Bft) NO 51 0 min 0,000 mm 0,0 UV-I 19 W/m 3,0 C 4,3 C 8,0 km/h (2 Bft) 97,87 %
29.11.2017 15:24 4,3 C 4,4 C 91 % 1005,3 hPa 0,0 l/m 6,3 km/h (2 Bft) O-NO 71 0 min 0,000 mm 0,0 UV-I 19 W/m 3,0 C 4,3 C 9,7 km/h (2 Bft) 93,62 %
29.11.2017 15:26 4,2 C 4,4 C 91 % 1005,4 hPa 0,0 l/m 4,5 km/h (1 Bft) O-NO 65 0 min 0,000 mm 0,0 UV-I 20 W/m 2,9 C 4,2 C 8,0 km/h (2 Bft) 100,00 %
29.11.2017 15:28 4,2 C 4,4 C 91 % 1005,4 hPa 0,0 l/m 5,1 km/h (1 Bft) O-NO 67 0 min 0,000 mm 0,0 UV-I 23 W/m 2,9 C 4,2 C 8,0 km/h (2 Bft) 97,87 %
29.11.2017 15:30 4,2 C 4,4 C 91 % 1005,4 hPa 0,0 l/m 5,9 km/h (2 Bft) O-NO 76 0 min 0,000 mm 0,0 UV-I 25 W/m 2,9 C 4,2 C 8,0 km/h (2 Bft) 100,00 %
29.11.2017 15:32 4,2 C 4,4 C 92 % 1005,4 hPa 0,0 l/m 6,1 km/h (2 Bft) O-NO 74 0 min 0,000 mm 0,0 UV-I 23 W/m 3,0 C 4,2 C 8,0 km/h (2 Bft) 100,00 %
29.11.2017 15:34 4,2 C 4,4 C 91 % 1005,4 hPa 0,0 l/m 5,5 km/h (1 Bft) O 91 0 min 0,000 mm 0,0 UV-I 20 W/m 2,9 C 4,2 C 8,0 km/h (2 Bft) 100,00 %
29.11.2017 15:36 4,2 C 4,4 C 92 % 1005,4 hPa 0,0 l/m 4,8 km/h (1 Bft) O 91 0 min 0,000 mm 0,0 UV-I 18 W/m 3,0 C 4,2 C 6,4 km/h (2 Bft) 100,00 %
29.11.2017 15:38 4,1 C 4,4 C 92 % 1005,4 hPa 0,0 l/m 4,3 km/h (1 Bft) O-SO 113 0 min 0,000 mm 0,0 UV-I 18 W/m 2,9 C 4,1 C 6,4 km/h (2 Bft) 98,00 %
29.11.2017 15:40 4,1 C 4,4 C 92 % 1005,3 hPa 0,0 l/m 5,2 km/h (1 Bft) O-SO 105 0 min 0,000 mm 0,0 UV-I 18 W/m 2,9 C 4,1 C 9,7 km/h (2 Bft) 97,87 %
29.11.2017 15:42 4,1 C 4,4 C 92 % 1005,3 hPa 0,0 l/m 7,9 km/h (2 Bft) O 93 0 min 0,000 mm 0,0 UV-I 17 W/m 2,9 C 2,7 C 12,9 km/h (3 Bft) 100,00 %
29.11.2017 15:44 4,1 C 4,4 C 92 % 1005,3 hPa 0,0 l/m 5,2 km/h (1 Bft) O-NO 72 0 min 0,000 mm 0,0 UV-I 15 W/m 2,9 C 4,1 C 6,4 km/h (2 Bft) 100,00 %
29.11.2017 15:46 4,1 C 4,4 C 92 % 1005,4 hPa 0,0 l/m 4,8 km/h (1 Bft) O-NO 69 0 min 0,000 mm 0,0 UV-I 14 W/m 2,9 C 4,1 C 6,4 km/h (2 Bft) 97,87 %
29.11.2017 15:48 4,1 C 4,4 C 92 % 1005,4 hPa 0,0 l/m 6,6 km/h (2 Bft) O-NO 71 0 min 0,000 mm 0,0 UV-I 12 W/m 2,9 C 3,9 C 11,3 km/h (2 Bft) 100,00 %
29.11.2017 15:50 4,1 C 4,4 C 92 % 1005,4 hPa 0,0 l/m 6,0 km/h (2 Bft) O-NO 71 0 min 0,000 mm 0,0 UV-I 12 W/m 2,9 C 4,1 C 8,0 km/h (2 Bft) 97,87 %
29.11.2017 15:52 4,1 C 4,4 C 92 % 1005,4 hPa 0,0 l/m 3,9 km/h (1 Bft) O-NO 71 0 min 0,000 mm 0,0 UV-I 11 W/m 2,9 C 4,1 C 8,0 km/h (2 Bft) 97,37 %
29.11.2017 15:54 4,1 C 4,4 C 92 % 1005,3 hPa 0,0 l/m 5,5 km/h (1 Bft) O-NO 67 0 min 0,000 mm 0,0 UV-I 11 W/m 2,9 C 4,1 C 8,0 km/h (2 Bft) 97,87 %
29.11.2017 15:56 4,0 C 4,4 C 92 % 1005,2 hPa 0,0 l/m 5,5 km/h (1 Bft) O-NO 69 0 min 0,000 mm 0,0 UV-I 10 W/m 2,8 C 4,0 C 8,0 km/h (2 Bft) 100,00 %
29.11.2017 15:58 4,0 C 4,4 C 92 % 1005,2 hPa 0,0 l/m 5,8 km/h (2 Bft) O-NO 68 0 min 0,000 mm 0,0 UV-I 9 W/m 2,8 C 4,0 C 9,7 km/h (2 Bft) 97,87 %
29.11.2017 16:00 4,0 C 4,4 C 92 % 1005,2 hPa 0,0 l/m 6,4 km/h (2 Bft) O-NO 78 0 min 0,026 mm 0,0 UV-I 8 W/m 2,8 C 4,0 C 9,7 km/h (2 Bft) 98,11 %
29.11.2017 16:02 3,9 C 4,4 C 92 % 1005,1 hPa 0,0 l/m 5,3 km/h (1 Bft) O-NO 63 0 min 0,000 mm 0,0 UV-I 7 W/m 2,7 C 3,9 C 8,0 km/h (2 Bft) 98,00 %
29.11.2017 16:04 3,9 C 4,4 C 92 % 1005,1 hPa 0,0 l/m 6,0 km/h (2 Bft) NO 51 0 min 0,000 mm 0,0 UV-I 7 W/m 2,7 C 3,9 C 9,7 km/h (2 Bft) 97,87 %
29.11.2017 16:06 3,9 C 4,4 C 92 % 1005,0 hPa 0,0 l/m 6,5 km/h (2 Bft) NO 55 0 min 0,000 mm 0,0 UV-I 6 W/m 2,7 C 3,8 C 9,7 km/h (2 Bft) 97,87 %
29.11.2017 16:08 3,9 C 4,4 C 92 % 1005,0 hPa 0,0 l/m 7,4 km/h (2 Bft) O-NO 61 0 min 0,000 mm 0,0 UV-I 5 W/m 2,7 C 3,0 C 12,9 km/h (3 Bft) 95,74 %
29.11.2017 16:10 3,9 C 4,4 C 92 % 1004,9 hPa 0,0 l/m 6,9 km/h (2 Bft) O-NO 74 0 min 0,000 mm 0,0 UV-I 5 W/m 2,7 C 3,4 C 11,3 km/h (2 Bft) 97,87 %
29.11.2017 16:12 3,9 C 4,4 C 91 % 1004,9 hPa 0,0 l/m 6,1 km/h (2 Bft) NO 52 0 min 0,000 mm 0,0 UV-I 5 W/m 2,6 C 3,9 C 11,3 km/h (2 Bft) 97,87 %
29.11.2017 16:14 3,9 C 4,4 C 91 % 1004,9 hPa 0,0 l/m 6,8 km/h (2 Bft) O-NO 74 0 min 0,000 mm 0,0 UV-I 5 W/m 2,6 C 3,5 C 9,7 km/h (2 Bft) 97,87 %
29.11.2017 16:16 3,9 C 4,4 C 91 % 1004,8 hPa 0,0 l/m 6,5 km/h (2 Bft) O-NO 68 0 min 0,000 mm 0,0 UV-I 5 W/m 2,6 C 3,8 C 8,0 km/h (2 Bft) 97,22 %
29.11.2017 16:18 3,9 C 4,4 C 92 % 1004,8 hPa 0,0 l/m 6,7 km/h (2 Bft) O-NO 63 0 min 0,000 mm 0,0 UV-I 5 W/m 2,7 C 3,6 C 9,7 km/h (2 Bft) 95,74 %
29.11.2017 16:20 3,9 C 4,4 C 92 % 1004,8 hPa 0,0 l/m 7,8 km/h (2 Bft) O-NO 59 0 min 0,000 mm 0,0 UV-I 5 W/m 2,7 C 2,6 C 9,7 km/h (2 Bft) 98,00 %
29.11.2017 16:22 3,9 C 4,4 C 92 % 1004,8 hPa 0,0 l/m 7,3 km/h (2 Bft) O-NO 57 0 min 0,000 mm 0,0 UV-I 5 W/m 2,7 C 3,1 C 12,9 km/h (3 Bft) 93,62 %
29.11.2017 16:24 3,8 C 4,4 C 92 % 1004,8 hPa 0,0 l/m 6,5 km/h (2 Bft) O-NO 57 0 min 0,000 mm 0,0 UV-I 4 W/m 2,6 C 3,7 C 8,0 km/h (2 Bft) 95,74 %
29.11.2017 16:26 3,8 C 4,4 C 92 % 1004,8 hPa 0,0 l/m 5,8 km/h (2 Bft) O-NO 62 0 min 0,000 mm 0,0 UV-I 0 W/m 2,6 C 3,8 C 8,0 km/h (2 Bft) 97,87 %
29.11.2017 16:28 3,8 C 4,4 C 92 % 1004,8 hPa 0,0 l/m 5,2 km/h (1 Bft) O-NO 59 0 min 0,000 mm 0,0 UV-I 0 W/m 2,6 C 3,8 C 8,0 km/h (2 Bft) 93,62 %
29.11.2017 16:30 3,8 C 4,4 C 92 % 1004,9 hPa 0,0 l/m 5,5 km/h (1 Bft) NO 51 0 min 0,000 mm 0,0 UV-I 0 W/m 2,6 C 3,8 C 8,0 km/h (2 Bft) 95,74 %
29.11.2017 16:32 3,8 C 4,4 C 93 % 1004,9 hPa 0,0 l/m 5,2 km/h (1 Bft) NO 54 0 min 0,000 mm 0,0 UV-I 0 W/m 2,8 C 3,8 C 8,0 km/h (2 Bft) 95,74 %
29.11.2017 16:34 3,8 C 4,4 C 93 % 1004,8 hPa 0,0 l/m 5,9 km/h (2 Bft) O-NO 61 0 min 0,000 mm 0,0 UV-I 0 W/m 2,8 C 3,8 C 8,0 km/h (2 Bft) 93,62 %
29.11.2017 16:36 3,8 C 4,4 C 93 % 1004,8 hPa 0,0 l/m 5,1 km/h (1 Bft) O-NO 65 0 min 0,000 mm 0,0 UV-I 0 W/m 2,8 C 3,8 C 8,0 km/h (2 Bft) 96,23 %
29.11.2017 16:38 3,8 C 4,4 C 93 % 1004,8 hPa 0,0 l/m 6,3 km/h (2 Bft) O-NO 62 0 min 0,000 mm 0,0 UV-I 0 W/m 2,8 C 3,8 C 9,7 km/h (2 Bft) 95,74 %
29.11.2017 16:40 3,8 C 4,4 C 93 % 1004,8 hPa 0,0 l/m 4,8 km/h (1 Bft) O-NO 77 0 min 0,000 mm 0,0 UV-I 0 W/m 2,8 C 3,8 C 6,4 km/h (2 Bft) 97,87 %
29.11.2017 16:42 3,8 C 4,4 C 93 % 1004,8 hPa 0,0 l/m 4,2 km/h (1 Bft) O 86 0 min 0,000 mm 0,0 UV-I 0 W/m 2,8 C 3,8 C 6,4 km/h (2 Bft) 97,30 %
29.11.2017 16:44 3,7 C 4,4 C 93 % 1004,9 hPa 0,0 l/m 6,0 km/h (2 Bft) O 88 0 min 0,000 mm 0,0 UV-I 0 W/m 2,7 C 3,7 C 11,3 km/h (2 Bft) 100,00 %
29.11.2017 16:46 3,7 C 4,4 C 93 % 1004,8 hPa 0,0 l/m 4,5 km/h (1 Bft) O 82 0 min 0,000 mm 0,0 UV-I 0 W/m 2,7 C 3,7 C 6,4 km/h (2 Bft) 100,00 %
29.11.2017 16:48 3,7 C 4,4 C 93 % 1004,8 hPa 0,0 l/m 3,4 km/h (1 Bft) O-NO 59 0 min 0,000 mm 0,0 UV-I 0 W/m 2,7 C 3,7 C 8,0 km/h (2 Bft) 100,00 %
29.11.2017 16:50 3,7 C 4,4 C 93 % 1004,9 hPa 0,0 l/m 4,2 km/h (1 Bft) O-NO 72 0 min 0,000 mm 0,0 UV-I 0 W/m 2,7 C 3,7 C 6,4 km/h (2 Bft) 100,00 %
29.11.2017 16:52 3,7 C 4,4 C 93 % 1004,8 hPa 0,0 l/m 3,8 km/h (1 Bft) O-NO 72 0 min 0,000 mm 0,0 UV-I 0 W/m 2,7 C 3,7 C 4,8 km/h (1 Bft) 95,74 %
29.11.2017 16:54 3,7 C 4,4 C 93 % 1004,9 hPa 0,0 l/m 3,7 km/h (1 Bft) O-NO 71 0 min 0,000 mm 0,0 UV-I 0 W/m 2,7 C 3,7 C 6,4 km/h (2 Bft) 95,74 %
29.11.2017 16:56 3,7 C 4,4 C 93 % 1004,9 hPa 0,0 l/m 3,8 km/h (1 Bft) O-NO 71 0 min 0,000 mm 0,0 UV-I 0 W/m 2,7 C 3,7 C 6,4 km/h (2 Bft) 98,00 %
29.11.2017 16:58 3,7 C 4,4 C 93 % 1004,9 hPa 0,0 l/m 3,6 km/h (1 Bft) O-NO 71 0 min 0,000 mm 0,0 UV-I 0 W/m 2,7 C 3,7 C 4,8 km/h (1 Bft) 100,00 %
29.11.2017 17:00 3,7 C 4,4 C 93 % 1004,9 hPa 0,0 l/m 4,1 km/h (1 Bft) O-NO 71 0 min 0,000 mm 0,0 UV-I 0 W/m 2,7 C 3,7 C 4,8 km/h (1 Bft) 97,87 %
29.11.2017 17:02 3,7 C 4,4 C 93 % 1004,9 hPa 0,0 l/m 2,8 km/h (1 Bft) O-NO 71 0 min 0,000 mm 0,0 UV-I 0 W/m 2,7 C 3,7 C 4,8 km/h (1 Bft) 100,00 %
29.11.2017 17:04 3,7 C 4,4 C 93 % 1005,0 hPa 0,0 l/m 2,1 km/h (1 Bft) O-NO 71 0 min 0,000 mm 0,0 UV-I 0 W/m 2,7 C 3,7 C 3,2 km/h (1 Bft) 97,87 %
29.11.2017 17:06 3,7 C 4,4 C 93 % 1005,0 hPa 0,0 l/m 1,7 km/h (1 Bft) O-NO 71 0 min 0,000 mm 0,0 UV-I 0 W/m 2,7 C 3,7 C 3,2 km/h (1 Bft) 100,00 %
29.11.2017 17:08 3,7 C 4,4 C 93 % 1005,1 hPa 0,0 l/m 2,0 km/h (1 Bft) O-NO 71 0 min 0,000 mm 0,0 UV-I 0 W/m 2,7 C 3,7 C 3,2 km/h (1 Bft) 100,00 %
29.11.2017 17:10 3,7 C 4,4 C 94 % 1005,0 hPa 0,0 l/m 2,0 km/h (1 Bft) O-NO 71 0 min 0,000 mm 0,0 UV-I 0 W/m 2,8 C 3,7 C 3,2 km/h (1 Bft) 97,96 %
29.11.2017 17:12 3,7 C 4,4 C 94 % 1005,1 hPa 0,0 l/m 1,3 km/h (1 Bft) O-NO 71 0 min 0,000 mm 0,0 UV-I 0 W/m 2,8 C 3,7 C 3,2 km/h (1 Bft) 100,00 %
29.11.2017 17:14 3,7 C 4,4 C 94 % 1005,1 hPa 0,0 l/m 1,5 km/h (1 Bft) O-NO 71 0 min 0,000 mm 0,0 UV-I 0 W/m 2,8 C 3,7 C 3,2 km/h (1 Bft) 97,87 %
29.11.2017 17:16 3,7 C 4,4 C 93 % 1005,1 hPa 0,0 l/m 2,6 km/h (1 Bft) O-NO 71 0 min 0,000 mm 0,0 UV-I 0 W/m 2,7 C 3,7 C 4,8 km/h (1 Bft) 100,00 %
29.11.2017 17:18 3,7 C 4,4 C 94 % 1005,0 hPa 0,0 l/m 0,6 km/h (0 Bft) O-NO 71 0 min 0,000 mm 0,0 UV-I 0 W/m 2,8 C 3,7 C 3,2 km/h (1 Bft) 100,00 %
29.11.2017 17:20 3,6 C 4,4 C 94 % 1005,1 hPa 0,0 l/m 0,5 km/h (0 Bft) O-NO 71 0 min 0,000 mm 0,0 UV-I 0 W/m 2,7 C 3,6 C 1,6 km/h (1 Bft) 100,00 %
29.11.2017 17:22 3,6 C 4,4 C 94 % 1005,1 hPa 0,0 l/m 0,0 km/h (0 Bft) O-NO 71 0 min 0,000 mm 0,0 UV-I 0 W/m 2,7 C 3,6 C 0,0 km/h (0 Bft) 100,00 %
29.11.2017 17:24 3,6 C 4,4 C 94 % 1005,0 hPa 0,0 l/m 0,0 km/h (0 Bft) O-NO 71 0 min 0,000 mm 0,0 UV-I 0 W/m 2,7 C 3,6 C 0,0 km/h (0 Bft) 100,00 %
29.11.2017 17:26 3,6 C 4,4 C 94 % 1005,0 hPa 0,0 l/m 0,0 km/h (0 Bft) O-NO 71 0 min 0,000 mm 0,0 UV-I 0 W/m 2,7 C 3,6 C 0,0 km/h (0 Bft) 97,87 %
29.11.2017 17:28 3,7 C 4,4 C 94 % 1004,9 hPa 0,0 l/m 0,0 km/h (0 Bft) O-NO 71 0 min 0,000 mm 0,0 UV-I 0 W/m 2,8 C 3,7 C 0,0 km/h (0 Bft) 100,00 %
29.11.2017 17:30 3,7 C 4,4 C 93 % 1004,9 hPa 0,0 l/m 0,0 km/h (0 Bft) O-NO 71 0 min 0,000 mm 0,0 UV-I 0 W/m 2,7 C 3,7 C 0,0 km/h (0 Bft) 96,00 %
29.11.2017 17:32 3,6 C 4,4 C 94 % 1004,9 hPa 0,0 l/m 0,9 km/h (0 Bft) O-NO 71 0 min 0,000 mm 0,0 UV-I 0 W/m 2,7 C 3,6 C 3,2 km/h (1 Bft) 95,74 %
29.11.2017 17:34 3,6 C 4,4 C 94 % 1004,8 hPa 0,0 l/m 2,3 km/h (1 Bft) O-NO 71 0 min 0,000 mm 0,0 UV-I 0 W/m 2,7 C 3,6 C 3,2 km/h (1 Bft) 97,87 %
29.11.2017 17:36 3,6 C 4,4 C 94 % 1004,8 hPa 0,0 l/m 1,3 km/h (1 Bft) O-NO 71 0 min 0,000 mm 0,0 UV-I 0 W/m 2,7 C 3,6 C 3,2 km/h (1 Bft) 97,87 %
29.11.2017 17:38 3,6 C 4,4 C 94 % 1004,8 hPa 0,0 l/m 2,2 km/h (1 Bft) O-NO 71 0 min 0,000 mm 0,0 UV-I 0 W/m 2,7 C 3,6 C 4,8 km/h (1 Bft) 94,00 %
29.11.2017 17:40 3,6 C 4,4 C 94 % 1004,8 hPa 0,0 l/m 1,4 km/h (1 Bft) O-NO 71 0 min 0,000 mm 0,0 UV-I 0 W/m 2,7 C 3,6 C 3,2 km/h (1 Bft) 95,74 %
29.11.2017 17:42 3,6 C 4,4 C 94 % 1004,8 hPa 0,0 l/m 1,9 km/h (1 Bft) O-NO 71 0 min 0,000 mm 0,0 UV-I 0 W/m 2,7 C 3,6 C 3,2 km/h (1 Bft) 98,00 %
29.11.2017 17:44 3,6 C 4,4 C 94 % 1004,8 hPa 0,0 l/m 0,3 km/h (0 Bft) O-NO 71 0 min 0,000 mm 0,0 UV-I 0 W/m 2,7 C 3,6 C 1,6 km/h (1 Bft) 97,87 %
29.11.2017 17:46 3,6 C 4,4 C 94 % 1004,8 hPa 0,0 l/m 0,0 km/h (0 Bft) O-NO 71 0 min 0,000 mm 0,0 UV-I 0 W/m 2,7 C 3,6 C 1,6 km/h (1 Bft) 95,74 %
29.11.2017 17:48 3,6 C 4,4 C 94 % 1004,8 hPa 0,0 l/m 0,0 km/h (0 Bft) O-NO 71 0 min 0,000 mm 0,0 UV-I 0 W/m 2,7 C 3,6 C 1,6 km/h (1 Bft) 94,74 %
29.11.2017 17:50 3,5 C 4,4 C 94 % 1004,7 hPa 0,0 l/m 0,0 km/h (0 Bft) O-NO 71 0 min 0,000 mm 0,0 UV-I 0 W/m 2,6 C 3,5 C 0,0 km/h (0 Bft) 95,74 %
29.11.2017 17:52 3,6 C 4,4 C 94 % 1004,8 hPa 0,0 l/m 0,0 km/h (0 Bft) O-NO 71 0 min 0,000 mm 0,0 UV-I 0 W/m 2,7 C 3,6 C 0,0 km/h (0 Bft) 97,87 %
29.11.2017 17:54 3,5 C 4,4 C 94 % 1004,8 hPa 0,0 l/m 0,0 km/h (0 Bft) O-NO 71 0 min 0,000 mm 0,0 UV-I 0 W/m 2,6 C 3,5 C 0,0 km/h (0 Bft) 95,74 %
29.11.2017 17:56 3,5 C 4,4 C 94 % 1004,9 hPa 0,0 l/m 1,0 km/h (0 Bft) O-NO 71 0 min 0,000 mm 0,0 UV-I 0 W/m 2,6 C 3,5 C 3,2 km/h (1 Bft) 95,83 %
29.11.2017 17:58 3,4 C 4,4 C 94 % 1004,9 hPa 0,0 l/m 1,2 km/h (1 Bft) O-NO 71 0 min 0,000 mm 0,0 UV-I 0 W/m 2,5 C 3,4 C 3,2 km/h (1 Bft) 94,34 %
29.11.2017 18:00 3,3 C 4,4 C 94 % 1004,9 hPa 0,0 l/m 1,4 km/h (1 Bft) O-NO 71 0 min 0,000 mm 0,0 UV-I 0 W/m 2,4 C 3,3 C 1,6 km/h (1 Bft) 96,00 %
29.11.2017 18:02 3,3 C 4,4 C 95 % 1004,9 hPa 0,0 l/m 1,4 km/h (1 Bft) O-NO 71 0 min 0,000 mm 0,0 UV-I 0 W/m 2,6 C 3,3 C 1,6 km/h (1 Bft) 94,29 %
29.11.2017 18:04 3,3 C 4,4 C 95 % 1004,9 hPa 0,0 l/m 0,4 km/h (0 Bft) O-NO 71 0 min 0,000 mm 0,0 UV-I 0 W/m 2,6 C 3,3 C 1,6 km/h (1 Bft) 97,92 %
29.11.2017 18:06 3,3 C 4,4 C 95 % 1004,9 hPa 0,0 l/m 0,1 km/h (0 Bft) O-NO 71 0 min 0,000 mm 0,0 UV-I 0 W/m 2,6 C 3,3 C 1,6 km/h (1 Bft) 97,96 %
29.11.2017 18:08 3,3 C 4,4 C 95 % 1004,9 hPa 0,0 l/m 0,0 km/h (0 Bft) O-NO 71 0 min 0,000 mm 0,0 UV-I 0 W/m 2,6 C 3,3 C 0,0 km/h (0 Bft) 93,75 %
29.11.2017 18:10 3,3 C 4,4 C 95 % 1005,0 hPa 0,0 l/m 0,0 km/h (0 Bft) O-NO 71 0 min 0,000 mm 0,0 UV-I 0 W/m 2,6 C 3,3 C 0,0 km/h (0 Bft) 96,00 %
29.11.2017 18:12 3,4 C 4,4 C 95 % 1005,1 hPa 0,0 l/m 0,0 km/h (0 Bft) O-NO 71 0 min 0,000 mm 0,0 UV-I 0 W/m 2,7 C 3,4 C 0,0 km/h (0 Bft) 93,62 %
29.11.2017 18:14 3,4 C 4,4 C 95 % 1005,0 hPa 0,0 l/m 0,0 km/h (0 Bft) O-NO 71 0 min 0,000 mm 0,0 UV-I 0 W/m 2,7 C 3,4 C 0,0 km/h (0 Bft) 95,74 %
29.11.2017 18:16 3,5 C 4,4 C 95 % 1005,0 hPa 0,0 l/m 0,3 km/h (0 Bft) O-NO 71 0 min 0,000 mm 0,0 UV-I 0 W/m 2,8 C 3,5 C 1,6 km/h (1 Bft) 95,74 %
29.11.2017 18:18 3,5 C 4,4 C 95 % 1005,0 hPa 0,0 l/m 0,0 km/h (0 Bft) O-NO 71 0 min 0,000 mm 0,0 UV-I 0 W/m 2,8 C 3,5 C 1,6 km/h (1 Bft) 95,74 %
29.11.2017 18:20 3,6 C 4,4 C 95 % 1004,9 hPa 0,0 l/m 0,4 km/h (0 Bft) O-NO 71 0 min 0,000 mm 0,0 UV-I 0 W/m 2,9 C 3,6 C 1,6 km/h (1 Bft) 91,49 %
29.11.2017 18:22 3,6 C 4,4 C 94 % 1004,9 hPa 0,0 l/m 0,5 km/h (0 Bft) O-NO 71 0 min 0,000 mm 0,0 UV-I 0 W/m 2,7 C 3,6 C 3,2 km/h (1 Bft) 98,00 %
29.11.2017 18:24 3,6 C 4,4 C 94 % 1004,9 hPa 0,0 l/m 0,3 km/h (0 Bft) O-NO 71 0 min 0,000 mm 0,0 UV-I 0 W/m 2,7 C 3,6 C 1,6 km/h (1 Bft) 91,43 %
29.11.2017 18:26 3,6 C 4,4 C 95 % 1004,9 hPa 0,0 l/m 0,0 km/h (0 Bft) O-NO 71 0 min 0,000 mm 0,0 UV-I 0 W/m 2,9 C 3,6 C 0,0 km/h (0 Bft) 96,00 %
29.11.2017 18:28 3,5 C 4,4 C 95 % 1004,9 hPa 0,0 l/m 0,0 km/h (0 Bft) O-NO 71 0 min 0,000 mm 0,0 UV-I 0 W/m 2,8 C 3,5 C 0,0 km/h (0 Bft) 96,00 %
29.11.2017 18:30 3,4 C 4,4 C 95 % 1004,9 hPa 0,0 l/m 0,0 km/h (0 Bft) O-NO 71 0 min 0,000 mm 0,0 UV-I 0 W/m 2,7 C 3,4 C 0,0 km/h (0 Bft) 97,87 %
29.11.2017 18:32 3,4 C 4,4 C 95 % 1004,9 hPa 0,0 l/m 0,0 km/h (0 Bft) O-NO 71 0 min 0,000 mm 0,0 UV-I 0 W/m 2,7 C 3,4 C 0,0 km/h (0 Bft) 98,00 %
29.11.2017 18:34 3,4 C 4,4 C 95 % 1004,8 hPa 0,0 l/m 0,5 km/h (0 Bft) O-NO 71 0 min 0,000 mm 0,0 UV-I 0 W/m 2,7 C 3,4 C 3,2 km/h (1 Bft) 97,37 %
29.11.2017 18:36 3,4 C 4,4 C 95 % 1004,8 hPa 0,0 l/m 0,2 km/h (0 Bft) O-NO 71 0 min 0,000 mm 0,0 UV-I 0 W/m 2,7 C 3,4 C 3,2 km/h (1 Bft) 97,87 %
29.11.2017 18:38 3,4 C 4,4 C 95 % 1004,7 hPa 0,0 l/m 0,0 km/h (0 Bft) O-NO 71 0 min 0,000 mm 0,0 UV-I 0 W/m 2,7 C 3,4 C 0,0 km/h (0 Bft) 96,00 %
29.11.2017 18:40 3,4 C 4,4 C 95 % 1004,8 hPa 0,0 l/m 0,0 km/h (0 Bft) O-NO 71 0 min 0,000 mm 0,0 UV-I 0 W/m 2,7 C 3,4 C 1,6 km/h (1 Bft) 93,62 %
29.11.2017 18:42 3,4 C 4,4 C 95 % 1004,8 hPa 0,0 l/m 0,0 km/h (0 Bft) O-NO 71 0 min 0,000 mm 0,0 UV-I 0 W/m 2,7 C 3,4 C 1,6 km/h (1 Bft) 97,87 %
29.11.2017 18:44 3,4 C 4,4 C 95 % 1004,7 hPa 0,0 l/m 0,0 km/h (0 Bft) O-NO 71 0 min 0,000 mm 0,0 UV-I 0 W/m 2,7 C 3,4 C 1,6 km/h (1 Bft) 97,87 %
29.11.2017 18:46 3,4 C 4,4 C 95 % 1004,7 hPa 0,0 l/m 0,0 km/h (0 Bft) O-NO 71 0 min 0,000 mm 0,0 UV-I 0 W/m 2,7 C 3,4 C 0,0 km/h (0 Bft) 97,87 %
29.11.2017 18:48 3,4 C 4,4 C 95 % 1004,7 hPa 0,0 l/m 0,1 km/h (0 Bft) O-NO 71 0 min 0,000 mm 0,0 UV-I 0 W/m 2,7 C 3,4 C 1,6 km/h (1 Bft) 97,92 %
29.11.2017 18:50 3,3 C 4,4 C 95 % 1004,7 hPa 0,0 l/m 0,3 km/h (0 Bft) O-NO 71 0 min 0,000 mm 0,0 UV-I 0 W/m 2,6 C 3,3 C 1,6 km/h (1 Bft) 98,00 %
29.11.2017 18:52 3,3 C 4,4 C 95 % 1004,7 hPa 0,0 l/m 0,2 km/h (0 Bft) O-NO 71 0 min 0,000 mm 0,0 UV-I 0 W/m 2,6 C 3,3 C 1,6 km/h (1 Bft) 97,87 %
29.11.2017 18:54 3,3 C 4,4 C 95 % 1004,7 hPa 0,0 l/m 0,2 km/h (0 Bft) O-NO 71 0 min 0,000 mm 0,0 UV-I 0 W/m 2,6 C 3,3 C 1,6 km/h (1 Bft) 97,37 %
29.11.2017 18:56 3,3 C 4,4 C 95 % 1004,6 hPa 0,0 l/m 0,2 km/h (0 Bft) O-NO 71 0 min 0,000 mm 0,0 UV-I 0 W/m 2,6 C 3,3 C 1,6 km/h (1 Bft) 100,00 %
29.11.2017 18:58 3,3 C 4,4 C 96 % 1004,6 hPa 0,2 l/m 0,1 km/h (0 Bft) O-NO 71 0 min 0,000 mm 0,0 UV-I 0 W/m 2,7 C 3,3 C 1,6 km/h (1 Bft) 97,87 %
29.11.2017 19:00 3,3 C 4,4 C 96 % 1004,6 hPa 0,0 l/m 0,0 km/h (0 Bft) O-NO 71 0 min 0,000 mm 0,0 UV-I 0 W/m 2,7 C 3,3 C 1,6 km/h (1 Bft) 100,00 %
29.11.2017 19:02 3,3 C 4,4 C 96 % 1004,6 hPa 0,0 l/m 0,5 km/h (0 Bft) O-NO 71 0 min 0,000 mm 0,0 UV-I 0 W/m 2,7 C 3,3 C 1,6 km/h (1 Bft) 100,00 %
29.11.2017 19:04 3,3 C 4,4 C 96 % 1004,6 hPa 0,0 l/m 0,8 km/h (0 Bft) O-NO 71 0 min 0,000 mm 0,0 UV-I 0 W/m 2,7 C 3,3 C 3,2 km/h (1 Bft) 100,00 %
29.11.2017 19:06 3,3 C 4,4 C 96 % 1004,6 hPa 0,0 l/m 0,5 km/h (0 Bft) O-NO 71 0 min 0,000 mm 0,0 UV-I 0 W/m 2,7 C 3,3 C 3,2 km/h (1 Bft) 100,00 %
29.11.2017 19:08 3,3 C 4,4 C 96 % 1004,6 hPa 0,0 l/m 0,1 km/h (0 Bft) O-NO 71 0 min 0,000 mm 0,0 UV-I 0 W/m 2,7 C 3,3 C 1,6 km/h (1 Bft) 100,00 %
29.11.2017 19:10 3,3 C 4,4 C 96 % 1004,6 hPa 0,0 l/m 0,2 km/h (0 Bft) O-NO 71 0 min 0,000 mm 0,0 UV-I 0 W/m 2,7 C 3,3 C 1,6 km/h (1 Bft) 97,87 %
29.11.2017 19:12 3,3 C 4,4 C 96 % 1004,6 hPa 0,0 l/m 0,1 km/h (0 Bft) O-NO 71 0 min 0,000 mm 0,0 UV-I 0 W/m 2,7 C 3,3 C 1,6 km/h (1 Bft) 98,00 %
29.11.2017 19:14 3,3 C 4,4 C 96 % 1004,6 hPa 0,0 l/m 0,9 km/h (0 Bft) O-NO 65 0 min 0,000 mm 0,0 UV-I 0 W/m 2,7 C 3,3 C 3,2 km/h (1 Bft) 98,00 %
29.11.2017 19:16 3,3 C 4,4 C 96 % 1004,6 hPa 0,0 l/m 0,4 km/h (0 Bft) O-NO 63 0 min 0,000 mm 0,0 UV-I 0 W/m 2,7 C 3,3 C 1,6 km/h (1 Bft) 100,00 %
29.11.2017 19:18 3,3 C 4,4 C 96 % 1004,5 hPa 0,0 l/m 0,8 km/h (0 Bft) NO 49 0 min 0,000 mm 0,0 UV-I 0 W/m 2,7 C 3,3 C 3,2 km/h (1 Bft) 100,00 %
29.11.2017 19:20 3,3 C 4,4 C 96 % 1004,6 hPa 0,0 l/m 2,2 km/h (1 Bft) NO 35 0 min 0,000 mm 0,0 UV-I 0 W/m 2,7 C 3,3 C 4,8 km/h (1 Bft) 100,00 %
29.11.2017 19:22 3,3 C 4,4 C 96 % 1004,6 hPa 0,0 l/m 2,8 km/h (1 Bft) N-NO 33 0 min 0,000 mm 0,0 UV-I 0 W/m 2,7 C 3,3 C 6,4 km/h (2 Bft) 100,00 %
29.11.2017 19:24 3,3 C 4,4 C 96 % 1004,6 hPa 0,0 l/m 3,0 km/h (1 Bft) N-NO 33 0 min 0,000 mm 0,0 UV-I 0 W/m 2,7 C 3,3 C 6,4 km/h (2 Bft) 97,92 %
29.11.2017 19:26 3,3 C 4,4 C 96 % 1004,6 hPa 0,0 l/m 1,9 km/h (1 Bft) N-NO 33 0 min 0,000 mm 0,0 UV-I 0 W/m 2,7 C 3,3 C 4,8 km/h (1 Bft) 97,87 %
29.11.2017 19:28 3,3 C 4,4 C 96 % 1004,6 hPa 0,0 l/m 2,0 km/h (1 Bft) N-NO 33 0 min 0,000 mm 0,0 UV-I 0 W/m 2,7 C 3,3 C 4,8 km/h (1 Bft) 100,00 %
29.11.2017 19:30 3,3 C 4,4 C 96 % 1004,6 hPa 0,0 l/m 1,5 km/h (1 Bft) N-NO 33 0 min 0,000 mm 0,0 UV-I 0 W/m 2,7 C 3,3 C 3,2 km/h (1 Bft) 97,87 %
29.11.2017 19:32 3,3 C 4,4 C 96 % 1004,6 hPa 0,0 l/m 1,5 km/h (1 Bft) N-NO 33 0 min 0,000 mm 0,0 UV-I 0 W/m 2,7 C 3,3 C 3,2 km/h (1 Bft) 98,00 %
29.11.2017 19:34 3,3 C 4,4 C 96 % 1004,6 hPa 0,0 l/m 0,4 km/h (0 Bft) N-NO 33 0 min 0,000 mm 0,0 UV-I 0 W/m 2,7 C 3,3 C 1,6 km/h (1 Bft) 97,87 %
29.11.2017 19:36 3,3 C 4,4 C 96 % 1004,6 hPa 0,0 l/m 2,6 km/h (1 Bft) N-NO 33 0 min 0,000 mm 0,0 UV-I 0 W/m 2,7 C 3,3 C 4,8 km/h (1 Bft) 97,87 %
29.11.2017 19:38 3,3 C 4,4 C 96 % 1004,6 hPa 0,0 l/m 3,0 km/h (1 Bft) N-NO 33 0 min 0,000 mm 0,0 UV-I 0 W/m 2,7 C 3,3 C 4,8 km/h (1 Bft) 98,00 %
29.11.2017 19:40 3,2 C 4,4 C 96 % 1004,6 hPa 0,2 l/m 1,9 km/h (1 Bft) N-NO 33 0 min 0,000 mm 0,0 UV-I 0 W/m 2,6 C 3,2 C 3,2 km/h (1 Bft) 100,00 %
29.11.2017 19:42 3,3 C 4,4 C 96 % 1004,6 hPa 0,0 l/m 2,0 km/h (1 Bft) N-NO 33 0 min 0,000 mm 0,0 UV-I 0 W/m 2,7 C 3,3 C 4,8 km/h (1 Bft) 97,87 %
29.11.2017 19:44 3,2 C 4,4 C 96 % 1004,6 hPa 0,0 l/m 3,4 km/h (1 Bft) N-NO 33 0 min 0,000 mm 0,0 UV-I 0 W/m 2,6 C 3,2 C 4,8 km/h (1 Bft) 100,00 %
29.11.2017 19:46 3,3 C 4,4 C 96 % 1004,6 hPa 0,0 l/m 2,8 km/h (1 Bft) N-NO 33 0 min 0,000 mm 0,0 UV-I 0 W/m 2,7 C 3,3 C 4,8 km/h (1 Bft) 97,87 %
29.11.2017 19:48 3,3 C 4,4 C 96 % 1004,5 hPa 0,0 l/m 3,3 km/h (1 Bft) N-NO 33 0 min 0,000 mm 0,0 UV-I 0 W/m 2,7 C 3,3 C 4,8 km/h (1 Bft) 100,00 %
29.11.2017 19:50 3,3 C 4,4 C 96 % 1004,5 hPa 0,0 l/m 4,0 km/h (1 Bft) N-NO 33 0 min 0,000 mm 0,0 UV-I 0 W/m 2,7 C 3,3 C 4,8 km/h (1 Bft) 97,87 %
29.11.2017 19:52 3,3 C 4,4 C 96 % 1004,5 hPa 0,0 l/m 3,5 km/h (1 Bft) N-NO 33 0 min 0,000 mm 0,0 UV-I 0 W/m 2,7 C 3,3 C 6,4 km/h (2 Bft) 97,87 %
29.11.2017 19:54 3,2 C 4,4 C 96 % 1004,5 hPa 0,2 l/m 3,3 km/h (1 Bft) N-NO 33 0 min 0,000 mm 0,0 UV-I 0 W/m 2,6 C 3,2 C 6,4 km/h (2 Bft) 100,00 %
29.11.2017 19:56 3,2 C 4,4 C 96 % 1004,5 hPa 0,0 l/m 3,2 km/h (1 Bft) N-NO 33 0 min 0,000 mm 0,0 UV-I 0 W/m 2,6 C 3,2 C 4,8 km/h (1 Bft) 100,00 %
29.11.2017 19:58 3,2 C 4,4 C 96 % 1004,4 hPa 0,0 l/m 3,6 km/h (1 Bft) N-NO 33 0 min 0,000 mm 0,0 UV-I 0 W/m 2,6 C 3,2 C 6,4 km/h (2 Bft) 95,74 %
29.11.2017 20:00 3,2 C 4,4 C 96 % 1004,4 hPa 0,0 l/m 5,4 km/h (1 Bft) NO 36 0 min 0,000 mm 0,0 UV-I 0 W/m 2,6 C 3,2 C 8,0 km/h (2 Bft) 93,62 %
29.11.2017 20:02 3,2 C 4,4 C 96 % 1004,4 hPa 0,0 l/m 3,9 km/h (1 Bft) NO 37 0 min 0,000 mm 0,0 UV-I 0 W/m 2,6 C 3,2 C 6,4 km/h (2 Bft) 100,00 %
29.11.2017 20:04 3,2 C 4,4 C 96 % 1004,4 hPa 0,0 l/m 4,0 km/h (1 Bft) NO 34 0 min 0,000 mm 0,0 UV-I 0 W/m 2,6 C 3,2 C 6,4 km/h (2 Bft) 97,87 %
29.11.2017 20:06 3,2 C 4,4 C 96 % 1004,4 hPa 0,0 l/m 1,8 km/h (1 Bft) NO 34 0 min 0,000 mm 0,0 UV-I 0 W/m 2,6 C 3,2 C 3,2 km/h (1 Bft) 100,00 %
29.11.2017 20:08 3,2 C 4,4 C 96 % 1004,5 hPa 0,0 l/m 1,8 km/h (1 Bft) NO 34 0 min 0,000 mm 0,0 UV-I 0 W/m 2,6 C 3,2 C 3,2 km/h (1 Bft) 100,00 %
29.11.2017 20:10 3,2 C 4,4 C 96 % 1004,5 hPa 0,0 l/m 1,2 km/h (1 Bft) NO 34 0 min 0,000 mm 0,0 UV-I 0 W/m 2,6 C 3,2 C 3,2 km/h (1 Bft) 97,87 %
29.11.2017 20:12 3,2 C 4,4 C 96 % 1004,4 hPa 0,0 l/m 4,1 km/h (1 Bft) N-NO 30 0 min 0,000 mm 0,0 UV-I 0 W/m 2,6 C 3,2 C 8,0 km/h (2 Bft) 93,62 %
29.11.2017 20:14 3,2 C 4,4 C 96 % 1004,4 hPa 0,0 l/m 5,6 km/h (1 Bft) N-NO 29 0 min 0,000 mm 0,0 UV-I 0 W/m 2,6 C 3,2 C 8,0 km/h (2 Bft) 98,00 %
29.11.2017 20:16 3,2 C 4,4 C 96 % 1004,4 hPa 0,0 l/m 4,1 km/h (1 Bft) N-NO 22 0 min 0,000 mm 0,0 UV-I 0 W/m 2,6 C 3,2 C 8,0 km/h (2 Bft) 97,87 %
29.11.2017 20:18 3,2 C 4,4 C 96 % 1004,4 hPa 0,0 l/m 4,2 km/h (1 Bft) N-NO 21 0 min 0,000 mm 0,0 UV-I 0 W/m 2,6 C 3,2 C 6,4 km/h (2 Bft) 97,87 %
29.11.2017 20:20 3,2 C 4,4 C 96 % 1004,5 hPa 0,2 l/m 3,4 km/h (1 Bft) N-NO 21 0 min 0,000 mm 0,0 UV-I 0 W/m 2,6 C 3,2 C 6,4 km/h (2 Bft) 97,37 %
29.11.2017 20:22 3,2 C 4,4 C 96 % 1004,5 hPa 0,0 l/m 3,7 km/h (1 Bft) N-NO 20 0 min 0,000 mm 0,0 UV-I 0 W/m 2,6 C 3,2 C 6,4 km/h (2 Bft) 95,74 %
29.11.2017 20:24 3,2 C 4,4 C 96 % 1004,5 hPa 0,0 l/m 2,9 km/h (1 Bft) N-NO 20 0 min 0,000 mm 0,0 UV-I 0 W/m 2,6 C 3,2 C 6,4 km/h (2 Bft) 95,74 %
29.11.2017 20:26 3,2 C 4,4 C 96 % 1004,5 hPa 0,0 l/m 2,2 km/h (1 Bft) N-NO 15 0 min 0,000 mm 0,0 UV-I 0 W/m 2,6 C 3,2 C 6,4 km/h (2 Bft) 97,87 %
29.11.2017 20:28 3,1 C 4,4 C 96 % 1004,5 hPa 0,0 l/m 3,4 km/h (1 Bft) N-NO 15 0 min 0,000 mm 0,0 UV-I 0 W/m 2,5 C 3,1 C 6,4 km/h (2 Bft) 98,00 %
29.11.2017 20:30 3,1 C 4,4 C 97 % 1004,5 hPa 0,0 l/m 3,0 km/h (1 Bft) N-NO 17 0 min 0,000 mm 0,0 UV-I 0 W/m 2,7 C 3,1 C 6,4 km/h (2 Bft) 97,87 %
29.11.2017 20:32 3,1 C 4,4 C 97 % 1004,4 hPa 0,0 l/m 4,0 km/h (1 Bft) N-NO 30 0 min 0,000 mm 0,0 UV-I 0 W/m 2,7 C 3,1 C 8,0 km/h (2 Bft) 95,74 %
29.11.2017 20:34 3,1 C 4,4 C 97 % 1004,5 hPa 0,0 l/m 4,2 km/h (1 Bft) NO 46 0 min 0,000 mm 0,0 UV-I 0 W/m 2,7 C 3,1 C 6,4 km/h (2 Bft) 97,87 %
29.11.2017 20:36 3,1 C 4,4 C 96 % 1004,5 hPa 0,0 l/m 3,8 km/h (1 Bft) NO 46 0 min 0,000 mm 0,0 UV-I 0 W/m 2,5 C 3,1 C 4,8 km/h (1 Bft) 97,87 %
29.11.2017 20:38 3,1 C 4,4 C 96 % 1004,5 hPa 0,0 l/m 3,2 km/h (1 Bft) NO 46 0 min 0,000 mm 0,0 UV-I 0 W/m 2,5 C 3,1 C 4,8 km/h (1 Bft) 94,00 %
29.11.2017 20:40 3,1 C 4,4 C 96 % 1004,5 hPa 0,0 l/m 3,9 km/h (1 Bft) NO 46 0 min 0,000 mm 0,0 UV-I 0 W/m 2,5 C 3,1 C 4,8 km/h (1 Bft) 100,00 %
29.11.2017 20:42 3,1 C 4,4 C 96 % 1004,5 hPa 0,0 l/m 2,7 km/h (1 Bft) NO 37 0 min 0,000 mm 0,0 UV-I 0 W/m 2,5 C 3,1 C 4,8 km/h (1 Bft) 93,62 %
29.11.2017 20:44 3,0 C 4,4 C 96 % 1004,5 hPa 0,0 l/m 2,4 km/h (1 Bft) NO 37 0 min 0,000 mm 0,0 UV-I 0 W/m 2,4 C 3,0 C 6,4 km/h (2 Bft) 98,00 %
29.11.2017 20:46 3,1 C 4,4 C 96 % 1004,4 hPa 0,0 l/m 2,4 km/h (1 Bft) NO 37 0 min 0,000 mm 0,0 UV-I 0 W/m 2,5 C 3,1 C 4,8 km/h (1 Bft) 97,87 %
29.11.2017 20:48 3,1 C 4,4 C 97 % 1004,4 hPa 0,0 l/m 0,1 km/h (0 Bft) NO 37 0 min 0,000 mm 0,0 UV-I 0 W/m 2,7 C 3,1 C 1,6 km/h (1 Bft) 95,83 %
29.11.2017 20:50 3,0 C 4,4 C 96 % 1004,4 hPa 0,0 l/m 2,0 km/h (1 Bft) NO 37 0 min 0,000 mm 0,0 UV-I 0 W/m 2,4 C 3,0 C 4,8 km/h (1 Bft) 100,00 %
29.11.2017 20:52 3,0 C 4,4 C 97 % 1004,4 hPa 0,0 l/m 2,9 km/h (1 Bft) NO 37 0 min 0,000 mm 0,0 UV-I 0 W/m 2,6 C 3,0 C 6,4 km/h (2 Bft) 97,87 %
29.11.2017 20:54 3,0 C 4,4 C 97 % 1004,4 hPa 0,0 l/m 4,2 km/h (1 Bft) NO 37 0 min 0,000 mm 0,0 UV-I 0 W/m 2,6 C 3,0 C 6,4 km/h (2 Bft) 97,96 %
29.11.2017 20:56 3,0 C 4,4 C 97 % 1004,3 hPa 0,0 l/m 3,3 km/h (1 Bft) NO 37 0 min 0,000 mm 0,0 UV-I 0 W/m 2,6 C 3,0 C 4,8 km/h (1 Bft) 97,87 %
29.11.2017 20:58 2,9 C 4,4 C 97 % 1004,3 hPa 0,0 l/m 3,0 km/h (1 Bft) NO 37 0 min 0,000 mm 0,0 UV-I 0 W/m 2,5 C 2,9 C 6,4 km/h (2 Bft) 97,87 %
29.11.2017 21:00 2,9 C 4,4 C 96 % 1004,3 hPa 0,2 l/m 4,6 km/h (1 Bft) NO 39 0 min 0,000 mm 0,0 UV-I 0 W/m 2,3 C 2,9 C 6,4 km/h (2 Bft) 100,00 %
29.11.2017 21:02 2,9 C 4,4 C 96 % 1004,3 hPa 0,0 l/m 3,5 km/h (1 Bft) NO 39 0 min 0,000 mm 0,0 UV-I 0 W/m 2,3 C 2,9 C 6,4 km/h (2 Bft) 97,96 %
29.11.2017 21:04 2,9 C 4,4 C 96 % 1004,3 hPa 0,0 l/m 4,5 km/h (1 Bft) NO 40 0 min 0,000 mm 0,0 UV-I 0 W/m 2,3 C 2,9 C 6,4 km/h (2 Bft) 97,87 %
29.11.2017 21:06 2,9 C 4,4 C 96 % 1004,3 hPa 0,0 l/m 4,5 km/h (1 Bft) NO 52 0 min 0,000 mm 0,0 UV-I 0 W/m 2,3 C 2,9 C 8,0 km/h (2 Bft) 100,00 %
29.11.2017 21:08 2,9 C 4,4 C 97 % 1004,2 hPa 0,0 l/m 3,6 km/h (1 Bft) NO 52 0 min 0,000 mm 0,0 UV-I 0 W/m 2,5 C 2,9 C 6,4 km/h (2 Bft) 100,00 %
29.11.2017 21:10 2,8 C 4,4 C 97 % 1004,2 hPa 0,0 l/m 4,0 km/h (1 Bft) NO 52 0 min 0,000 mm 0,0 UV-I 0 W/m 2,4 C 2,8 C 4,8 km/h (1 Bft) 95,74 %
29.11.2017 21:12 2,8 C 4,4 C 96 % 1004,3 hPa 0,0 l/m 4,8 km/h (1 Bft) O-NO 62 0 min 0,000 mm 0,0 UV-I 0 W/m 2,2 C 2,8 C 6,4 km/h (2 Bft) 97,87 %
29.11.2017 21:14 2,8 C 4,4 C 96 % 1004,3 hPa 0,0 l/m 4,3 km/h (1 Bft) O-NO 62 0 min 0,000 mm 0,0 UV-I 0 W/m 2,2 C 2,8 C 6,4 km/h (2 Bft) 97,87 %
29.11.2017 21:16 2,8 C 4,4 C 96 % 1004,3 hPa 0,0 l/m 2,4 km/h (1 Bft) O-NO 62 0 min 0,000 mm 0,0 UV-I 0 W/m 2,2 C 2,8 C 4,8 km/h (1 Bft) 97,87 %
29.11.2017 21:18 2,8 C 4,4 C 96 % 1004,3 hPa 0,0 l/m 2,1 km/h (1 Bft) O-NO 62 0 min 0,000 mm 0,0 UV-I 0 W/m 2,2 C 2,8 C 3,2 km/h (1 Bft) 95,74 %
29.11.2017 21:20 2,9 C 4,4 C 96 % 1004,3 hPa 0,0 l/m 2,9 km/h (1 Bft) O-NO 62 0 min 0,000 mm 0,0 UV-I 0 W/m 2,3 C 2,9 C 4,8 km/h (1 Bft) 97,87 %
29.11.2017 21:22 2,8 C 4,4 C 96 % 1004,3 hPa 0,0 l/m 2,9 km/h (1 Bft) O-NO 62 0 min 0,000 mm 0,0 UV-I 0 W/m 2,2 C 2,8 C 6,4 km/h (2 Bft) 95,92 %
29.11.2017 21:24 2,8 C 4,4 C 96 % 1004,3 hPa 0,0 l/m 4,8 km/h (1 Bft) O-NO 63 0 min 0,000 mm 0,0 UV-I 0 W/m 2,2 C 2,8 C 6,4 km/h (2 Bft) 97,87 %
29.11.2017 21:26 2,8 C 4,4 C 96 % 1004,3 hPa 0,0 l/m 3,7 km/h (1 Bft) O-NO 63 0 min 0,000 mm 0,0 UV-I 0 W/m 2,2 C 2,8 C 6,4 km/h (2 Bft) 95,74 %
29.11.2017 21:28 2,8 C 4,4 C 96 % 1004,2 hPa 0,0 l/m 2,7 km/h (1 Bft) O-NO 63 0 min 0,000 mm 0,0 UV-I 0 W/m 2,2 C 2,8 C 4,8 km/h (1 Bft) 93,62 %
29.11.2017 21:30 2,8 C 4,4 C 96 % 1004,2 hPa 0,0 l/m 2,5 km/h (1 Bft) O-NO 63 0 min 0,000 mm 0,0 UV-I 0 W/m 2,2 C 2,8 C 4,8 km/h (1 Bft) 95,74 %
29.11.2017 21:32 2,8 C 4,4 C 96 % 1004,2 hPa 0,0 l/m 2,8 km/h (1 Bft) O-NO 63 0 min 0,000 mm 0,0 UV-I 0 W/m 2,2 C 2,8 C 4,8 km/h (1 Bft) 91,67 %
29.11.2017 21:34 2,8 C 4,4 C 96 % 1004,3 hPa 0,0 l/m 2,3 km/h (1 Bft) O-NO 63 0 min 0,000 mm 0,0 UV-I 0 W/m 2,2 C 2,8 C 4,8 km/h (1 Bft) 97,87 %
29.11.2017 21:36 2,8 C 4,4 C 96 % 1004,3 hPa 0,0 l/m 1,3 km/h (1 Bft) O-NO 63 0 min 0,000 mm 0,0 UV-I 0 W/m 2,2 C 2,8 C 1,6 km/h (1 Bft) 97,87 %
29.11.2017 21:38 2,8 C 4,4 C 96 % 1004,3 hPa 0,0 l/m 2,0 km/h (1 Bft) O-NO 63 0 min 0,000 mm 0,0 UV-I 0 W/m 2,2 C 2,8 C 3,2 km/h (1 Bft) 97,87 %
29.11.2017 21:40 2,8 C 4,4 C 96 % 1004,3 hPa 0,0 l/m 2,0 km/h (1 Bft) O-NO 63 0 min 0,000 mm 0,0 UV-I 0 W/m 2,2 C 2,8 C 3,2 km/h (1 Bft) 95,74 %
29.11.2017 21:42 2,8 C 4,4 C 96 % 1004,3 hPa 0,2 l/m 1,7 km/h (1 Bft) O-NO 63 0 min 0,000 mm 0,0 UV-I 0 W/m 2,2 C 2,8 C 3,2 km/h (1 Bft) 95,74 %
29.11.2017 21:44 2,8 C 4,4 C 96 % 1004,4 hPa 0,0 l/m 0,6 km/h (0 Bft) O-NO 63 0 min 0,000 mm 0,0 UV-I 0 W/m 2,2 C 2,8 C 1,6 km/h (1 Bft) 95,74 %
29.11.2017 21:46 2,8 C 4,4 C 96 % 1004,3 hPa 0,0 l/m 1,8 km/h (1 Bft) O-NO 63 0 min 0,000 mm 0,0 UV-I 0 W/m 2,2 C 2,8 C 4,8 km/h (1 Bft) 97,87 %
29.11.2017 21:48 2,8 C 4,4 C 96 % 1004,3 hPa 0,0 l/m 1,6 km/h (1 Bft) O-NO 63 0 min 0,000 mm 0,0 UV-I 0 W/m 2,2 C 2,8 C 3,2 km/h (1 Bft) 97,14 %
29.11.2017 21:50 2,7 C 4,4 C 96 % 1004,3 hPa 0,0 l/m 1,4 km/h (1 Bft) O-NO 63 0 min 0,000 mm 0,0 UV-I 0 W/m 2,1 C 2,7 C 3,2 km/h (1 Bft) 95,74 %
29.11.2017 21:52 2,8 C 4,4 C 96 % 1004,2 hPa 0,0 l/m 2,5 km/h (1 Bft) NO 55 0 min 0,000 mm 0,0 UV-I 0 W/m 2,2 C 2,8 C 4,8 km/h (1 Bft) 95,74 %
29.11.2017 21:54 2,8 C 4,4 C 96 % 1004,2 hPa 0,0 l/m 5,3 km/h (1 Bft) NO 55 0 min 0,000 mm 0,0 UV-I 0 W/m 2,2 C 2,8 C 6,4 km/h (2 Bft) 98,00 %
29.11.2017 21:56 2,8 C 4,4 C 96 % 1004,2 hPa 0,0 l/m 4,7 km/h (1 Bft) NO 46 0 min 0,000 mm 0,0 UV-I 0 W/m 2,2 C 2,8 C 8,0 km/h (2 Bft) 93,62 %
29.11.2017 21:58 2,8 C 4,4 C 97 % 1004,2 hPa 0,0 l/m 4,9 km/h (1 Bft) NO 42 0 min 0,000 mm 0,0 UV-I 0 W/m 2,4 C 2,8 C 6,4 km/h (2 Bft) 96,00 %
29.11.2017 22:00 2,8 C 4,4 C 97 % 1004,2 hPa 0,0 l/m 4,4 km/h (1 Bft) NO 56 0 min 0,000 mm 0,0 UV-I 0 W/m 2,4 C 2,8 C 6,4 km/h (2 Bft) 98,00 %
29.11.2017 22:02 2,8 C 4,4 C 97 % 1004,2 hPa 0,0 l/m 4,1 km/h (1 Bft) O-NO 57 0 min 0,000 mm 0,0 UV-I 0 W/m 2,4 C 2,8 C 6,4 km/h (2 Bft) 97,87 %
29.11.2017 22:04 2,7 C 4,4 C 96 % 1004,2 hPa 0,2 l/m 5,3 km/h (1 Bft) NO 54 0 min 0,000 mm 0,0 UV-I 0 W/m 2,1 C 2,7 C 8,0 km/h (2 Bft) 97,87 %
29.11.2017 22:06 2,7 C 4,4 C 96 % 1004,2 hPa 0,0 l/m 4,9 km/h (1 Bft) NO 44 0 min 0,000 mm 0,0 UV-I 0 W/m 2,1 C 2,7 C 8,0 km/h (2 Bft) 97,87 %
29.11.2017 22:08 2,7 C 4,4 C 96 % 1004,2 hPa 0,0 l/m 4,0 km/h (1 Bft) NO 42 0 min 0,000 mm 0,0 UV-I 0 W/m 2,1 C 2,7 C 6,4 km/h (2 Bft) 97,87 %
29.11.2017 22:10 2,7 C 4,4 C 96 % 1004,2 hPa 0,0 l/m 2,9 km/h (1 Bft) NO 42 0 min 0,000 mm 0,0 UV-I 0 W/m 2,1 C 2,7 C 4,8 km/h (1 Bft) 97,87 %
29.11.2017 22:12 2,6 C 4,4 C 96 % 1004,1 hPa 0,0 l/m 2,8 km/h (1 Bft) NO 42 0 min 0,000 mm 0,0 UV-I 0 W/m 2,0 C 2,6 C 4,8 km/h (1 Bft) 97,22 %
29.11.2017 22:14 2,6 C 4,4 C 96 % 1004,1 hPa 0,0 l/m 2,5 km/h (1 Bft) NO 42 0 min 0,000 mm 0,0 UV-I 0 W/m 2,0 C 2,6 C 3,2 km/h (1 Bft) 97,87 %
29.11.2017 22:16 2,6 C 4,4 C 96 % 1004,1 hPa 0,0 l/m 1,2 km/h (1 Bft) NO 42 0 min 0,000 mm 0,0 UV-I 0 W/m 2,0 C 2,6 C 3,2 km/h (1 Bft) 100,00 %
29.11.2017 22:18 2,7 C 4,4 C 96 % 1004,1 hPa 0,0 l/m 0,8 km/h (0 Bft) NO 42 0 min 0,000 mm 0,0 UV-I 0 W/m 2,1 C 2,7 C 3,2 km/h (1 Bft) 97,87 %
29.11.2017 22:20 2,7 C 4,4 C 96 % 1004,0 hPa 0,0 l/m 3,4 km/h (1 Bft) NO 42 0 min 0,000 mm 0,0 UV-I 0 W/m 2,1 C 2,7 C 4,8 km/h (1 Bft) 97,87 %
29.11.2017 22:22 2,6 C 4,4 C 96 % 1004,0 hPa 0,0 l/m 5,0 km/h (1 Bft) NO 42 0 min 0,000 mm 0,0 UV-I 0 W/m 2,0 C 2,6 C 6,4 km/h (2 Bft) 97,87 %
29.11.2017 22:24 2,6 C 4,4 C 96 % 1003,9 hPa 0,0 l/m 5,9 km/h (2 Bft) NO 49 0 min 0,000 mm 0,0 UV-I 0 W/m 2,0 C 2,6 C 6,4 km/h (2 Bft) 94,00 %
29.11.2017 22:26 2,6 C 4,4 C 96 % 1003,9 hPa 0,0 l/m 5,1 km/h (1 Bft) NO 50 0 min 0,000 mm 0,0 UV-I 0 W/m 2,0 C 2,6 C 6,4 km/h (2 Bft) 97,87 %
29.11.2017 22:28 2,5 C 4,4 C 96 % 1003,8 hPa 0,0 l/m 5,0 km/h (1 Bft) O-NO 67 0 min 0,000 mm 0,0 UV-I 0 W/m 1,9 C 2,5 C 8,0 km/h (2 Bft) 98,00 %
29.11.2017 22:30 2,5 C 4,4 C 96 % 1003,8 hPa 0,0 l/m 3,1 km/h (1 Bft) O-NO 58 0 min 0,000 mm 0,0 UV-I 0 W/m 1,9 C 2,5 C 4,8 km/h (1 Bft) 97,87 %
29.11.2017 22:32 2,5 C 4,4 C 96 % 1003,8 hPa 0,0 l/m 3,4 km/h (1 Bft) NO 54 0 min 0,000 mm 0,0 UV-I 0 W/m 1,9 C 2,5 C 6,4 km/h (2 Bft) 97,87 %
29.11.2017 22:34 2,5 C 4,4 C 96 % 1003,8 hPa 0,0 l/m 4,0 km/h (1 Bft) NO 53 0 min 0,000 mm 0,0 UV-I 0 W/m 1,9 C 2,5 C 6,4 km/h (2 Bft) 97,87 %
29.11.2017 22:36 2,4 C 4,4 C 96 % 1003,8 hPa 0,0 l/m 2,6 km/h (1 Bft) NO 53 0 min 0,000 mm 0,0 UV-I 0 W/m 1,8 C 2,4 C 4,8 km/h (1 Bft) 94,74 %
29.11.2017 22:38 2,4 C 4,4 C 96 % 1003,7 hPa 0,0 l/m 3,2 km/h (1 Bft) NO 53 0 min 0,000 mm 0,0 UV-I 0 W/m 1,8 C 2,4 C 4,8 km/h (1 Bft) 95,74 %
29.11.2017 22:40 2,4 C 4,4 C 96 % 1003,7 hPa 0,0 l/m 3,5 km/h (1 Bft) NO 53 0 min 0,000 mm 0,0 UV-I 0 W/m 1,8 C 2,4 C 6,4 km/h (2 Bft) 98,00 %
29.11.2017 22:42 2,4 C 4,4 C 96 % 1003,7 hPa 0,2 l/m 3,1 km/h (1 Bft) NO 39 0 min 0,000 mm 0,0 UV-I 0 W/m 1,8 C 2,4 C 4,8 km/h (1 Bft) 95,74 %
29.11.2017 22:44 2,4 C 4,4 C 96 % 1003,7 hPa 0,0 l/m 3,4 km/h (1 Bft) NO 39 0 min 0,000 mm 0,0 UV-I 0 W/m 1,8 C 2,4 C 4,8 km/h (1 Bft) 97,87 %
29.11.2017 22:46 2,5 C 4,4 C 96 % 1003,7 hPa 0,0 l/m 4,4 km/h (1 Bft) N-NO 20 0 min 0,000 mm 0,0 UV-I 0 W/m 1,9 C 2,5 C 6,4 km/h (2 Bft) 97,92 %
29.11.2017 22:48 2,4 C 4,4 C 96 % 1003,7 hPa 0,0 l/m 0,7 km/h (0 Bft) N-NO 20 0 min 0,000 mm 0,0 UV-I 0 W/m 1,8 C 2,4 C 4,8 km/h (1 Bft) 97,87 %
29.11.2017 22:50 2,4 C 4,4 C 96 % 1003,8 hPa 0,0 l/m 2,3 km/h (1 Bft) N-NO 20 0 min 0,000 mm 0,0 UV-I 0 W/m 1,8 C 2,4 C 3,2 km/h (1 Bft) 98,00 %
29.11.2017 22:52 2,4 C 4,4 C 96 % 1003,8 hPa 0,0 l/m 1,7 km/h (1 Bft) N-NO 20 0 min 0,000 mm 0,0 UV-I 0 W/m 1,8 C 2,4 C 3,2 km/h (1 Bft) 94,74 %
29.11.2017 22:54 2,4 C 4,4 C 96 % 1003,8 hPa 0,0 l/m 2,1 km/h (1 Bft) N-NO 20 0 min 0,000 mm 0,0 UV-I 0 W/m 1,8 C 2,4 C 4,8 km/h (1 Bft) 100,00 %
29.11.2017 22:56 2,4 C 4,4 C 96 % 1003,9 hPa 0,0 l/m 3,6 km/h (1 Bft) N-NO 20 0 min 0,000 mm 0,0 UV-I 0 W/m 1,8 C 2,4 C 4,8 km/h (1 Bft) 97,87 %
29.11.2017 22:58 2,4 C 4,4 C 96 % 1003,9 hPa 0,0 l/m 2,6 km/h (1 Bft) N-NO 20 0 min 0,000 mm 0,0 UV-I 0 W/m 1,8 C 2,4 C 4,8 km/h (1 Bft) 100,00 %
29.11.2017 23:00 2,4 C 4,4 C 97 % 1003,9 hPa 0,0 l/m 2,9 km/h (1 Bft) N-NO 33 0 min 0,000 mm 0,0 UV-I 0 W/m 2,0 C 2,4 C 4,8 km/h (1 Bft) 95,74 %
29.11.2017 23:02 2,3 C 4,4 C 96 % 1004,0 hPa 0,0 l/m 2,6 km/h (1 Bft) NO 34 0 min 0,000 mm 0,0 UV-I 0 W/m 1,7 C 2,3 C 4,8 km/h (1 Bft) 97,87 %
29.11.2017 23:04 2,3 C 4,4 C 96 % 1004,0 hPa 0,0 l/m 4,4 km/h (1 Bft) NO 55 0 min 0,000 mm 0,0 UV-I 0 W/m 1,7 C 2,3 C 6,4 km/h (2 Bft) 98,00 %
29.11.2017 23:06 2,3 C 4,4 C 96 % 1003,9 hPa 0,0 l/m 3,9 km/h (1 Bft) NO 53 0 min 0,000 mm 0,0 UV-I 0 W/m 1,7 C 2,3 C 4,8 km/h (1 Bft) 100,00 %
29.11.2017 23:08 2,3 C 4,4 C 96 % 1004,0 hPa 0,0 l/m 4,5 km/h (1 Bft) O-NO 65 0 min 0,000 mm 0,0 UV-I 0 W/m 1,7 C 2,3 C 6,4 km/h (2 Bft) 100,00 %
29.11.2017 23:10 2,3 C 4,4 C 96 % 1004,0 hPa 0,0 l/m 4,6 km/h (1 Bft) O-NO 57 0 min 0,000 mm 0,0 UV-I 0 W/m 1,7 C 2,3 C 6,4 km/h (2 Bft) 95,74 %
29.11.2017 23:12 2,3 C 4,4 C 96 % 1004,0 hPa 0,0 l/m 4,5 km/h (1 Bft) O-NO 60 0 min 0,000 mm 0,0 UV-I 0 W/m 1,7 C 2,3 C 6,4 km/h (2 Bft) 100,00 %
29.11.2017 23:14 2,2 C 4,4 C 96 % 1004,1 hPa 0,0 l/m 3,3 km/h (1 Bft) O-NO 60 0 min 0,000 mm 0,0 UV-I 0 W/m 1,6 C 2,2 C 4,8 km/h (1 Bft) 100,00 %
29.11.2017 23:16 2,2 C 4,4 C 96 % 1004,1 hPa 0,0 l/m 4,0 km/h (1 Bft) O-NO 61 0 min 0,000 mm 0,0 UV-I 0 W/m 1,6 C 2,2 C 6,4 km/h (2 Bft) 93,62 %
29.11.2017 23:18 2,2 C 4,4 C 96 % 1004,0 hPa 0,0 l/m 3,9 km/h (1 Bft) O-NO 61 0 min 0,000 mm 0,0 UV-I 0 W/m 1,6 C 2,2 C 4,8 km/h (1 Bft) 100,00 %
29.11.2017 23:20 2,2 C 4,4 C 96 % 1004,0 hPa 0,0 l/m 3,6 km/h (1 Bft) O-NO 61 0 min 0,000 mm 0,0 UV-I 0 W/m 1,6 C 2,2 C 4,8 km/h (1 Bft) 100,00 %
29.11.2017 23:22 2,2 C 4,4 C 96 % 1003,9 hPa 0,0 l/m 2,2 km/h (1 Bft) O-NO 61 0 min 0,000 mm 0,0 UV-I 0 W/m 1,6 C 2,2 C 3,2 km/h (1 Bft) 100,00 %
29.11.2017 23:24 2,2 C 4,4 C 96 % 1003,9 hPa 0,0 l/m 3,5 km/h (1 Bft) O-NO 61 0 min 0,000 mm 0,0 UV-I 0 W/m 1,6 C 2,2 C 6,4 km/h (2 Bft) 100,00 %
29.11.2017 23:26 2,2 C 4,4 C 96 % 1003,8 hPa 0,0 l/m 3,8 km/h (1 Bft) O-NO 61 0 min 0,000 mm 0,0 UV-I 0 W/m 1,6 C 2,2 C 4,8 km/h (1 Bft) 94,44 %
29.11.2017 23:28 2,2 C 4,4 C 96 % 1003,8 hPa 0,0 l/m 2,6 km/h (1 Bft) O-NO 61 0 min 0,000 mm 0,0 UV-I 0 W/m 1,6 C 2,2 C 4,8 km/h (1 Bft) 100,00 %
29.11.2017 23:30 2,2 C 4,4 C 96 % 1003,7 hPa 0,0 l/m 2,4 km/h (1 Bft) O-NO 61 0 min 0,000 mm 0,0 UV-I 0 W/m 1,6 C 2,2 C 3,2 km/h (1 Bft) 100,00 %
29.11.2017 23:32 2,2 C 4,4 C 96 % 1003,7 hPa 0,0 l/m 1,2 km/h (1 Bft) O-NO 61 0 min 0,000 mm 0,0 UV-I 0 W/m 1,6 C 2,2 C 3,2 km/h (1 Bft) 100,00 %
29.11.2017 23:34 2,2 C 4,4 C 96 % 1003,8 hPa 0,0 l/m 1,2 km/h (1 Bft) O-NO 61 0 min 0,000 mm 0,0 UV-I 0 W/m 1,6 C 2,2 C 3,2 km/h (1 Bft) 100,00 %
29.11.2017 23:36 2,2 C 4,4 C 96 % 1003,7 hPa 0,0 l/m 0,8 km/h (0 Bft) O-NO 61 0 min 0,000 mm 0,0 UV-I 0 W/m 1,6 C 2,2 C 3,2 km/h (1 Bft) 100,00 %
29.11.2017 23:38 2,2 C 4,4 C 96 % 1003,7 hPa 0,0 l/m 1,4 km/h (1 Bft) O-NO 61 0 min 0,000 mm 0,0 UV-I 0 W/m 1,6 C 2,2 C 3,2 km/h (1 Bft) 97,87 %
29.11.2017 23:40 2,2 C 4,4 C 96 % 1003,6 hPa 0,0 l/m 0,0 km/h (0 Bft) O-NO 61 0 min 0,000 mm 0,0 UV-I 0 W/m 1,6 C 2,2 C 1,6 km/h (1 Bft) 97,87 %
29.11.2017 23:42 2,2 C 4,4 C 96 % 1003,6 hPa 0,2 l/m 0,0 km/h (0 Bft) O-NO 61 0 min 0,000 mm 0,0 UV-I 0 W/m 1,6 C 2,2 C 0,0 km/h (0 Bft) 100,00 %
29.11.2017 23:44 2,3 C 4,4 C 97 % 1003,6 hPa 0,0 l/m 0,0 km/h (0 Bft) O-NO 61 0 min 0,000 mm 0,0 UV-I 0 W/m 1,9 C 2,3 C 0,0 km/h (0 Bft) 97,87 %
29.11.2017 23:46 2,3 C 4,4 C 97 % 1003,6 hPa 0,0 l/m 0,0 km/h (0 Bft) O-NO 61 0 min 0,000 mm 0,0 UV-I 0 W/m 1,9 C 2,3 C 0,0 km/h (0 Bft) 100,00 %
29.11.2017 23:48 2,2 C 4,4 C 97 % 1003,7 hPa 0,0 l/m 0,0 km/h (0 Bft) O-NO 61 0 min 0,000 mm 0,0 UV-I 0 W/m 1,8 C 2,2 C 0,0 km/h (0 Bft) 100,00 %
29.11.2017 23:50 2,3 C 4,4 C 97 % 1003,6 hPa 0,0 l/m 0,0 km/h (0 Bft) O-NO 61 0 min 0,000 mm 0,0 UV-I 0 W/m 1,9 C 2,3 C 0,0 km/h (0 Bft) 97,87 %
29.11.2017 23:52 2,2 C 4,4 C 97 % 1003,6 hPa 0,0 l/m 0,0 km/h (0 Bft) O-NO 61 0 min 0,000 mm 0,0 UV-I 0 W/m 1,8 C 2,2 C 0,0 km/h (0 Bft) 100,00 %
29.11.2017 23:54 2,2 C 4,4 C 97 % 1003,6 hPa 0,0 l/m 0,0 km/h (0 Bft) O-NO 61 0 min 0,000 mm 0,0 UV-I 0 W/m 1,8 C 2,2 C 0,0 km/h (0 Bft) 97,87 %
29.11.2017 23:56 2,2 C 4,4 C 97 % 1003,6 hPa 0,0 l/m 0,0 km/h (0 Bft) O-NO 61 0 min 0,000 mm 0,0 UV-I 0 W/m 1,8 C 2,2 C 1,6 km/h (1 Bft) 97,87 %
29.11.2017 23:58 2,1 C 4,4 C 96 % 1003,6 hPa 0,0 l/m 0,3 km/h (0 Bft) O-NO 61 0 min 0,000 mm 0,0 UV-I 0 W/m 1,5 C 2,1 C 1,6 km/h (1 Bft) 100,00 %
_ Min-Zeit 00:08 00:00 12:30 23:40 - 06:26 - - - - - - 00:00 00:00 06:26 08:38
Minimum _ 0,9 C 4,4 C 86 % 1003,6 hPa - 0,0 km/h (0 Bft) - - - - - - 0,3 C 1,0 C 0,0 km/h (0 Bft) 89,36 %
_ Max-Zeit 11:50 00:00 04:40 01:30 02:14 14:32 - - 14:19 12:02 12:06 11:46 14:20 12:32 14:32 00:10
Maximum _ 5,1 C 4,4 C 97 % 1007,0 hPa 0,2 l/m 10,5 km/h
N-NO (2 Bft)
- - 3 min 0,076 mm 0,5 UV-I 247 W/m 3,9 C 5,1 C 16,1 km/h
N-NO (3 Bft)
100,00 %
Durchschnitt _ 3,3 C 4,4 C 94 % 1005,8 hPa #3,4 l/m 2,6 km/h (1 Bft) NO - #32 min. #0,305 mm 0,4 UV-I 81 W/m 2,5 C 3,2 C 4,6 km/h (1 Bft) 97,64 %